[[[{"header":{"parameterUnit":"kt","parameterCategory":2,"dx":1,"dy":1,"la1":29.285339999999998,"la2":30.599998999999997,"lo1":-89.70041500000002,"lo2":-87.6738589999976,"nx":112,"ny":82,"refTime":"2022-09-21T06:00:00:Z","depth":0,"parameterNumber":1,"parameterNumberName":"U-component_of_WINDS"},"data":[3.8536,3.9292,3.9324,3.7459,3.6828,3.5812,3.2434,3.1748,3.1775,3.1496,3.2035,3.3027,3.4578,3.3102,3.1815,3.2083,3.0568,2.9178,0.0,2.8803,2.9338,3.0372,3.1621,3.3168,3.5023,3.4667,0.0,0.0,3.8776,4.0021,4.4308,4.5002,4.5843,4.7008,4.7044,4.7044,4.7044,4.714,4.7237,4.7237,4.7698,4.8081,4.8368,4.8768,4.9148,4.9641,4.9641,5.019,5.0998,5.0998,5.0998,5.1091,5.1726,5.1633,5.0768,4.8951,4.8277,4.8277,4.8277,4.9512,5.1093,5.1093,5.3179,5.5441,5.4403,5.5721,5.7026,5.4685,5.5721,5.7281,5.5957,5.5807,5.5893,5.5785,5.6407,5.66,5.5441,5.6578,5.7873,5.7873,5.7259,5.7451,5.9307,5.9034,5.8477,5.8048,5.8606,5.8888,5.8653,5.9224,5.9663,5.9663,5.9663,5.9663,5.9663,5.9663,5.9663,5.9663,5.9663,5.9663,5.9663,5.9663,5.9663,5.9663,5.9663,5.9476,5.9019,5.9019,5.8832,5.8482,5.8831,5.8424,3.5499,3.6224,3.6481,3.4267,3.3813,3.3094,3.0324,2.9535,2.9422,2.9422,3.0491,3.1513,3.2001,3.1496,3.0816,3.0294,2.9545,2.8691,0.0,2.882,2.9944,3.0437,3.2574,3.464,3.6233,3.6072,0.0,0.0,3.9694,0.0,4.4699,4.5393,4.6128,4.7026,4.7044,4.7044,4.7044,4.7044,4.7044,4.7044,4.7315,4.7603,4.7986,4.8291,4.8672,4.9148,4.9148,4.9357,4.9641,4.9641,4.9831,4.9906,4.9697,4.9583,4.9319,4.7625,4.6918,4.6918,4.6918,4.7885,4.9022,4.9199,5.1264,5.3418,5.1698,5.3247,5.5051,5.2044,5.3333,5.5387,5.4099,5.4269,5.486,5.4754,5.5303,5.5471,5.4353,5.5449,5.6744,5.6744,5.614,5.6306,5.8213,5.7897,5.7305,5.7062,5.7539,5.7841,5.757,5.8131,5.8482,5.8482,5.8482,5.8482,5.8482,5.8482,5.8482,5.8482,5.8482,5.8482,5.8482,5.8482,5.8482,5.8482,5.8482,5.8318,5.7967,5.7967,5.7804,5.7453,5.7453,5.6863,3.3104,3.241,3.2121,3.0883,2.9969,2.9454,2.9524,2.9509,2.9475,2.9492,3.0091,3.0608,3.0625,3.0158,2.9174,2.7661,2.8027,0.0,0.0,2.881,3.0666,3.0637,3.4044,3.6975,0.0,3.6713,3.7264,0.0,3.9426,4.0032,4.534,4.566,4.6128,4.7026,4.7026,4.7026,4.7044,4.7044,4.7044,4.7044,4.7026,4.7008,4.7008,4.6973,4.7147,4.7608,4.7608,4.8199,4.9073,4.9073,4.9377,4.9774,4.9014,4.8672,4.8447,4.6618,4.5942,4.5942,4.5942,4.6321,4.6772,4.7292,4.859,4.9737,4.7898,4.8678,4.9717,4.7898,4.8767,5.0156,5.0156,5.1355,5.2542,5.2542,5.3991,5.5382,5.5382,5.6841,5.8225,5.8307,5.6841,5.6133,5.8038,5.6729,5.5099,5.4233,5.5728,5.6578,5.5688,5.7277,5.8388,5.8388,5.8388,5.8388,5.8388,5.8388,5.8388,5.8388,5.8388,5.8388,5.8388,5.8388,5.8388,5.8388,5.8388,5.7897,5.6892,5.6892,5.6401,5.542,5.542,5.542,3.1239,3.1764,3.215,3.089,3.1033,3.108,2.9167,2.8347,2.8147,2.8615,2.8504,0.0,0.0,0.0,2.8626,2.821,0.0,3.0086,2.8093,3.1318,3.3775,3.3536,3.5351,0.0,0.0,3.9996,4.071,4.365,4.2013,4.2031,4.4699,4.5375,4.6128,4.7026,4.6395,4.6377,4.7044,4.7044,4.7044,4.7044,4.636,4.6281,4.6546,4.6045,4.6034,4.6512,4.6512,4.6696,4.688,4.688,4.6972,4.7136,4.6913,4.6449,4.5854,4.4667,4.4267,4.4267,4.4267,4.4285,4.4702,4.6132,4.7778,4.8853,4.7119,4.8052,4.9396,4.7564,4.8558,5.0146,5.0146,4.9563,4.8998,4.8998,4.9417,4.9813,4.9813,5.1221,5.2875,5.4129,5.3968,5.4209,5.5923,5.5794,5.5358,5.5067,5.5505,5.5699,5.5482,5.5923,5.6261,5.6261,5.6261,5.6261,5.6261,5.6261,5.6261,5.6261,5.6261,5.6261,5.6261,5.6261,5.6261,5.6261,5.6261,5.6121,5.584,5.584,5.57,5.542,5.542,5.542,3.0297,3.1054,3.178,3.0405,3.11,3.1301,2.8575,2.7912,2.7757,2.7568,0.0,0.0,0.0,0.0,0.0,0.0,2.9598,3.063,2.9097,3.2687,3.5233,3.4621,0.0,0.0,4.0567,4.0557,4.1597,4.4344,4.2743,4.2494,4.4432,4.4948,4.5393,4.595,4.5429,4.5411,4.5968,4.5968,4.5968,4.5968,4.5411,4.5383,4.5643,4.5158,4.5125,4.5398,4.5398,4.558,4.5743,4.5743,4.5834,4.596,4.4833,4.4198,4.3656,4.3202,4.2934,4.2934,4.2934,4.3106,4.3451,4.4526,4.6831,4.8779,4.6851,4.7913,4.9292,4.6767,4.7498,4.9067,4.9067,4.8902,4.8656,4.8656,4.8656,4.8656,4.8656,4.9476,5.0695,5.2503,5.2843,5.3397,5.5086,5.542,5.542,5.542,5.542,5.542,5.542,5.542,5.542,5.542,5.542,5.542,5.542,5.542,5.542,5.542,5.542,5.542,5.542,5.542,5.542,5.542,5.542,5.542,5.542,5.542,5.542,5.542,5.542,5.542,2.9964,3.0408,3.1116,3.0019,3.0575,3.0745,2.8321,0.0,2.8113,2.7178,0.0,2.6993,2.7749,0.0,0.0,2.7085,2.9468,3.0958,3.0155,3.3614,3.5922,3.5207,3.8114,4.0047,3.946,3.9601,4.0989,4.3964,4.2406,4.2158,4.4272,4.4379,4.4432,4.4521,4.4432,4.4432,4.4521,4.4521,4.4521,4.4521,4.4432,4.4379,4.4379,4.4308,4.4255,4.4255,4.4255,4.451,4.4927,4.4927,4.5198,4.5431,4.3058,4.2173,4.2173,4.2173,4.2242,4.2433,4.2242,4.2693,4.3279,4.3125,4.5844,4.882,4.689,4.7953,4.9149,4.6051,4.6368,4.7621,4.7621,4.8738,4.9863,4.9965,5.0047,5.0128,5.0371,5.0453,5.1018,5.2821,5.316,5.3476,5.4597,5.4752,5.4752,5.4752,5.4752,5.4752,5.4752,5.4752,5.4752,5.4752,5.5009,5.5009,5.4853,5.5009,5.5009,5.4853,5.5009,5.5086,5.5086,5.5265,5.542,5.542,5.542,5.542,5.542,5.542,5.542,5.542,5.542,5.542,2.9044,2.9809,3.0745,3.1038,3.0884,3.0604,0.0,0.0,0.0,3.0235,2.9664,2.9278,3.0498,3.0606,3.0699,3.1178,3.3753,3.5008,3.313,3.6373,3.8702,3.8002,3.8562,3.9311,3.9945,4.0094,4.0759,4.2319,4.2621,4.3,4.3543,4.3543,4.3845,4.4504,4.3881,4.3863,4.4521,4.4521,4.4521,4.4521,4.3863,4.3543,4.3525,4.2903,4.2618,4.2618,4.2618,4.2706,4.2793,4.2793,4.2863,4.2845,4.2367,4.2173,4.2173,4.2173,4.2934,4.3708,4.2607,4.3671,4.5422,4.4374,4.5375,4.6831,4.6432,4.6934,4.7538,4.6807,4.7121,4.7621,4.7621,4.785,4.8264,4.9047,4.9211,4.9763,5.1865,5.2344,5.2821,5.462,5.4931,5.4128,5.1581,5.1179,5.1179,5.1179,5.1179,5.1179,5.1179,5.1179,5.1179,5.1179,5.2503,5.2742,5.126,5.2503,5.2742,5.126,5.2583,5.3318,5.3318,5.4698,5.542,5.542,5.542,5.542,5.542,5.542,5.542,5.542,5.542,5.542,2.8585,2.9254,2.9809,3.0348,3.0483,0.0,0.0,2.8867,2.8775,3.022,2.9695,2.9618,3.1641,3.2011,3.2351,3.337,3.5701,3.6915,3.5805,3.7461,3.8528,3.8266,3.8235,3.8422,3.8904,3.9353,3.9769,4.0026,4.1298,4.2244,4.276,4.2743,4.2921,4.333,4.2956,4.2938,4.3347,4.3347,4.3347,4.3347,4.2938,4.2743,4.2725,4.2334,4.2173,4.2173,4.2173,4.2173,4.2173,4.2173,4.2173,4.2173,4.2173,4.2173,4.2173,4.2173,4.2589,4.3125,4.2433,4.3088,4.4081,4.3451,4.4203,4.5375,4.574,4.5928,4.5882,4.5375,4.5629,4.5967,4.5967,4.6135,4.6387,4.6807,4.6974,4.7288,4.8573,4.8902,4.9394,5.1179,5.2163,5.222,5.0453,5.0107,5.0107,5.0107,5.0107,5.0107,5.0107,5.0107,5.0107,5.0107,5.0938,5.1099,5.0188,5.1018,5.1099,5.0188,5.1018,5.1522,5.1522,5.2322,5.2799,5.2799,5.2799,5.3217,5.4128,5.3217,5.2799,5.2821,5.3712,5.4128,2.7105,2.7936,2.8389,2.8909,2.9621,0.0,2.9104,2.8904,2.9253,3.0297,3.0143,3.0485,3.2811,3.3242,3.3725,3.4961,3.6656,3.7755,3.7755,3.7755,3.7693,3.7462,3.7447,3.7447,3.7447,3.8148,3.8349,3.7865,3.9323,4.0728,4.1895,4.2069,4.2173,4.2173,4.2173,4.2173,4.2173,4.2173,4.2173,4.2173,4.2173,4.2173,4.2173,4.2173,4.2173,4.2173,4.2173,4.2173,4.2173,4.2173,4.2173,4.2173,4.2173,4.2173,4.2173,4.2173,4.2329,4.2589,4.2242,4.2502,4.2916,4.2675,4.3537,4.48,4.5487,4.5422,4.5055,4.427,4.4374,4.4734,4.4734,4.497,4.5225,4.5394,4.546,4.5648,4.5798,4.5882,4.6116,4.6703,4.7913,4.8882,4.8882,4.8882,4.8882,4.8964,4.8964,4.9046,4.9128,4.9128,4.9128,4.9128,4.9476,4.9537,4.9128,4.9455,4.9476,4.9128,4.9476,4.9639,4.9639,4.9944,5.035,5.0695,5.035,5.0857,5.2344,5.0857,5.0512,5.1179,5.2662,5.3397,2.2462,2.454,2.6494,2.7127,2.826,0.0,3.0429,3.0872,3.1702,3.3684,3.4405,3.5053,3.5892,3.6061,3.6397,3.7184,3.7509,3.7755,3.7755,3.7755,3.7416,3.6798,3.6721,3.6721,3.6721,3.6796,3.6765,3.6687,3.7744,3.9146,4.0902,4.1721,4.2173,4.2173,4.2173,4.2173,4.2173,4.2173,4.2173,4.2173,4.2173,4.2173,4.2173,4.2173,4.2173,4.2173,4.2173,4.2173,4.2173,4.2173,4.2173,4.2173,4.2173,4.2173,4.2173,4.2173,4.2934,4.3898,4.2607,4.3757,4.559,4.446,4.4951,4.6096,4.6161,4.618,4.6096,4.6012,4.6012,4.6012,4.6012,4.6096,4.6348,4.7121,4.7621,4.8098,4.8902,4.9292,4.847,4.4696,4.4099,4.427,4.427,4.427,4.446,4.4885,4.497,4.514,4.5479,4.546,4.546,4.546,4.6954,4.7288,4.5629,4.6954,4.7205,4.5544,4.7038,4.785,4.785,4.9394,5.0938,5.2503,5.1018,5.029,5.0453,5.029,5.1741,5.4853,5.5009,5.511,2.1174,2.2383,2.3565,2.5409,0.0,0.0,2.8822,2.9841,3.0954,3.3022,3.4248,3.5424,3.6937,3.7215,3.7431,3.8204,3.7555,3.7045,3.7045,3.7045,3.6937,3.6539,3.6508,3.6508,3.6508,3.6508,3.6508,3.6508,3.7476,3.8438,3.9234,4.0131,4.0849,4.1356,4.1356,4.1617,4.2173,4.2173,4.2173,4.2173,4.2173,4.2173,4.2173,4.2173,4.2173,4.2173,4.2173,4.2173,4.2173,4.2173,4.2173,4.2173,4.2173,4.2173,4.2173,4.2173,4.2589,4.2934,4.2433,4.2916,4.3757,4.3279,4.3432,4.3928,4.3928,4.3928,4.3928,4.3928,4.3928,4.3928,4.427,4.4526,4.4781,4.5187,4.5356,4.561,4.6012,4.6161,4.5844,4.4308,4.4222,4.4289,4.4051,4.3965,4.3965,4.388,4.388,4.3965,4.4118,4.4118,4.4118,4.4118,4.4781,4.5036,4.4649,4.5225,4.5479,4.497,4.5629,4.6051,4.6051,4.6683,4.7435,4.8161,4.7518,4.7101,4.7101,4.7101,4.8409,5.0878,5.1901,5.29,1.9544,0.0,0.0,0.0,0.0,0.0,2.7069,2.847,2.9772,3.1458,3.3311,3.5039,3.653,3.7079,3.7509,3.7987,3.7231,3.6508,3.6508,3.6508,3.6508,3.6508,3.6508,3.6508,3.6508,3.6508,3.6508,0.0,3.7208,3.7833,3.8083,3.872,3.9516,4.0377,4.0465,4.092,4.1808,4.1808,4.1895,4.2173,4.2173,4.2173,4.2173,4.2173,4.2173,4.2173,4.2173,4.2173,4.2173,4.2173,4.2173,4.2173,4.2173,4.2173,4.2173,4.2173,4.2173,4.2173,4.2173,4.2173,4.2173,4.2173,4.2173,4.2173,4.2173,4.2173,4.2173,4.2173,4.2173,4.226,4.2607,4.2934,4.3193,4.3193,4.3279,4.3365,4.3365,4.3279,4.3279,4.3622,4.3965,4.4051,4.3794,4.3727,4.3641,4.3451,4.3365,4.3451,4.3518,4.3537,4.3622,4.3708,4.3794,4.3965,4.4393,4.4478,4.4649,4.4904,4.4885,4.4885,4.4885,4.4885,4.514,4.5629,4.514,4.514,4.5629,4.6116,4.7038,4.8346,5.0614,5.2322,0.0,0.0,0.0,2.1147,2.2694,2.4389,2.6085,2.7577,2.8799,2.9684,3.2255,3.4437,3.4495,3.5609,3.6539,3.6554,3.6539,3.6508,3.6508,3.6508,3.6508,3.6508,3.6508,3.6508,3.6508,3.6508,3.6508,3.6508,3.6598,3.703,3.7994,3.8083,3.8543,3.9444,3.9532,3.9956,4.0902,4.0902,4.1338,4.2173,4.2173,4.2173,4.2173,4.2173,4.2173,4.2173,4.2173,4.2173,4.2173,4.2173,4.2173,4.2173,4.2173,4.2173,4.2173,4.2173,4.2173,4.2173,4.2173,4.2173,4.2173,4.2173,4.2173,4.2173,4.2173,4.2173,4.2173,4.2173,4.2173,4.2173,4.2173,4.226,4.226,4.226,4.2607,4.2952,4.2952,4.2607,4.226,4.2242,4.226,4.226,4.2242,4.2242,4.2433,4.2866,4.2952,4.3125,4.3451,4.3537,4.3708,4.4241,4.4326,4.4478,4.4819,4.4904,4.4885,4.4885,4.4885,4.4885,4.4885,4.4885,4.5713,4.7538,4.5798,4.5798,4.7538,4.9231,5.0026,5.0107,5.3634,5.5265,1.6183,1.7382,1.8888,2.0716,2.1705,2.2629,2.4296,2.5857,2.7096,2.7365,2.984,3.2269,3.3195,3.2999,3.2999,3.3922,3.4661,3.5489,3.6418,3.6508,3.6508,3.6508,3.6508,3.6508,3.6508,3.6508,3.6508,3.6508,3.6508,3.6687,3.703,3.7045,3.7208,3.7492,3.8188,3.9234,4.0798,4.0815,4.1269,4.2173,4.2173,4.2173,4.2173,4.2173,4.2173,4.2173,4.2173,4.2173,4.2173,4.2173,4.2173,4.2173,4.2173,4.2173,4.2173,4.2173,4.2173,4.2173,4.2173,4.2173,4.2173,4.2173,4.2173,4.2173,4.2173,4.2173,4.2173,4.2173,4.2173,4.2173,4.2173,4.2173,4.2173,4.2173,4.2347,4.2433,4.2433,4.2607,4.2693,4.2693,4.2934,4.302,4.2779,4.2693,4.2607,4.2433,4.2433,4.252,4.2589,4.2589,4.2675,4.2848,4.2934,4.3106,4.3537,4.388,4.4137,4.4478,4.4734,4.4885,4.4885,4.4885,4.5225,4.5798,4.5225,4.5225,4.5798,4.6368,4.7268,4.8511,4.9639,5.0209,1.6532,1.7332,1.8387,2.0375,2.111,2.1587,2.2796,2.4174,2.5233,2.5233,2.7408,2.967,3.0592,3.0039,3.0144,3.2269,3.3195,3.4299,3.6074,3.6344,3.6434,3.6508,3.6508,3.6508,3.6508,3.6508,3.6508,3.6508,3.6508,3.6508,3.6508,3.6508,3.6508,3.6508,3.7208,3.8083,3.9323,3.9675,4.0465,4.1721,4.1721,4.1895,4.2173,4.2173,4.2173,4.2173,4.2173,4.2173,4.2173,4.2173,4.2173,4.2173,4.2173,4.2173,4.2173,4.2173,4.2173,4.2173,4.2173,4.2173,4.2173,4.2173,4.2173,4.2173,4.2173,4.2173,4.2173,4.2173,4.2173,4.2173,4.2173,4.2173,4.2173,4.2173,4.2173,4.2173,4.2173,4.2433,4.2693,4.2693,4.2848,4.2934,4.2693,4.2693,4.2607,4.226,4.2173,4.2173,4.2173,4.2173,4.226,4.2433,4.2433,4.2675,4.3125,4.3537,4.3965,4.4326,4.4564,4.4734,4.4885,4.4734,4.4734,4.4885,4.4885,4.4885,4.4885,4.5544,4.6471,4.7621,4.8264,4.8511,1.7166,1.7567,1.8167,2.0105,2.0904,2.1309,2.1676,2.2519,2.3288,2.3288,2.5125,2.679,2.679,2.679,2.799,3.134,3.2086,3.3013,3.5458,3.5834,3.6104,3.6434,3.6508,3.6508,3.6508,3.6508,3.6508,3.6508,3.6508,3.6508,3.6508,3.6508,3.6508,3.6508,3.6508,3.6508,3.6508,3.7565,3.8969,4.0728,4.0728,4.1181,4.2087,4.2069,4.2069,4.2087,4.2069,4.2087,4.2156,4.2156,4.2173,4.2173,4.2173,4.2173,4.2173,4.2173,4.2173,4.2173,4.2173,4.2173,4.2173,4.2173,4.2173,4.2173,4.2173,4.2173,4.2173,4.2173,4.2173,4.2173,4.2173,4.2173,4.2173,4.2173,4.2173,4.2173,4.2173,4.2173,4.2173,4.2173,4.2173,4.2173,4.2173,4.2173,4.2173,4.2173,4.2173,4.2173,4.2173,4.2173,4.2347,4.2866,4.2952,4.3038,4.3451,4.3965,4.4241,4.4241,4.4222,4.4478,4.4819,4.4478,4.4478,4.4885,4.4819,4.48,4.4819,4.6619,4.7455,4.7455,4.9149,4.9863,1.7923,1.9104,1.9986,2.0813,2.1318,2.1639,2.174,2.1949,2.2139,2.2139,2.3269,2.4015,2.3259,2.3732,2.4854,2.6895,2.9022,3.1156,3.2922,3.4509,3.5533,3.6089,3.6104,3.6269,3.6508,3.6508,3.6508,3.6508,3.6508,3.6508,3.6508,3.6508,3.6508,3.6508,3.6508,3.6508,3.6508,3.7565,3.8704,3.978,3.978,3.9956,4.0148,4.0832,4.0832,4.0236,4.092,4.1164,4.1251,4.1895,4.2173,4.2173,4.2173,4.2173,4.2173,4.2173,4.2173,4.2173,4.2173,4.2173,4.2173,4.2173,4.2173,4.2173,4.2173,4.2173,4.2173,4.2173,4.2173,4.2173,4.2173,4.2173,4.2173,4.2173,4.2173,4.2173,4.2173,4.2173,4.2173,4.2173,4.2173,4.2173,4.2173,4.2173,4.2173,4.2173,4.2173,4.2173,4.2173,4.2173,4.226,4.2329,4.2347,4.2433,4.2502,4.3038,4.3297,4.3297,4.3537,4.3776,4.388,4.4137,4.4393,4.4478,4.4051,4.388,4.388,4.4715,4.514,4.514,4.5882,4.6284,1.7896,1.9233,2.0572,2.1244,2.1602,2.1759,2.1759,2.1759,2.1759,2.1759,2.2234,2.2424,2.1863,2.2234,2.3174,2.4843,2.651,2.8652,3.1536,3.2844,3.4056,3.5443,3.5624,3.5714,3.5879,3.6164,3.6269,3.6269,3.6418,3.6508,3.6508,3.6508,3.6508,3.6508,3.6508,3.6508,3.6508,3.7119,3.7654,3.8204,3.8632,3.9091,3.9444,3.9956,3.9956,3.9532,4.0482,4.1077,4.1443,4.1982,4.2173,4.2173,4.2173,4.2173,4.2173,4.2173,4.2173,4.2173,4.2173,4.2173,4.2173,4.2173,4.2173,4.2173,4.2173,4.2173,4.2173,4.2173,4.2173,4.2173,4.2173,4.2173,4.2173,4.2173,4.2173,4.2173,4.2173,4.2173,4.2173,4.2173,4.2173,4.2173,4.2173,4.2173,4.2173,4.2173,4.2173,4.2173,4.2173,4.2173,4.2173,4.2173,4.2173,4.2173,4.2173,4.2693,4.2952,4.2952,4.3211,4.3365,4.3537,4.3622,4.3813,4.3965,4.3708,4.3622,4.388,4.4155,4.4412,4.4564,4.4819,4.4885,1.7621,1.8893,2.0399,2.1492,2.1759,2.1759,2.1759,2.1759,2.1759,2.1759,2.1759,2.1759,2.1759,2.1759,2.232,2.3995,2.4561,2.6147,3.0446,3.1182,3.2296,3.4796,3.5067,3.5067,3.5157,3.5639,3.5834,3.5834,3.6254,3.6434,3.6434,3.6508,3.6508,3.6508,3.6508,3.6508,3.6508,3.6508,3.6508,3.6598,3.7476,3.8277,3.9091,3.9091,3.9091,3.9091,4.0027,4.0902,4.1634,4.1808,4.1895,4.1982,4.1982,4.2069,4.2173,4.2173,4.2173,4.2173,4.2173,4.2173,4.2173,4.2173,4.2173,4.2173,4.2173,4.2173,4.2173,4.2173,4.2173,4.2173,4.2173,4.2173,4.2173,4.2173,4.1996,4.1853,4.1853,4.1853,4.1853,4.1853,4.1853,4.1853,4.1853,4.1853,4.1853,4.1853,4.1853,4.1853,4.1853,4.1853,4.1853,4.1853,4.1853,4.1853,4.1853,4.2283,4.2595,4.2703,4.2703,4.2911,4.3346,4.3125,4.3016,4.3035,4.3035,4.3291,4.3735,4.382,4.399,4.431,4.4479,4.4535,1.8866,1.9977,2.1097,2.163,2.1759,2.1759,2.1759,2.1759,2.1759,2.1759,2.1759,2.1759,2.1759,2.1759,2.1854,2.2225,2.3627,2.5584,2.8107,2.9787,3.1733,3.4252,3.4539,3.472,3.5157,3.5248,3.5338,3.5338,3.5819,3.6104,3.6104,3.6344,3.6508,3.6508,3.6508,3.6508,3.6508,3.6508,3.6508,3.6508,3.6687,3.6866,3.7045,3.7045,3.7045,3.7135,3.8099,3.8616,3.8881,3.9604,4.0394,4.1077,4.1077,4.153,4.2173,4.2173,4.2173,4.2173,4.2173,4.2173,4.2173,4.2173,4.2173,4.2173,4.2173,4.2173,4.2173,4.2173,4.2173,4.2173,4.2173,4.2173,4.2173,4.2173,4.116,4.03,4.03,4.03,4.03,4.03,4.03,4.03,4.03,4.03,4.03,4.03,4.03,4.03,4.03,4.03,4.03,4.03,4.03,4.03,4.03,4.03,4.065,4.1275,4.1329,4.1718,4.2398,4.2779,4.2148,4.0483,4.0465,4.0547,4.0612,4.1042,4.1288,4.137,4.1988,4.2707,1.8423,1.9347,2.0216,2.0896,2.1422,2.1759,2.1759,2.1759,2.1545,2.0938,2.1286,2.1694,2.1492,2.163,2.1759,2.1759,2.251,2.3911,2.5866,2.6977,2.8745,3.2113,3.2479,3.2949,3.4237,3.4615,3.4796,3.4796,3.5263,3.5533,3.5533,3.5999,3.6254,3.6254,3.6434,3.6508,3.6508,3.6508,3.6508,3.6508,3.6508,3.6508,3.6508,3.6508,3.6851,3.7387,3.7922,3.8366,3.8809,3.9267,3.9692,4.0131,4.0131,4.0394,4.0849,4.1269,4.1443,4.153,4.1982,4.2173,4.2173,4.2173,4.2173,4.2173,4.2173,4.1871,4.1619,4.1619,4.1249,4.0928,4.0928,4.0928,4.0928,4.0928,4.0359,3.989,3.989,3.989,3.989,3.989,3.989,3.989,3.989,3.989,3.989,3.989,3.989,3.989,3.989,3.989,3.989,3.989,3.989,3.989,3.989,3.989,4.0032,4.0407,4.0442,4.0603,4.0928,4.1199,4.0823,3.989,3.989,3.9971,4.0217,4.0543,4.0706,4.0931,4.156,4.2027,1.763,1.8454,1.9301,2.0072,2.0816,2.1455,2.1364,2.1337,2.1071,2.0183,2.0797,2.1572,2.1364,2.1557,2.1759,2.1759,2.1759,2.2415,2.4372,2.4645,2.6053,2.9682,3.042,3.1353,3.2844,3.3783,3.4266,3.4266,3.4705,3.4977,3.4977,3.5548,3.5819,3.5819,3.6164,3.6434,3.6434,3.6508,3.6508,3.6508,3.6508,3.6508,3.6508,3.6508,3.6956,3.7744,3.7744,3.8188,3.8825,3.8825,3.9002,3.9163,3.9163,3.9267,3.9516,4.012,4.0313,4.0383,4.0919,4.1125,4.1125,4.14,4.14,4.1486,4.1658,4.1298,4.0781,4.0781,4.0353,3.989,3.989,3.989,3.9801,3.9444,3.9373,3.9373,3.9373,3.9373,3.9373,3.9373,3.9373,3.9373,3.9373,3.9373,3.9373,3.9373,3.9373,3.9373,3.9373,3.9373,3.9373,3.9373,3.9373,3.9373,3.9373,3.9373,3.9444,3.9622,3.964,3.9711,3.9872,3.9551,3.9373,3.9373,3.9373,3.9534,3.9955,3.9955,4.0098,4.0419,4.0801,4.1133,1.6978,1.8261,1.9617,1.9651,2.0045,2.0233,1.9882,1.9804,1.988,2.0301,2.0713,2.1178,2.1618,2.174,2.1759,2.1759,2.1759,2.2415,2.4372,2.4645,2.5491,2.7828,2.959,3.0802,3.0985,3.2662,3.3692,3.3692,3.4161,3.4448,3.4448,3.4977,3.5248,3.5248,3.5729,3.6014,3.6014,3.6344,3.6508,3.6508,3.6508,3.6508,3.6508,3.6508,3.6598,3.6687,3.6687,3.6777,3.6777,3.6777,3.7387,3.8172,3.8172,3.872,3.9361,3.8851,3.8686,3.8603,3.7966,3.7731,3.7898,3.8764,3.9013,3.9095,3.9856,3.9968,3.9897,3.9897,3.9943,3.989,3.989,3.989,3.9533,3.8072,3.7733,3.7733,3.7733,3.7733,3.7733,3.7733,3.7733,3.7733,3.7733,3.7733,3.7733,3.7733,3.7733,3.7733,3.7733,3.7733,3.7733,3.7733,3.7733,3.7733,3.7733,3.7733,3.8054,3.8723,3.8758,3.9078,3.9772,3.8499,3.7733,3.7733,3.7733,3.7733,3.781,3.781,3.781,3.7888,3.8233,3.8863,1.5828,1.6859,1.7963,1.8228,1.892,1.9516,1.9421,1.8878,1.8612,1.907,1.9822,2.0545,2.0516,2.0753,2.1022,2.1246,2.1377,2.1774,2.2756,2.2974,2.3627,2.5678,2.6604,2.8002,3.0525,3.1445,3.2388,3.3496,3.3783,3.3979,3.3979,3.4433,3.4886,3.5157,3.5729,3.6104,3.6344,3.6434,3.6508,3.6508,3.6508,3.6292,3.598,3.598,3.5748,3.5378,3.5795,3.5748,3.5362,3.5362,3.5606,3.6038,3.6038,3.6211,3.6523,3.6848,3.7004,3.704,3.7914,3.8127,3.8292,3.9134,3.938,3.9462,3.9708,3.9488,3.9114,3.9114,3.8758,3.8464,3.8464,3.8464,3.8303,3.7679,3.7519,3.7519,3.7519,3.7519,3.7519,3.7519,3.7519,3.7519,3.7519,3.7519,3.7519,3.7519,3.7519,3.7519,3.7519,3.7519,3.7519,3.7519,3.7519,3.7519,3.7519,3.7519,3.7662,3.7982,3.8,3.7673,3.6956,3.6862,3.6782,3.6782,3.7306,3.7519,3.7519,3.7519,3.7519,3.7519,3.7939,3.8274,1.4654,1.5622,1.6635,1.6859,1.7719,1.8571,1.8703,1.8063,1.7494,1.7851,1.8994,1.977,1.9592,1.9887,2.0238,2.0586,2.0691,2.0935,2.1419,2.1568,2.213,2.3627,2.4372,2.5761,2.8652,2.9498,3.0433,3.1825,3.2465,3.2753,3.2753,3.3692,3.4343,3.4691,3.5263,3.5729,3.6149,3.6254,3.6434,3.6508,3.6508,3.6134,3.527,3.527,3.5007,3.4659,3.5053,3.4992,3.4628,3.4628,3.4628,3.4628,3.4628,3.4628,3.4697,3.5099,3.527,3.5405,3.6484,3.6827,3.699,3.7804,3.8209,3.8451,3.8711,3.8581,3.8296,3.8296,3.7965,3.7519,3.7519,3.7519,3.7365,3.6902,3.7134,3.7442,3.7228,3.7383,3.7442,3.7228,3.7365,3.7365,3.6825,3.6997,3.7074,3.6825,3.6747,3.6747,3.6747,3.6747,3.6747,3.6747,3.6747,3.6747,3.6747,3.6747,3.6747,3.6747,3.6747,3.6118,3.4734,3.5513,3.5944,3.5944,3.6454,3.6747,3.6747,3.6997,3.7151,3.7151,3.7709,3.7939,1.3694,1.4876,1.604,1.5676,1.6379,1.7247,1.7602,1.7241,1.6844,1.7082,1.8151,1.9104,1.9199,1.9412,1.9651,1.966,1.966,1.9975,2.0848,2.0996,2.1187,2.1759,2.3533,2.4749,2.4739,2.6615,2.7828,2.7828,2.9682,3.071,3.071,3.257,3.3587,3.3692,3.4161,3.472,3.5157,3.5729,3.6179,3.6508,3.6508,3.5872,3.4628,3.4628,3.4628,3.4628,3.4628,3.4628,3.4628,3.4628,3.4628,3.4628,3.4628,3.4628,3.4551,3.3916,3.3684,3.3576,3.2799,3.2552,3.2711,3.3585,3.4376,3.5162,3.6134,3.6877,3.7537,3.7537,3.7519,3.7519,3.7519,3.7519,3.7056,3.5442,3.6282,3.7288,3.6489,3.6937,3.7306,3.6489,3.7014,3.6979,3.5285,3.5788,3.6022,3.5145,3.4972,3.4972,3.4972,3.4972,3.4972,3.4972,3.4972,3.4972,3.4972,3.4972,3.4972,3.4972,3.4972,3.4734,3.4078,3.4667,3.4988,3.4988,3.4972,3.4972,3.4972,3.5944,3.6351,3.6429,3.7151,3.7519,1.2722,1.3751,1.4751,1.5097,1.6039,1.6774,1.6639,1.6805,1.7018,1.7121,1.7606,1.8173,1.8159,1.8283,1.8537,1.8795,1.889,1.9118,1.9696,1.9748,1.984,2.0024,2.0565,2.1462,2.2809,2.3525,2.469,2.6309,2.8197,2.9377,2.9642,3.142,3.2587,3.2966,3.314,3.3387,3.3807,3.3996,3.4343,3.4791,3.4415,3.3947,3.3351,3.3351,3.3272,3.32,3.3679,3.3602,3.32,3.3694,3.3602,3.3169,3.3169,3.3169,3.3139,3.2938,3.2861,3.291,3.3252,3.3411,3.3569,3.4359,3.4831,3.5067,3.5302,3.5615,3.5754,3.5754,3.6239,3.6567,3.591,3.5754,3.5676,3.5129,3.5363,3.5754,3.5458,3.5286,3.5066,3.4778,3.4566,3.4284,3.3761,3.3927,3.4002,3.3702,3.3702,3.3702,3.3702,3.3702,3.3702,3.3702,3.3702,3.3702,3.3702,3.3702,3.3702,3.3702,3.2573,3.1857,3.1635,3.2353,3.2708,3.2708,3.3311,3.3702,3.3702,3.3927,3.4272,3.4778,3.499,3.5646,1.2286,1.3075,1.3935,1.4553,1.5265,1.5812,1.563,1.5844,1.605,1.605,1.6425,1.6843,1.7021,1.7496,1.7868,1.8094,1.8209,1.8403,1.8916,1.895,1.9032,1.9212,1.9212,1.9745,2.0977,2.1066,2.1684,2.3268,2.5305,2.6549,2.6812,2.8748,3.0063,3.0336,3.0422,3.0854,3.1958,3.1958,3.19,3.1705,3.144,3.1224,3.1232,3.0478,3.0524,3.0985,3.1657,3.2018,3.2312,3.2919,3.2922,3.2441,3.2441,3.2441,3.2441,3.2441,3.2441,3.2521,3.3093,3.3332,3.3411,3.3886,3.4281,3.4517,3.4517,3.4753,3.4988,3.4988,3.538,3.5419,3.3752,3.3988,3.4447,3.3851,3.4388,3.4922,3.4311,3.4096,3.3819,3.3219,3.3079,3.2853,3.2174,3.2322,3.2395,3.21,3.21,3.21,3.21,3.21,3.21,3.21,3.21,3.21,3.21,3.21,3.21,3.21,3.0843,3.0186,3.0186,3.0847,3.1196,3.1196,3.1805,3.21,3.21,3.2395,3.2699,3.316,3.3744,3.4522,1.2165,1.2765,1.3477,1.4172,1.4342,1.4394,1.4677,1.4525,1.4395,1.4373,1.4854,1.5369,1.5787,1.6738,1.7457,1.7563,1.7634,1.7764,1.8275,1.839,1.8571,1.8998,1.9079,1.9071,1.9045,1.9045,1.9045,1.9135,2.1338,2.2742,2.2831,2.5115,2.643,2.6518,2.6518,2.7477,2.9557,2.9643,2.9109,2.7729,2.7729,2.7961,2.8247,2.6614,2.6778,2.8409,2.891,3.0056,3.1707,3.2202,3.2377,3.2377,3.2361,3.2457,3.2457,3.2441,3.2441,3.2441,3.2441,3.2441,3.2441,3.2441,3.2967,3.3664,3.3664,3.412,3.4732,3.4683,3.4666,3.4042,3.1259,3.2158,3.3406,3.1911,3.3254,3.4422,3.296,3.3243,3.3248,3.1798,3.2207,3.2174,3.0625,3.098,3.1201,3.0477,3.0402,3.0402,3.0402,3.0402,3.0402,3.0402,3.0402,3.0402,3.0402,3.0402,3.0328,3.0328,2.9699,2.9448,2.9448,3.0019,3.0328,3.0402,3.0402,3.0402,3.0402,3.1127,3.1439,3.1413,3.2866,3.3557,1.1431,1.2036,1.2726,1.3674,1.3929,1.4007,1.4409,1.4453,1.4329,1.3996,1.4264,1.4628,1.4702,1.4991,1.535,1.5943,1.6624,1.721,1.7399,1.7687,1.7849,1.7658,1.7625,1.7521,1.735,1.7325,1.7412,1.775,1.96,2.1035,2.1736,2.3485,2.4749,2.5169,2.5169,2.542,2.5922,2.7282,2.7154,2.5475,2.5475,2.5628,2.6039,2.5628,2.5792,2.6532,2.8084,2.891,2.9477,3.092,3.1592,3.1592,3.1882,3.2027,3.2027,3.2361,3.2441,3.2441,3.2441,3.2441,3.2441,3.2441,3.2244,3.206,3.206,3.2137,3.2244,3.1709,3.1551,3.1413,3.0709,3.0914,3.1212,3.0855,3.1228,3.1509,3.1153,3.0816,3.0452,3.0105,2.9723,2.9347,2.8923,2.9065,2.9065,2.8923,2.8867,2.8867,2.8867,2.8867,2.8867,2.8867,2.8867,2.8867,2.8867,2.8867,2.8639,2.8141,2.8006,2.8072,2.8355,2.8492,2.8654,2.8867,2.8867,2.8867,2.8867,2.9065,2.8971,2.8731,2.9097,2.9428,1.1155,1.1733,1.2221,1.1947,1.1402,1.097,1.117,1.1183,1.1012,1.0906,1.1208,1.1556,1.1712,1.2003,1.2765,1.3971,1.4691,1.4858,1.4089,1.4303,1.4785,1.54,1.5509,1.5885,1.6671,1.6741,1.6818,1.6989,1.8147,1.8986,1.9503,2.0571,2.14,2.1903,2.1903,2.2404,2.3404,2.4246,2.4131,2.3141,2.3376,2.3447,2.348,2.2879,2.3155,2.4152,2.5368,2.6217,2.6892,2.8031,2.8439,2.827,2.8478,2.8557,2.8557,2.8806,2.912,2.9526,3.0492,3.1114,3.1579,3.1579,3.1332,3.1023,3.1023,3.1023,3.0946,3.065,3.034,2.9957,2.9633,2.983,3.0046,3.0046,3.0319,3.0534,3.0175,2.9764,2.9457,2.9102,2.8652,2.839,2.839,2.839,2.839,2.839,2.839,2.839,2.839,2.839,2.839,2.839,2.825,2.818,2.818,2.8025,2.7746,2.7395,2.7395,2.7184,2.6677,2.5943,2.566,2.5787,2.5787,2.5787,2.5787,2.6155,2.6183,2.6017,2.6753,2.7445,1.1135,1.1466,1.1373,0.9743,0.8476,0.7585,0.7597,0.7362,0.7219,0.7298,0.775,0.8144,0.8296,0.9019,1.0023,1.1654,1.2163,1.1832,1.0492,1.0569,1.1442,1.3,1.3503,1.4447,1.6134,1.6562,1.6741,1.6741,1.6989,1.7237,1.7322,1.7748,1.8165,1.8589,1.8589,1.9447,2.1144,2.0894,2.0786,2.0798,2.1198,2.1178,2.0808,1.9731,1.9987,2.1383,2.2108,2.31,2.4168,2.4767,2.4811,2.4492,2.4569,2.4569,2.4646,2.4646,2.5107,2.5887,2.7591,2.8967,3.0093,3.0003,3.0017,3.009,3.009,3.009,3.0074,3.0189,2.9772,2.9216,2.8544,2.8862,2.9347,2.9347,2.99,3.0159,2.9486,2.9347,2.9139,2.8529,2.839,2.839,2.839,2.839,2.839,2.832,2.832,2.832,2.825,2.825,2.825,2.825,2.8041,2.7901,2.7901,2.762,2.7166,2.668,2.6666,2.5954,2.4383,2.3169,2.2555,2.2642,2.2654,2.2691,2.2766,2.3424,2.3639,2.3496,2.4794,2.5872,1.0852,1.0326,0.9261,0.7892,0.758,0.7551,0.7581,0.7345,0.7182,0.7211,0.7385,0.7526,0.7526,0.7673,0.8023,0.8712,0.8976,0.9333,1.003,1.0483,1.091,1.1236,1.2644,1.3778,1.4248,1.5785,1.6741,1.6741,1.6741,1.6989,1.7322,1.7407,1.7663,1.8173,1.8165,1.8021,1.769,1.7913,1.8127,1.8063,1.8517,1.8668,1.8611,1.8358,1.8385,1.8785,2.037,2.1199,2.1518,2.314,2.3792,2.372,2.4029,2.4183,2.4261,2.4569,2.48,2.4877,2.5184,2.6498,2.797,2.7653,2.784,2.8218,2.8218,2.8218,2.8261,2.8639,2.8621,2.8529,2.8421,2.846,2.8514,2.8514,2.8669,2.8738,2.8599,2.8514,2.8514,2.839,2.839,2.839,2.839,2.839,2.832,2.8126,2.8041,2.7901,2.7605,2.7535,2.7535,2.7535,2.7535,2.7535,2.7535,2.7465,2.6213,2.3297,2.3096,2.2505,2.1168,2.1211,2.1544,2.2235,2.2248,2.239,2.2766,2.2837,2.243,2.1442,2.1659,2.1659,0.9723,0.7966,0.6286,0.5683,0.5054,0.4638,0.4634,0.4578,0.4471,0.4526,0.4593,0.4667,0.4713,0.4738,0.5118,0.6326,0.5831,0.5925,0.7554,0.7436,0.7522,0.8552,0.9466,1.0516,1.1899,1.2834,1.3812,1.4841,1.4911,1.5342,1.6319,1.6393,1.6566,1.715,1.715,1.699,1.6565,1.6796,1.6844,1.6873,1.724,1.7468,1.7428,1.7644,1.7883,1.8121,1.8992,1.9171,1.9043,1.9874,2.0103,1.9948,2.0164,2.024,2.024,2.039,2.0778,2.1241,2.1818,2.2939,2.4227,2.5543,2.6315,2.6811,2.7627,2.6092,2.429,2.5075,2.5646,2.5858,2.5433,2.5957,2.648,2.6084,2.6803,2.7535,2.7535,2.7971,2.839,2.839,2.839,2.839,2.839,2.839,2.8197,2.776,2.7577,2.7235,2.6751,2.6504,2.6369,2.6369,2.6151,2.6016,2.6016,2.5745,2.4878,2.3307,2.251,2.1512,2.005,1.9634,1.9195,1.873,1.8661,1.8768,1.8972,1.9404,1.9285,1.8826,1.9416,1.9964,0.7809,0.0,0.4024,0.372,0.2914,0.2124,0.0,0.2053,0.2016,0.2027,0.2052,0.2085,0.2165,0.2179,0.2665,0.4003,0.3181,0.2981,0.4684,0.4148,0.4158,0.5778,0.6473,0.7576,0.9416,1.0051,1.0927,1.2352,1.2911,1.3722,1.4781,1.5334,1.5742,1.6157,1.5598,1.5353,1.5353,1.5833,1.6085,1.6099,1.6466,1.6613,1.666,1.7019,1.7377,1.769,1.7759,1.7671,1.7396,1.7396,1.7203,1.6918,1.6918,1.6918,1.6918,1.6918,1.7297,1.7962,1.8805,1.9684,2.0727,2.3078,2.4152,2.4807,2.5971,2.4179,2.1865,2.2778,2.3567,2.4081,2.3782,2.4594,2.5417,2.5007,2.6084,2.717,2.717,2.7816,2.839,2.839,2.8267,2.8143,2.8143,2.802,2.7728,2.7137,2.6808,2.6441,2.5828,2.5426,2.5215,2.5215,2.4939,2.4742,2.4742,2.3282,2.2259,2.1985,2.0991,1.9795,1.8216,1.7437,1.6441,1.5228,1.5318,1.5364,1.5364,1.6149,1.648,1.6558,1.7496,1.8547,0.0,0.4403,0.3956,0.273,0.2282,0.2105,0.1838,0.1804,0.0,0.1349,0.1231,0.1252,0.1257,0.1257,0.1342,0.1604,0.146,0.1484,0.212,0.2178,0.2486,0.3431,0.5167,0.6444,0.7049,0.8743,0.9761,0.9787,1.1631,1.2759,1.282,1.4606,1.5574,1.5582,1.3482,1.2347,1.2347,1.4251,1.5227,1.5277,1.5676,1.5817,1.5866,1.6256,1.6414,1.6489,1.6852,1.6983,1.6955,1.6955,1.6946,1.6918,1.6918,1.6918,1.6918,1.6918,1.6918,1.6992,1.7057,1.7657,1.8478,1.9819,2.0693,2.1381,2.1442,2.2515,2.371,2.3782,2.438,2.5204,2.6239,2.6607,2.6959,2.7816,2.8165,2.825,2.825,2.832,2.839,2.839,2.7882,2.7502,2.7502,2.6977,2.6415,2.6008,2.5747,2.5405,2.5019,2.4611,2.4348,2.4348,2.4334,2.4334,2.4334,2.0428,1.7457,1.6197,1.6071,1.5384,1.39,1.3772,1.3708,1.3579,1.4052,1.4291,1.4291,1.4987,1.5311,1.5311,1.5733,1.6371,0.3106,0.3031,0.2937,0.2474,0.2109,0.1885,0.1745,0.1528,0.1256,0.1154,0.114,0.114,0.1195,0.1175,0.1245,0.1316,0.131,0.1411,0.1686,0.1924,0.2174,0.2507,0.3375,0.4121,0.4573,0.5277,0.6205,0.7341,0.8211,0.918,1.0368,1.1136,1.1522,1.1522,1.0953,1.0627,1.0627,1.1386,1.1761,1.1761,1.2887,1.3554,1.3853,1.507,1.5749,1.5972,1.612,1.6334,0.0,1.6548,1.6696,1.6918,1.6918,1.6918,1.6918,1.6918,1.6918,1.6918,1.6918,1.714,1.7436,1.7859,1.8889,1.9924,2.0194,1.9892,1.9527,1.9527,2.0486,2.1454,2.1358,2.2443,2.3521,2.345,2.438,2.5152,2.4851,2.5309,2.5747,2.5426,2.562,2.584,2.584,2.6169,2.6267,2.569,2.5185,2.4655,2.4115,2.3557,2.3105,2.2855,2.2136,2.1797,2.206,2.0412,1.8666,1.7208,1.6292,1.5467,1.4758,1.4097,1.3668,1.3447,1.3575,1.3707,1.3707,1.3983,1.4052,1.4061,1.4695,1.5155,0.076,0.0566,0.0574,0.0434,0.0216,0.0143,0.0567,0.0351,0.0211,0.0723,0.0424,0.007,0.0,-0.0289,-0.0501,-0.0611,-0.0533,-0.0388,-0.0251,0.0,0.0251,0.0344,0.0499,0.097,0.1939,0.2633,0.3626,0.4922,0.5615,0.6577,0.7908,0.8731,0.8655,0.7597,0.8509,0.8967,0.8967,0.9496,0.9727,0.9727,1.0777,1.168,1.2499,1.3785,1.478,1.5534,1.5683,1.5897,1.6112,1.6112,1.6334,1.6548,1.6548,1.6622,1.6696,1.6696,1.677,1.6918,1.6918,1.6918,1.6918,1.6918,1.7657,1.8542,1.8805,1.7859,1.6743,1.7055,1.794,1.8919,1.8908,2.0111,2.1318,2.1377,2.2435,2.3395,2.3277,2.3918,2.4468,2.4443,2.48,2.5055,2.5055,2.5467,2.5493,2.4537,2.3957,2.3552,2.312,2.254,2.2229,2.2493,2.1589,2.0489,1.9229,1.862,1.7738,1.65,1.55,1.4835,1.4488,1.3816,1.3374,1.3213,1.3197,1.3328,1.346,1.346,1.3467,1.3431,1.3543,1.346,-0.2242,-0.3083,-0.3176,-0.3626,-0.373,-0.3348,-0.2061,-0.1873,-0.1603,-0.0285,-0.1204,-0.221,-0.2485,-0.338,-0.4285,-0.4798,-0.4625,-0.4407,-0.4146,-0.4096,-0.3937,-0.3543,-0.3465,-0.2756,-0.0789,0.1264,0.2507,0.2524,0.4267,0.5399,0.5402,0.7748,0.7601,0.4343,0.6237,0.737,0.737,0.8891,0.9647,0.9647,0.9647,1.0476,1.198,1.2417,1.3486,1.5094,1.5525,1.5674,1.5674,1.5674,1.5674,1.5674,1.5749,1.5972,1.6334,1.6334,1.6548,1.6918,1.6918,1.6918,1.6918,1.6918,1.6918,1.6909,1.69,1.6613,1.6458,1.7283,1.7764,1.8449,2.0307,2.0777,2.1245,2.304,2.3516,2.37,2.4605,2.4801,2.5127,2.6181,2.5881,2.5433,2.5371,2.4862,2.3904,2.2218,2.2008,2.2023,2.2023,2.1631,2.1992,2.353,2.3345,2.1045,1.604,1.4414,1.3391,1.2834,1.2842,1.2688,1.2256,1.2256,1.2395,1.2827,1.2827,1.3035,1.3583,1.3583,1.3477,1.3334,1.2036,1.1063,-0.2436,-0.2895,-0.317,-0.3566,-0.393,-0.396,-0.3359,-0.3529,-0.3587,-0.3264,-0.334,-0.3615,-0.385,-0.4156,-0.4425,-0.4588,-0.4696,-0.47,-0.4617,-0.4332,-0.4041,-0.3945,-0.3658,-0.3286,-0.2848,-0.2,-0.0845,0.061,0.1294,0.2284,0.3738,0.4498,0.4576,0.3895,0.45,0.4954,0.5177,0.5633,0.5861,0.5937,0.7374,0.8353,0.8806,1.0018,1.0853,1.131,1.1455,1.168,1.1892,1.1892,1.2042,1.241,1.3636,1.4167,1.4391,1.5517,1.6186,1.6474,1.6474,1.6474,1.6474,1.6474,1.6334,1.6015,1.575,1.5581,1.5624,1.6126,1.635,1.6803,1.836,1.9522,2.041,2.0935,2.1069,2.1025,2.0903,2.1465,2.1799,2.0961,2.1802,2.2372,2.1755,2.2477,2.2956,2.2457,2.2921,2.3255,2.2939,2.2024,2.1391,2.1391,2.1747,2.0845,1.7975,1.6388,1.4872,1.3362,1.3215,1.304,1.2671,1.2664,1.2059,1.0791,1.1058,1.0703,0.9795,1.008,1.0184,1.0106,0.9761,0.948,-0.4703,-0.5076,-0.5402,-0.593,-0.6233,-0.6183,-0.5321,-0.5333,-0.5321,-0.4627,-0.4699,-0.511,-0.5582,-0.5993,-0.6241,-0.6495,-0.659,-0.659,-0.663,-0.6357,-0.6181,-0.633,-0.6111,-0.5715,-0.4944,-0.4488,-0.3426,-0.137,-0.0457,0.0533,0.1831,0.1983,0.2518,0.3437,0.3592,0.3819,0.4043,0.4043,0.4119,0.4269,0.5557,0.6584,0.7348,0.8319,0.9019,0.9589,0.9589,0.9735,0.9949,0.9949,1.0017,1.0376,1.1416,1.1854,1.2145,1.3091,1.3679,1.4033,1.4033,1.4403,1.4837,1.4837,1.4121,1.3321,1.3764,1.4052,1.4294,1.5046,1.5409,1.57,1.6398,1.7614,1.8743,1.9279,1.941,1.9458,1.9524,2.0024,2.0303,1.9715,2.0933,2.1788,2.113,2.2167,2.2835,2.2018,2.196,2.1925,2.1763,2.102,2.07,2.1064,1.9536,1.8115,1.688,1.5858,1.4621,1.3113,1.2894,1.2598,1.2193,1.168,1.0955,1.0092,0.9725,0.9235,0.8604,0.8913,0.8978,0.882,0.8258,0.8004,-0.7901,-0.849,-0.875,-0.9522,-0.9754,-0.9253,-0.7578,-0.7208,-0.6779,-0.5188,-0.5753,-0.6738,-0.7623,-0.8447,-0.9239,-0.9835,-0.981,-0.9605,-0.9613,-0.9573,-0.9579,-0.9727,-0.9754,-0.8982,-0.7063,-0.654,-0.5557,-0.3808,-0.1674,-0.0533,-0.0533,0.0,0.0991,0.2596,0.3132,0.3361,0.3437,0.3592,0.3816,0.4193,0.4193,0.5118,0.6832,0.6906,0.7598,0.8809,0.8815,0.8885,0.8885,0.8885,0.8885,0.8885,0.9019,0.9224,0.9568,0.9772,1.0062,1.0417,1.0417,1.1323,1.2366,1.2366,1.0937,0.9587,1.125,1.2079,1.264,1.3967,1.461,1.4915,1.4722,1.5589,1.687,1.8061,1.8435,1.8747,1.9666,1.9962,2.0209,2.0994,2.191,2.2457,2.2167,2.276,2.2745,2.0941,1.9862,1.9286,1.9496,1.9314,1.9791,2.1399,1.7116,1.4139,1.4139,1.3772,1.3205,1.2486,1.2054,1.1705,1.135,1.0074,0.9585,0.9952,0.875,0.8324,0.8809,0.8949,0.8872,0.8524,0.7345,0.6552,-0.798,-0.8356,-0.875,-0.9522,-0.9754,-0.9552,-0.8867,-0.8724,-0.8674,-0.8241,-0.8369,-0.8725,-0.9311,-1.0373,-1.1362,-1.1774,-1.2754,-1.2993,-1.1659,-1.1448,-1.1024,-0.9895,-0.9754,-0.9522,-0.9057,-0.8679,-0.8295,-0.7841,-0.5627,-0.4258,-0.4258,-0.274,-0.1523,-0.0762,0.0305,0.0914,0.1219,0.2594,0.3284,0.3359,0.3666,0.3995,0.4268,0.4638,0.4718,0.4741,0.5097,0.5238,0.5238,0.5238,0.5238,0.5309,0.6571,0.6915,0.6907,0.8524,0.9369,0.9795,0.9993,1.0266,1.0475,1.0475,0.9649,0.8678,0.9258,0.992,1.0771,1.2073,1.2961,1.378,1.5038,1.5904,1.6733,1.7538,1.8112,1.8498,1.8747,1.9418,1.9838,1.9232,1.9517,1.9616,1.8699,1.8762,1.8699,1.8327,1.957,2.0474,2.0234,1.9295,1.8279,1.7346,1.6237,1.5427,1.5063,1.3826,1.2824,1.2325,1.2179,1.2054,1.1782,1.1426,1.0086,0.7626,0.7832,0.6919,0.4599,0.5269,0.5482,0.545,0.517,0.4892,-1.082,-1.1015,-1.1298,-1.1905,-1.2062,-1.1944,-1.1648,-1.1413,-1.1349,-1.1549,-1.0633,-1.0372,-1.1979,-1.2027,-1.2177,-1.3274,-1.3971,-1.4052,-1.3178,-1.3105,-1.2497,-1.1003,-1.087,-1.0569,-0.9824,-0.9365,-0.9138,-0.9138,-0.7761,-0.7298,-0.7975,-0.525,-0.3199,-0.2132,-0.1523,-0.1142,-0.0913,0.0,0.0534,0.0762,0.0991,0.1497,0.2237,0.1804,0.1839,0.2319,0.2523,0.2591,0.2661,0.3343,0.3617,0.3686,0.4498,0.4835,0.4971,0.6054,0.6664,0.7006,0.7133,0.7602,0.807,0.7399,0.687,0.6587,0.7745,0.8457,0.936,1.1495,1.2592,1.3358,1.4756,1.5589,1.623,1.6849,1.7538,1.8112,1.8373,1.8871,1.9108,1.856,1.9034,1.9208,1.814,1.8377,1.8564,1.8015,1.8209,1.8333,1.8269,1.74,1.6517,1.5807,1.5025,1.4492,1.4272,1.3261,1.2512,1.2139,1.1998,1.1812,1.1677,1.04,0.8905,0.7146,0.6122,0.4903,0.3481,0.3942,0.4246,0.4385,0.3896,0.359,-1.3815,-1.4002,-1.4069,-1.4508,-1.4583,-1.4495,-1.4234,-1.3892,-1.3719,-1.4179,-1.2799,-1.2174,-1.4586,-1.392,-1.348,-1.5152,-1.5424,-1.5304,-1.4946,-1.4873,-1.4269,-1.271,-1.2506,-1.198,-1.072,-1.0267,-1.011,-1.011,-0.9652,-0.9949,-1.1154,-0.7681,-0.5101,-0.373,-0.3502,-0.3199,-0.2971,-0.2665,-0.2284,-0.1904,-0.1904,-0.1116,0.0355,-0.0779,-0.0689,0.0395,0.0524,0.0522,0.0653,0.183,0.2417,0.268,0.268,0.3007,0.3531,0.3597,0.3858,0.4187,0.4252,0.4964,0.5735,0.4641,0.4252,0.4644,0.6457,0.7232,0.8133,1.0989,1.2144,1.2775,1.3986,1.4883,1.5642,1.6356,1.711,1.7788,1.8361,1.8498,1.8498,1.8498,1.9046,1.9331,1.8451,1.8812,1.8924,1.8066,1.6618,1.5677,1.5912,1.5328,1.5051,1.5475,1.4219,1.3443,1.3708,1.3171,1.2706,1.2472,1.1952,1.1638,1.1574,0.9178,0.7695,0.7371,0.4896,0.3464,0.3203,0.3478,0.3587,0.3517,0.2772,0.2434,-1.3473,-1.4002,-1.4069,-1.4508,-1.4583,-1.4495,-1.4234,-1.4346,-1.445,-1.4635,-1.4627,-1.488,-1.594,-1.6857,-1.7699,-1.8664,-1.9629,-1.9686,-1.797,-1.7735,-1.6862,-1.4497,-1.421,-1.4136,-1.3987,-1.3912,-1.3837,-1.3837,-1.318,-1.2655,-1.2417,-1.032,-0.8821,-0.8295,-0.731,-0.6019,-0.4574,-0.3199,-0.2513,-0.2437,-0.2437,-0.2326,-0.2043,-0.1784,-0.1739,-0.1894,-0.1386,-0.1241,-0.1176,-0.1045,-0.0196,0.0914,0.0914,0.1634,0.2746,0.3072,0.3466,0.3793,0.4187,0.4383,0.4511,0.4318,0.4252,0.4448,0.5287,0.5941,0.6851,0.8861,0.9824,1.0789,1.2712,1.4104,1.5307,1.6293,1.7424,1.8373,1.8435,1.8498,1.8498,1.8498,1.8112,1.7777,1.7652,1.6775,1.6083,1.5957,1.5884,1.5894,1.5955,1.5155,1.4892,1.5501,1.5067,1.5194,1.6324,1.514,1.4294,1.4249,1.3039,1.2216,1.2016,1.0403,0.8855,0.7436,0.6136,0.4114,0.1306,0.223,0.1971,0.0591,0.0985,0.1182,-1.6378,-1.6974,-1.6974,-1.7122,-1.7186,-1.7149,-1.7044,-1.6969,-1.695,-1.7206,-1.6844,-1.695,-1.8424,-1.8516,-1.8711,-1.991,-2.0127,-1.9807,-1.8974,-1.8822,-1.807,-1.612,-1.5863,-1.5557,-1.4657,-1.4583,-1.4583,-1.4583,-1.4449,-1.4308,-1.4069,-1.1749,-1.0331,-1.011,-0.9652,-0.8669,-0.731,-0.594,-0.5253,-0.5253,-0.5253,-0.4812,-0.3965,-0.4498,-0.4239,-0.3534,-0.329,-0.3179,-0.3001,-0.222,-0.1502,-0.0914,-0.0914,-0.0261,0.0849,0.1634,0.2417,0.3137,0.3989,0.3858,0.3268,0.3268,0.3727,0.4448,0.5485,0.601,0.6661,0.8855,0.9695,1.0274,1.1759,1.2712,1.365,1.5253,1.6272,1.71,1.8237,1.8498,1.8498,1.8498,1.8237,1.7925,1.7527,1.7026,1.6534,1.6167,1.602,1.6073,1.6524,1.6377,1.6231,1.6294,1.6472,1.6785,1.7222,1.5738,1.4801,1.4801,1.3294,1.2408,1.228,1.0204,0.8591,0.7616,0.5085,0.3068,0.1634,0.1502,0.111,0.0522,0.0261,-0.0065,-1.8396,-1.9109,-1.914,-1.9255,-1.9213,-1.9213,-1.9213,-1.9025,-1.895,-1.9286,-1.8991,-1.905,-2.07,-2.0304,-2.0043,-2.1019,-2.0606,-2.0005,-1.9642,-1.9568,-1.9091,-1.7686,-1.75,-1.7048,-1.5846,-1.5771,-1.5771,-1.5771,-1.564,-1.5723,-1.5871,-1.303,-1.1461,-1.1674,-1.1154,-1.0482,-0.9587,-0.875,-0.8295,-0.8295,-0.7997,-0.7242,-0.6081,-0.6701,-0.6332,-0.5128,-0.506,-0.4975,-0.4811,-0.3667,-0.3003,-0.2677,-0.2483,-0.1634,-0.0457,0.0522,0.1437,0.2287,0.3137,0.2876,0.2156,0.2156,0.2746,0.3727,0.5355,0.5811,0.6331,0.8796,0.9507,0.9765,1.0803,1.1431,1.2192,1.4031,1.5127,1.6209,1.7663,1.8299,1.8622,1.8622,1.8685,1.8548,1.8089,1.7839,1.759,1.71,1.6587,1.6587,1.759,1.7817,1.7919,1.8032,1.8454,1.8702,1.8776,1.691,1.5791,1.598,1.3859,1.2728,1.2983,1.0332,0.8586,0.7939,0.4561,0.2416,0.1568,0.0522,-0.0131,-0.0392,-0.1176,-0.1764,-1.7645,-1.8719,-1.8753,-1.9182,-1.9213,-1.9213,-1.9213,-1.9192,-1.9328,-1.9716,-2.0727,-2.1652,-2.2007,-2.3066,-2.3582,-2.2875,-2.279,-2.2223,-2.0762,-2.0527,-2.0193,-1.9233,-1.914,-1.9066,-1.8983,-1.8983,-1.8983,-1.8983,-1.7648,-1.714,-1.7898,-1.4614,-1.3044,-1.3853,-1.1899,-1.0853,-1.0777,-1.0702,-1.0702,-1.0702,-0.9582,-0.8977,-0.8887,-0.7567,-0.6963,-0.6855,-0.661,-0.6464,-0.6445,-0.614,-0.5287,-0.4109,-0.3331,-0.2026,-0.0457,0.0327,0.0784,0.1045,0.111,0.111,0.1045,0.1045,0.111,0.1567,0.4044,0.4763,0.5283,0.7765,0.8424,0.8678,0.9701,1.0718,1.1737,1.2839,1.4864,1.6503,1.6628,1.7902,1.8996,1.8996,1.9232,1.9406,1.9344,1.8836,1.8377,1.8377,1.759,1.759,1.9109,1.9121,1.9542,2.0975,2.0928,2.1199,2.2214,1.9517,1.8032,1.88,1.5171,1.3422,1.443,1.1865,0.9747,0.8333,0.58,0.3066,0.0131,-0.0914,-0.2352,-0.3989,-0.4056,-0.4122,-1.7731,-1.8688,-1.8721,-1.9171,-1.9213,-1.9433,-2.0227,-2.0373,-2.0654,-2.1526,-2.2526,-2.3274,-2.3373,-2.3806,-2.3995,-2.3743,-2.3185,-2.2608,-2.2076,-2.2013,-2.1577,-2.048,-2.0373,-2.0081,-1.9287,-2.0592,-2.1526,-2.1526,-2.0497,-1.9475,-1.8521,-1.6752,-1.5351,-1.4391,-1.3636,-1.2894,-1.2144,-1.2144,-1.1693,-1.0853,-1.0482,-1.0256,-1.0256,-0.9712,-0.9442,-0.929,-0.8494,-0.7996,-0.7669,-0.68,-0.6109,-0.5482,-0.5225,-0.4247,-0.2811,-0.183,-0.0849,-0.0131,-0.0784,-0.0588,0.0,0.0,0.0457,0.1241,0.2807,0.3916,0.5023,0.6518,0.7635,0.8489,0.9119,0.9701,1.0468,1.1944,1.3277,1.4484,1.536,1.6827,1.8038,1.8038,1.8785,1.9406,1.9406,1.922,1.9084,1.9084,1.9875,2.0661,2.1273,2.2158,2.2762,2.2656,2.3153,2.3409,2.3197,2.0941,1.964,1.9899,1.6597,1.4728,1.4801,1.2185,1.0011,0.8397,0.593,0.3327,0.0653,-0.0392,-0.183,-0.3531,-0.3531,-0.4377,-1.7499,-1.8422,-1.8699,-1.8982,-1.9552,-2.0235,-2.0838,-2.1308,-2.1816,-2.2611,-2.355,-2.4257,-2.4257,-2.4537,-2.4697,-2.433,-2.3717,-2.3188,-2.2828,-2.2755,-2.2467,-2.1671,-2.1599,-2.1308,-2.0519,-2.1816,-2.2755,-2.2755,-2.1888,-2.0934,-1.9892,-1.8732,-1.7343,-1.5797,-1.5508,-1.4764,-1.3426,-1.3426,-1.2969,-1.213,-1.213,-1.1905,-1.1536,-1.1079,-1.0833,-1.0728,-0.9771,-0.9164,-0.886,-0.7901,-0.7233,-0.6726,-0.6201,-0.529,-0.4122,-0.2876,-0.2155,-0.1827,-0.2024,-0.1699,-0.111,-0.111,-0.0523,0.0327,0.1634,0.2742,0.3978,0.5731,0.6977,0.8024,0.8737,0.9249,0.983,1.0918,1.2136,1.3286,1.4104,1.5811,1.7266,1.7652,1.8587,1.9406,1.9777,1.99,1.9962,1.9962,2.1178,2.22,2.2489,2.3978,2.4828,2.4367,2.4919,2.4995,2.4054,2.2293,2.1233,2.1246,1.7907,1.5917,1.597,1.3142,1.0654,0.8521,0.6445,0.3911,0.098,-0.0327,-0.1699,-0.3137,-0.3856,-0.5091,-1.6808,-1.7955,-1.8634,-1.8715,-2.0194,-2.1561,-2.1097,-2.1877,-2.2755,-2.2803,-2.3749,-2.4562,-2.4562,-2.5502,-2.5871,-2.4705,-2.4562,-2.4133,-2.3044,-2.2828,-2.2828,-2.2828,-2.2828,-2.2828,-2.2828,-2.2828,-2.2828,-2.2828,-2.1744,-2.1454,-2.2106,-2.034,-1.8941,-1.8144,-1.7353,-1.6242,-1.4772,-1.4689,-1.4689,-1.4622,-1.4622,-1.4025,-1.2833,-1.1611,-1.0997,-1.0961,-1.0382,-1.0156,-1.0108,-0.9586,-0.8726,-0.7695,-0.625,-0.5153,-0.4184,-0.2809,-0.3001,-0.3913,-0.2612,-0.2156,-0.2156,-0.2156,-0.1832,-0.1245,0.0392,0.1241,0.2219,0.5277,0.6384,0.7102,0.8537,0.9378,0.9888,0.9952,1.1495,1.3039,1.3039,1.4864,1.6817,1.7891,1.8637,1.9443,2.0468,2.0823,2.1007,2.1007,2.1375,2.1957,2.2943,2.4381,2.5582,2.6187,2.6305,2.5985,2.4995,2.3754,2.3018,2.3001,1.9035,1.7045,1.7885,1.4845,1.1737,0.8827,0.7532,0.4942,0.098,-0.0653,-0.2091,-0.3203,-0.5225,-0.6461,-1.7032,-1.7709,-1.7845,-1.9292,-1.9794,-2.0196,-2.1339,-2.2186,-2.3074,-2.4295,-2.5198,-2.5729,-2.5729,-2.6013,-2.6155,-2.58,-2.5729,-2.5644,-2.536,-2.5289,-2.4933,-2.4133,-2.399,-2.4348,-2.5218,-2.5289,-2.5146,-2.4848,-2.4562,-2.3762,-2.225,-2.1659,-2.0631,-1.8941,-1.8721,-1.8365,-1.7987,-1.7987,-1.7407,-1.6251,-1.6251,-1.5508,-1.4099,-1.3718,-1.3436,-1.3062,-1.1799,-1.1161,-1.1018,-1.0045,-0.9341,-0.885,-0.8268,-0.7556,-0.6644,-0.5536,-0.4692,-0.4041,-0.3653,-0.2938,-0.2091,-0.1833,-0.1638,-0.1376,-0.0458,0.0654,0.1828,0.3199,0.4372,0.5673,0.763,0.8467,0.9108,1.0339,1.1495,1.2648,1.3795,1.5486,1.7233,1.8738,2.006,2.0994,2.1252,2.1375,2.1436,2.1436,2.261,2.3978,2.5168,2.6271,2.6989,2.7216,2.7819,2.757,2.6028,2.5539,2.5066,2.4398,2.1611,1.9763,1.9023,1.6795,1.3697,0.9664,0.8698,0.585,0.098,0.0522,-0.1436,-0.47,-0.5221,-0.6778,-1.5736,-1.6765,-1.7165,-1.8084,-1.8738,-1.9546,-2.0874,-2.1835,-2.2951,-2.4499,-2.5187,-2.5443,-2.5443,-2.5657,-2.5842,-2.5842,-2.6055,-2.6226,-2.6226,-2.6226,-2.6013,-2.5289,-2.4716,-2.4708,-2.5339,-2.5646,-2.5658,-2.5431,-2.5857,-2.5275,-2.3259,-2.3606,-2.2731,-2.0267,-2.0194,-1.9892,-1.9234,-1.9234,-1.8795,-1.7859,-1.7859,-1.6955,-1.5337,-1.5337,-1.479,-1.3806,-1.2698,-1.2505,-1.2836,-1.1434,-1.0424,-0.9759,-0.9307,-0.8462,-0.7551,-0.7227,-0.6575,-0.5666,-0.4496,-0.3522,-0.2677,-0.1833,-0.1376,-0.1048,-0.0721,0.0196,0.1373,0.2288,0.3394,0.4825,0.7176,0.8214,0.8984,1.0525,1.156,1.2464,1.3349,1.5108,1.692,1.8354,1.985,2.1117,2.168,2.1741,2.2032,2.2987,2.4337,2.5759,2.7082,2.7895,2.8432,2.841,2.9255,2.9331,2.8209,2.8094,2.7651,2.6656,2.4513,2.281,2.151,1.9037,1.5794,1.1876,1.0364,0.7527,0.3191,0.2153,-0.013,-0.352,-0.4697,-0.6453,-1.3224,-1.4984,-1.6292,-1.6088,-1.7431,-1.9006,0.0,-2.0937,-2.2076,-2.3469,-2.3809,-2.3879,-2.3939,-2.4504,-2.5023,-2.5088,-2.5614,-2.6027,-2.6027,-2.6027,-2.6027,-2.6027,-2.4976,-2.4356,-2.4424,-2.4976,-2.5321,-2.5392,-2.6507,-2.6466,-2.4977,-2.5886,-2.5234,-2.2455,-2.2166,-2.143,-2.0027,-1.9808,-1.9673,-1.9527,-1.9401,-1.8436,-1.6569,-1.6523,-1.5588,-1.3986,-1.3606,-1.4107,-1.5017,-1.33,-1.1831,-1.061,-0.9817,-0.8785,-0.7825,-0.8403,-0.8527,-0.7944,-0.5212,-0.4041,-0.3455,-0.1964,-0.1048,-0.059,-0.0459,0.0,0.0852,0.2092,0.2938,0.4109,0.6717,0.8084,0.9119,1.0468,1.1695,1.2536,1.2728,1.4557,1.6492,1.7658,1.9221,2.071,2.191,2.2167,2.2866,2.505,2.6129,2.7181,2.8529,2.9253,2.9633,2.9633,3.0445,3.0929,3.0961,3.0886,3.0403,2.9256,2.739,2.5804,2.4541,2.1353,1.8102,1.4761,1.2266,0.9453,0.636,0.4038,0.1565,-0.0911,-0.3518,-0.5212,0.0,0.0,0.0,0.0,0.0,0.0,0.0,-1.8496,-1.9206,-1.9914,-2.0755,-2.1424,-2.1705,-2.2657,-2.3439,-2.3657,-2.4226,-2.4637,-2.4637,-2.4518,-2.4451,-2.4637,-2.4471,-2.4666,-2.5458,-2.6392,-2.7038,-2.7272,-2.8326,-2.8622,-2.77,-2.784,-2.7685,-2.704,-2.5928,-2.5163,-2.4865,-2.3665,-2.2383,-2.1079,-2.0678,-1.9639,-1.8049,-1.7475,-1.6946,-1.6415,-1.6335,-1.6282,-1.6058,-1.4385,-1.2895,-1.1695,-1.0918,-1.0274,-0.99,-1.003,-0.9372,-0.8074,-0.6052,-0.4624,-0.339,-0.1439,-0.0655,-0.0459,0.0197,0.0459,0.0721,0.1507,0.2092,0.2873,0.4763,0.6644,0.8327,0.9759,1.156,1.3286,1.4665,1.6357,1.8156,1.9948,2.1443,2.2578,2.3137,2.3197,2.3844,2.5775,2.6639,2.7628,2.9141,2.9936,3.0314,3.0314,3.0895,3.1505,3.2183,3.1978,3.1386,3.0459,2.9162,2.7616,2.5929,2.3439,2.0369,1.6802,1.3391,1.028,0.7503,0.5846,0.3251,-0.0195,-0.1104,-0.1621,0.0,0.0,0.0,0.0,0.0,0.0,0.0,0.0,0.0,0.0,0.0,-1.8513,-1.8891,0.0,-2.1558,-2.2168,-2.3388,-2.4268,-2.4268,-2.4217,-2.3716,-2.2782,-2.2782,-2.3284,-2.4458,-2.5259,-2.6077,-2.6885,-2.8541,-2.9009,-2.782,-2.8902,-2.9161,-2.8382,-2.7685,-2.6768,-2.5769,-2.5004,-2.367,-2.187,-2.1599,-2.0581,-1.8948,-1.8637,-1.7879,-1.6859,-1.7499,-1.6913,-1.5496,-1.5108,-1.3587,-1.1431,-1.0925,-1.0152,-0.9378,-0.9243,-0.8198,-0.6769,-0.5013,-0.3843,-0.2804,-0.0916,-0.0131,0.0066,0.059,0.0917,0.1179,0.1702,0.2092,0.2744,0.4502,0.5868,0.7361,0.9436,1.1103,1.264,1.4176,1.599,1.7857,1.9665,2.1076,2.2321,2.3498,2.4383,2.5378,2.6965,2.7877,2.8837,3.0237,3.108,3.133,3.0693,3.2306,3.3343,3.3171,3.3771,3.3901,3.3449,3.2218,3.059,2.8574,2.6446,2.3454,1.943,1.6575,1.3888,1.1352,0.874,0.6219,0.3874,0.4776,0.4003,0.0,0.0,0.0,0.0,0.0,0.0,0.0,0.0,0.0,0.0,0.0,0.0,0.0,0.0,0.0,-2.0323,-2.2084,-2.3385,-2.3705,-2.3511,-2.2828,-2.1298,-2.1295,-2.1902,-2.3148,-2.3829,-2.4835,-2.6207,-2.8261,-2.9013,-2.7924,-2.9623,-3.0072,-2.8817,-2.827,-2.7189,-2.5518,-2.491,-2.3863,-2.2138,-2.2034,0.0,-1.9805,-1.9632,-1.871,-1.7255,-1.793,-1.7056,-1.518,-1.537,-1.3841,-1.1232,-1.041,-0.9178,-0.781,-0.7417,-0.67,-0.5663,-0.3648,-0.2867,-0.2476,-0.0458,0.0393,0.0721,0.0983,0.131,0.0,0.2092,0.2417,0.3005,0.457,0.5417,0.6522,0.9108,1.0583,1.1865,1.3239,1.5127,1.7067,1.8812,2.0206,2.1672,2.3664,2.5089,2.6461,2.7851,2.8622,2.9628,3.1061,3.1965,3.2125,3.1262,3.388,3.5245,3.4178,3.513,3.5924,3.6211,3.4722,3.2928,3.0832,2.8921,2.6014,2.1935,1.9616,1.757,1.5598,1.2282,0.9884,0.8562,1.0276,0.9215,0.0,0.0,0.0,0.0,0.0,0.0,0.0,0.0,0.0,0.0,0.0,0.0,0.0,0.0,0.0,0.0,-1.8891,-2.0187,-2.1681,-2.0796,-2.0373,-2.1388,-2.1565,-2.1899,-2.2875,-2.3935,-2.5354,-2.7137,-2.8441,-2.945,-3.0118,-3.0395,0.0,0.0,0.0,-2.6526,-2.6319,-2.3745,-2.2403,-2.2138,-2.1711,-2.1361,-2.1155,-2.034,-1.9839,-1.9529,-1.8179,-1.7409,-1.6972,-1.4656,-1.3324,-1.2488,-0.9682,-0.7486,-0.5922,-0.5659,-0.625,-0.6713,-0.3386,0.0,0.0,-0.0196,0.0917,0.0983,0.1376,0.1508,0.1703,0.2288,0.2746,0.3203,0.3725,0.5023,0.6639,0.8446,1.0184,1.1929,1.3549,1.5316,1.7119,1.9035,2.0438,2.2037,2.4039,2.4747,2.5662,2.7407,2.7558,2.8321,3.0674,3.1461,3.2029,3.2698,3.4671,0.0,3.5693,3.4935,3.5016,3.6425,3.436,3.2505,3.0953,2.8906,2.6461,2.3493,2.0301,1.8402,1.7882,1.6211,1.3902,1.1068,1.1547,1.1224,0.0,0.0,0.0,0.0,0.0,0.0,0.0,0.0,0.0,0.0,0.0,0.0,0.0,0.0,0.0,0.0,-1.6806,-1.7786,-1.7743,-1.7414,-1.7795,-1.9344,-1.969,-2.049,-2.2382,-2.3051,-2.3978,-2.5463,-2.7177,-2.829,-2.8678,-2.9107,-2.941,-2.941,-2.7533,-2.5997,-2.471,-2.343,-2.2122,-2.0912,-2.048,-2.0253,-2.024,-1.9044,-1.8552,-1.8501,-1.6983,-1.5907,-1.5025,-1.3697,-1.2177,-1.0454,0.0,0.0,0.0,0.0,-0.4304,-0.2809,-0.098,-0.0719,-0.085,0.0786,0.131,0.1441,0.1963,0.2093,0.229,0.3007,0.3333,0.3531,0.3923,0.4834,0.6189,0.8252,1.012,1.1929,1.3613,1.5821,1.7817,1.9171,2.0683,0.0,2.5082,2.6328,2.7523,2.8965,2.9761,3.0781,3.2469,3.3283,3.3826,3.4117,3.5976,3.6882,3.6143,3.616,0.0,0.0,0.0,3.5146,3.419,3.2716,0.0,0.0,0.0,2.179,2.0062,1.719,0.0,0.0,1.4308,1.3524,0.0,0.0,0.0,0.0,0.0,0.0,0.0,0.0,0.0,0.0,0.0,0.0,0.0,0.0,0.0,0.0,-1.4235,-1.497,-1.4078,-1.4456,-1.5604,-1.7698,-1.8066,-1.9109,-2.1348,-2.1531,-2.2125,-2.3409,-2.5254,-2.6467,-2.6786,-2.7359,-2.7657,-2.7657,-2.6056,-2.4488,-2.2972,-2.2409,-2.1344,-1.9851,-1.9591,-1.9282,-1.8886,-1.7794,-1.716,-1.6722,-1.5278,-1.3887,-1.2488,-1.1842,-1.0184,-0.788,-0.6579,-0.5738,-0.5218,-0.4049,-0.1961,0.0328,0.0917,0.0852,0.072,0.2028,0.2422,0.2617,0.3525,0.3783,0.3978,0.4635,0.4893,0.5088,0.5417,0.5933,0.6963,0.9342,1.0762,1.2121,1.4249,1.6325,1.8128,1.9468,2.1766,2.4169,2.6369,2.7922,2.9183,3.0187,3.1273,3.2418,3.3601,3.4686,3.5346,3.5534,3.7131,3.7818,3.6848,3.7141,3.7652,3.8208,3.7725,3.7379,3.7192,3.5814,3.3396,2.9774,2.7427,2.4939,0.0,0.0,0.0,0.0,0.0,0.0,0.0,0.0,0.0,0.0,0.0,0.0,0.0,0.0,0.0,0.0,0.0,0.0,0.0,0.0,0.0,0.0,0.0,0.0,-1.1376,-1.2383,-1.419,-1.7167,-1.7534,-1.8055,-1.9406,-1.9529,-2.006,-2.1354,-2.2702,-2.3978,-2.526,-2.5335,-2.5351,-2.5351,-2.2866,-2.1517,-2.1443,-2.0209,-1.9542,-1.9468,-1.9406,-1.8762,-1.7545,-1.7108,-1.6231,-1.4981,-1.326,-1.1715,-1.0286,-0.8634,-0.7089,-0.5529,-0.3451,-0.1698,-0.0197,0.0262,0.0655,0.0983,0.1377,0.0654,0.0,0.3457,0.4567,0.489,0.657,0.7019,0.7149,0.7546,0.7924,0.8242,0.8569,0.8903,0.9805,1.2297,1.2376,1.2703,1.5778,1.6702,1.7596,1.9948,2.4215,2.7612,2.8032,2.8884,2.9683,3.0249,3.0904,0.0,3.2935,3.4512,3.5904,3.6779,3.7825,3.8485,3.8386,3.7262,3.745,3.9449,3.8397,3.8049,3.8785,3.6837,3.4899,3.313,2.9813,2.707,2.4951,0.0,0.0,0.0,0.0,0.0,0.0,0.0,0.0,0.0,0.0,0.0,0.0,0.0,0.0,0.0,0.0,0.0,0.0,0.0,0.0,0.0,0.0,0.0,0.0,-0.9313,-1.0901,-1.3796,-1.436,-1.534,-1.7441,-1.7827,-1.8371,-1.9513,-2.1091,-2.2265,-2.2673,-2.2673,-2.2673,-2.2673,-2.1015,-2.0121,-2.0121,-1.9468,-1.8711,-1.7743,-1.7567,-1.6681,-1.5151,-1.4086,-1.2743,-1.1125,-0.9734,-0.8252,-0.6881,-0.6307,-0.3769,-0.013,0.0845,0.1689,0.247,0.26,0.2988,0.3572,0.4686,0.4815,0.4812,0.6246,0.6704,0.6899,0.7924,0.8247,0.8311,0.8709,0.8903,0.9155,0.9658,1.0734,1.2019,1.3379,1.5132,1.6815,1.7845,1.9886,2.1794,2.2567,2.587,2.877,2.9731,3.0336,3.0997,3.1995,3.2969,3.4026,3.5252,3.6338,3.7303,3.812,3.8513,3.8684,3.8509,3.8096,3.8434,3.9842,3.9376,3.9417,4.0372,3.9585,3.8515,3.7265,3.5341,3.2216,2.7776,0.0,0.0,0.0,0.0,0.0,0.0,0.0,0.0,0.0,0.0,0.0,0.0,0.0,0.0,0.0,0.0,0.0,0.0,0.0,0.0,0.0,0.0,0.0,0.0,0.0,0.0,-1.0262,-1.127,0.0,-1.4414,-1.5578,-1.652,-1.7014,-1.9002,-2.0277,-2.0441,-2.0501,-2.0547,-2.067,-1.9431,-1.8723,-1.8723,-1.8599,-1.7777,-1.6419,-1.6241,-1.4836,-1.2281,-1.1402,-0.9722,-0.7651,-0.6765,-0.5533,-0.3968,-0.2011,0.0843,0.3898,0.4553,0.4975,0.5226,0.548,0.5862,0.6373,0.7612,0.8162,0.8419,0.9114,0.9991,1.0822,1.1705,1.2212,1.2477,1.2083,1.2412,1.292,1.2999,1.4104,1.5355,1.6127,1.7862,1.9529,2.0032,2.2343,2.4722,2.6121,2.8439,3.0351,3.0913,3.1673,3.2535,3.345,3.4669,3.5901,3.6968,3.778,3.8435,3.8933,3.9329,3.9452,3.923,3.9817,4.0494,4.1118,4.1308,4.1496,4.1751,4.1611,4.0836,3.9446,3.776,3.4544,0.0,0.0,0.0,0.0,0.0,0.0,0.0,0.0,0.0,0.0,0.0,0.0,0.0,0.0,0.0,0.0,0.0,0.0,0.0,0.0,0.0,0.0,0.0,0.0,0.0,0.0,0.0,-0.6811,-0.8253,0.0,0.0,0.0,0.0,-1.4022,-1.6355,-1.7927,-1.847,-1.8472,-1.8658,-1.9062,-1.7896,-1.7244,-1.7266,-1.7214,-1.6566,-1.5287,-1.5287,-1.31,-0.9138,-0.9138,-0.7393,-0.4423,-0.4355,-0.3381,-0.1366,0.4139,0.646,0.6632,0.7855,0.8367,0.8478,0.9111,0.9368,0.9528,1.0361,1.0723,1.0977,1.2235,1.4177,1.6256,1.7436,1.8562,0.0,0.0,1.8145,1.9329,1.8389,1.889,1.9799,2.0487,2.0705,2.1057,2.2357,2.4094,2.6436,3.0119,3.1601,3.208,3.154,0.0,3.3747,3.4376,3.5735,3.7022,3.799,3.8834,3.9329,3.928,4.0207,4.0759,4.0471,4.219,4.3267,4.3186,4.4004,4.3977,4.2941,4.2859,4.1792,3.9641,3.7123,0.0,0.0,0.0,0.0,0.0,0.0,0.0,0.0,0.0,0.0,0.0,0.0,0.0,0.0,0.0,0.0,0.0,0.0,0.0,0.0,0.0,0.0,0.0,0.0,0.0,0.0,-0.2018,-0.3279,-0.4433,-0.4968,-0.5961,0.0,0.0,0.0,0.0,0.0,0.0,-1.3191,-1.339,-1.3593,-1.3766,-1.3581,-1.3507,-1.3742,-1.3742,-1.3045,-1.1658,-1.1658,-0.9786,-0.6299,-0.6299,-0.4423,-0.1108,-0.0065,0.117,0.2854,0.772,0.9917,1.0458,1.2436,1.3476,1.4009,1.4858,1.5407,1.5739,1.5868,1.6296,1.6896,1.7418,1.7458,1.7486,1.8767,0.0,0.0,0.0,0.0,2.0792,2.1436,2.1758,2.2317,2.3897,2.4702,2.5367,2.6545,2.7811,2.8977,2.9991,3.1145,3.128,2.9164,2.9419,0.0,3.2684,3.4163,3.5817,3.7968,3.9266,3.9895,3.9699,4.0545,4.0997,4.0759,4.1812,4.2805,4.3536,4.3626,4.3832,4.4314,4.3988,4.2162,3.871,0.0,0.0,0.0,0.0,0.0,0.0,0.0,0.0,0.0,0.0,0.0,0.0,0.0,0.0,0.0,0.0,0.0,0.0,0.0,0.0,0.0,0.0,0.0,0.0,0.0,0.0,0.0,0.1996,0.0761,-0.0175,-0.0852,-0.1645,0.0,0.0,0.0,0.0,0.0,0.0,0.0,0.0,0.0,-1.0158,-0.9825,-0.9758,-0.9867,-0.9798,-0.905,-0.7582,-0.6979,-0.5043,-0.2013,-0.1427,0.0389,0.3186,0.3846,0.5679,0.8507,1.2065,1.3574,1.3819,0.0,0.0,0.0,0.0,1.9205,1.9696,1.9769,2.0505,2.1551,2.1855,0.0,0.0,0.0,0.0,0.0,0.0,0.0,2.3662,2.3694,2.458,2.5711,2.6825,2.7616,2.8342,2.922,2.9872,3.0296,3.0299,3.0569,3.0236,2.8508,2.8657,0.0,0.0,0.0,3.5538,3.7984,3.9521,4.0335,4.0189,4.1287,4.1865,4.1705,4.2896,4.3909,4.4406,4.4274,4.4355,4.4622,4.3287,4.1232,0.0,0.0,0.0,0.0,0.0,0.0,0.0,0.0,0.0,0.0,0.0,0.0,0.0,0.0,0.0,0.0,0.0,0.0,0.0,0.0,0.0,0.0,0.0,0.0,0.0,0.0,0.0,0.0,0.0,0.548,0.4684,0.0,0.0,0.0,0.0,0.0,0.0,0.0,0.0,0.0,0.0,0.0,0.0,0.0,-0.5542,-0.5514,-0.5448,-0.473,-0.3356,-0.2206,-0.0189,0.2475,0.3736,0.5459,0.7456,0.772,0.0,1.4445,1.6431,0.0,0.0,0.0,0.0,0.0,0.0,0.0,0.0,0.0,0.0,0.0,0.0,0.0,0.0,0.0,0.0,0.0,0.0,0.0,0.0,0.0,0.0,2.8883,2.9512,2.9831,3.0179,3.0614,3.0577,3.0415,3.03,2.9703,2.8982,0.0,0.0,0.0,0.0,0.0,0.0,3.8145,3.9841,4.0844,4.0962,4.229,4.3131,4.3005,4.4653,4.5669,4.5585,4.501,4.4491,4.408,4.1778,0.0,0.0,0.0,0.0,0.0,0.0,0.0,0.0,0.0,0.0,0.0,0.0,0.0,0.0,0.0,0.0,0.0,0.0,0.0,0.0,0.0,0.0,0.0,0.0,0.0,0.0,0.0,0.0,0.0,0.0,0.0,0.0,0.0,0.0,0.0,0.0,0.0,0.0,0.0,0.0,0.0,0.0,0.0,0.0,0.0,0.0,0.0,0.0,0.0,0.0,0.0834,0.2059,0.3913,0.4946,0.6642,0.9008,1.2807,1.5741,1.7837,1.8656,0.0,0.0,0.0,0.0,0.0,0.0,0.0,0.0,0.0,0.0,0.0,0.0,0.0,0.0,0.0,0.0,0.0,0.0,0.0,0.0,0.0,0.0,2.8623,3.2262,3.1825,3.0609,3.085,0.0,0.0,0.0,0.0,0.0,0.0,0.0,0.0,0.0,0.0,0.0,3.8842,4.0792,4.2065,4.2768,4.3671,4.423,4.4186,4.5186,4.6145,4.6834,4.3567,4.1871,0.0,0.0,0.0,0.0,0.0,0.0,0.0,0.0,0.0,0.0,0.0,0.0,0.0,0.0,0.0,0.0,0.0,0.0,0.0,0.0,0.0,0.0,0.0,0.0,0.0,0.0,0.0,0.0,0.0,0.0,0.0,0.0,0.0,0.0,0.0,0.0,0.0,0.0,0.0,0.0,0.0,0.0,0.0,0.0,0.0,0.0,0.0,0.0,0.0,0.0,0.0,0.0,0.0,0.0,0.0,0.0,0.0,0.0,1.7372,1.9235,0.0,0.0,0.0,0.0,0.0,0.0,0.0,0.0,0.0,0.0,0.0,0.0,0.0,0.0,0.0,0.0,0.0,0.0,0.0,0.0,0.0,0.0,0.0,0.0,0.0,0.0,0.0,0.0,0.0,0.0,0.0,0.0,0.0,0.0,0.0,0.0,0.0,0.0,0.0,0.0,3.7598,4.0616,4.2501,4.2795,4.3965,4.4668,4.4537,4.578,4.616,4.5179,4.2993,0.0,0.0,0.0,0.0,0.0,0.0,0.0,0.0,0.0,0.0,0.0,0.0,0.0,0.0,0.0,0.0,0.0,0.0,0.0,0.0,0.0,0.0,0.0,0.0,0.0,0.0,0.0,0.0,0.0,0.0,0.0,0.0,0.0,0.0,0.0,0.0,0.0,0.0,0.0,0.0,0.0,0.0,0.0,0.0,0.0,0.0,0.0,0.0,0.0,0.0,0.0,0.0,0.0,0.0,0.0,0.0,0.0,0.0,0.0,2.0396,2.1162,0.0,0.0,0.0,0.0,0.0,0.0,0.0,0.0,0.0,0.0,0.0,0.0,0.0,0.0,0.0,0.0,0.0,0.0,0.0,0.0,0.0,0.0,0.0,0.0,0.0,0.0,0.0,0.0,0.0,0.0,0.0,0.0,0.0,0.0,0.0,0.0,0.0,0.0,0.0,0.0,3.7414,4.1038,4.3339,4.3367,4.4493,4.5214,4.4971,4.6447,4.6259,4.3661,4.2336,0.0,0.0,0.0,0.0,0.0,0.0,0.0,0.0,0.0,0.0,0.0,0.0,0.0,0.0,0.0,0.0,0.0,0.0,0.0,0.0,0.0,0.0,0.0,0.0,0.0,0.0,0.0,0.0,0.0,0.0,0.0,0.0,0.0,0.0,0.0,0.0,0.0,0.0,0.0,0.0,0.0,0.0,0.0,0.0,0.0,0.0,0.0,0.0,0.0,0.0,0.0,0.0,0.0,0.0,0.0,0.0,0.0,0.0,0.0,0.0,0.0,0.0,0.0,0.0,0.0,0.0,0.0,0.0,0.0,0.0,0.0,0.0,0.0,0.0,0.0,0.0,0.0,0.0,0.0,0.0,0.0,0.0,0.0,0.0,0.0,0.0,0.0,0.0,0.0,0.0,0.0,0.0,0.0,0.0,0.0,0.0,0.0,0.0,0.0,0.0,0.0,4.1179,4.3797,4.5569,4.6494,4.6535,4.6494,4.6452,4.726,4.6855,4.4704,0.0,0.0,0.0,0.0,0.0,0.0,0.0,0.0,0.0,0.0,0.0,0.0,0.0,0.0,0.0,0.0,0.0,0.0,0.0,0.0,0.0,0.0,0.0,0.0,0.0,0.0,0.0,0.0,0.0,0.0,0.0,0.0,0.0,0.0,0.0,0.0,0.0,0.0,0.0,0.0,0.0,0.0,0.0,0.0,0.0,0.0,0.0,0.0,0.0,0.0,0.0,0.0,0.0,0.0,0.0,0.0,0.0,0.0,0.0,0.0,0.0,0.0,0.0,0.0,0.0,0.0,0.0,0.0,0.0,0.0,0.0,0.0,0.0,0.0,0.0,0.0,0.0,0.0,0.0,0.0,0.0,0.0,0.0,0.0,0.0,0.0,0.0,0.0,0.0,0.0,0.0,0.0,0.0,0.0,0.0,0.0,0.0,0.0,0.0,0.0,0.0,0.0,4.1114,4.3963,4.5822,4.6061,4.7008,4.753,4.734,4.8491,4.7433,4.3214,0.0,0.0,0.0,0.0,0.0,0.0,0.0,0.0,0.0,0.0,0.0,0.0,0.0,0.0,0.0,0.0,0.0,0.0,0.0,0.0,0.0,0.0,0.0,0.0,0.0,0.0,0.0,0.0,0.0,0.0,0.0,0.0,0.0,0.0,0.0,0.0,0.0,0.0,0.0,0.0,0.0,0.0,0.0,0.0,0.0,0.0,0.0,0.0,0.0,0.0,0.0,0.0,0.0,0.0,0.0,0.0,0.0,0.0,0.0,0.0,0.0,0.0,0.0,0.0,0.0,0.0,0.0,0.0,0.0,0.0,0.0,0.0,0.0,0.0,0.0,0.0,0.0,0.0,0.0,0.0,0.0,0.0,0.0,0.0,0.0,0.0,0.0,0.0,0.0,0.0,0.0,0.0,0.0,0.0,0.0,0.0,0.0,0.0,0.0,0.0,0.0,0.0,4.1899,4.4589,4.6282,4.6347,4.7509,4.8283,4.8338,4.9159,4.7674,4.3058,0.0,0.0,0.0,0.0,0.0,0.0,0.0,0.0,0.0,0.0,0.0,0.0,0.0,0.0,0.0,0.0,0.0,0.0,0.0,0.0,0.0,0.0,0.0,0.0,0.0,0.0,0.0,0.0,0.0,0.0,0.0,0.0,0.0,0.0,0.0,0.0,0.0,0.0,0.0,0.0,0.0,0.0,0.0,0.0,0.0,0.0,0.0,0.0,0.0,0.0,0.0,0.0,0.0,0.0,0.0,0.0,0.0,0.0,0.0,0.0,0.0,0.0,0.0,0.0,0.0,0.0,0.0,0.0,0.0,0.0,0.0,0.0,0.0,0.0,0.0,0.0,0.0,0.0,0.0,0.0,0.0,0.0,0.0,0.0,0.0,0.0,0.0,0.0,0.0,0.0,0.0,0.0,0.0,0.0,0.0,0.0,0.0,0.0,0.0,0.0,0.0,0.0,4.4684,4.6412,4.749,4.8291,4.8368,4.8712,4.95,4.8976,4.7587,0.0,0.0,0.0,0.0,0.0,0.0,0.0,0.0,0.0,0.0,0.0,0.0,0.0,0.0,0.0,0.0,0.0,0.0,0.0,0.0,0.0,0.0,0.0,0.0,0.0,0.0,0.0,0.0,0.0,0.0,0.0,0.0,0.0,0.0,0.0,0.0,0.0,0.0,0.0,0.0,0.0,0.0,0.0,0.0,0.0,0.0,0.0,0.0,0.0,0.0,0.0,0.0,0.0,0.0,0.0,0.0,0.0,0.0,0.0,0.0,0.0,0.0,0.0,0.0,0.0,0.0,0.0,0.0,0.0,0.0,0.0,0.0,0.0,0.0,0.0,0.0,0.0,0.0,0.0,0.0,0.0,0.0,0.0,0.0,0.0,0.0,0.0,0.0,0.0,0.0,0.0,0.0,0.0,0.0,0.0,0.0,0.0,0.0,0.0,0.0,0.0,0.0,0.0,4.5565,4.6916,4.7919,4.9075,4.9682,5.0113,5.0326,5.0662,4.9422,4.6112,0.0,0.0,0.0,0.0,0.0,0.0,0.0,0.0,0.0,0.0,0.0,0.0,0.0,0.0,0.0,0.0,0.0,0.0,0.0,0.0,0.0,0.0,0.0,0.0,0.0,0.0,0.0,0.0,0.0,0.0,0.0,0.0,0.0,0.0,0.0,0.0,0.0,0.0,0.0,0.0,0.0,0.0,0.0,0.0,0.0,0.0,0.0,0.0,0.0,0.0,0.0,0.0,0.0,0.0,0.0,0.0,0.0,0.0,0.0,0.0,0.0,0.0,0.0,0.0,0.0,0.0,0.0,0.0,0.0,0.0,0.0,0.0,0.0,0.0,0.0,0.0,0.0,0.0,0.0,0.0,0.0,0.0,0.0,0.0,0.0,0.0,0.0,0.0,0.0,0.0,0.0,0.0,0.0,0.0,0.0,0.0,0.0,0.0,0.0,0.0,0.0,0.0,0.0,4.7632,4.8775,4.9911,5.0431,5.0845,5.1153,5.1097,5.0021,4.7517,0.0,0.0,0.0,0.0,0.0,0.0,0.0,0.0,0.0,0.0,0.0,0.0,0.0,0.0,0.0,0.0,0.0,0.0,0.0,0.0,0.0,0.0,0.0,0.0,0.0,0.0,0.0,0.0,0.0,0.0,0.0,0.0,0.0,0.0,0.0,0.0,0.0,0.0,0.0,0.0,0.0,0.0,0.0,0.0,0.0,0.0,0.0,0.0,0.0,0.0,0.0,0.0,0.0,0.0,0.0,0.0,0.0,0.0,0.0,0.0,0.0,0.0,0.0,0.0,0.0,0.0,0.0,0.0,0.0,0.0,0.0,0.0,0.0,0.0,0.0,0.0,0.0,0.0,0.0,0.0,0.0,0.0,0.0,0.0,0.0,0.0,0.0,0.0,0.0,0.0,0.0,0.0,0.0,0.0,0.0,0.0,0.0,0.0,0.0,0.0,0.0,0.0,0.0,4.8405,4.9911,5.071,5.0811,5.1119,5.1851,5.0667,4.9709,4.9225,4.3511,0.0,0.0,0.0,0.0,0.0,0.0,0.0,0.0,0.0,0.0,0.0,0.0,0.0,0.0,0.0,0.0,0.0,0.0,0.0,0.0,0.0,0.0,0.0,0.0,0.0,0.0,0.0,0.0,0.0,0.0,0.0,0.0,0.0,0.0,0.0,0.0,0.0,0.0,0.0,0.0,0.0,0.0,0.0,0.0,0.0,0.0,0.0,0.0,0.0,0.0,0.0,0.0,0.0,0.0,0.0,0.0,0.0,0.0,0.0,0.0,0.0,0.0,0.0,0.0,0.0,0.0,0.0,0.0,0.0,0.0,0.0,0.0,0.0,0.0,0.0,0.0,0.0,0.0,0.0,0.0,0.0,0.0,0.0,0.0,0.0,0.0,0.0,0.0,0.0,0.0,0.0,0.0,0.0,0.0,0.0,0.0,0.0,0.0,0.0,0.0,0.0,0.0,4.8904,5.0312,5.1489,5.162,5.1719,5.1883,5.1587,5.0738,4.9293,4.4446,0.0,0.0,0.0,0.0,0.0,0.0,0.0,0.0,0.0,0.0,0.0,0.0,0.0,0.0,0.0,0.0,0.0,0.0,0.0,0.0,0.0,0.0,0.0,0.0,0.0,0.0,0.0,0.0,0.0,0.0,0.0,0.0,0.0,0.0,0.0,0.0,0.0,0.0,0.0,0.0,0.0,0.0,0.0,0.0,0.0,0.0,0.0,0.0,0.0,0.0,0.0,0.0,0.0,0.0,0.0,0.0,0.0,0.0,0.0,0.0,0.0,0.0,0.0,0.0,0.0,0.0,0.0,0.0,0.0,0.0,0.0,0.0,0.0,0.0,0.0,0.0,0.0,0.0,0.0,0.0,0.0,0.0,0.0,0.0,0.0,0.0,0.0,0.0,0.0,0.0,0.0,0.0,0.0,0.0,0.0,0.0,0.0,0.0,0.0,0.0,0.0,0.0,4.7791,5.0038,5.1718,5.1883,5.1883,5.1883,5.1883,5.1103,4.9293,4.5504,0.0,0.0,0.0,0.0,0.0,0.0,0.0,0.0,0.0,0.0,0.0,0.0,0.0,0.0,0.0,0.0,0.0,0.0,0.0,0.0,0.0,0.0,0.0,0.0,0.0,0.0,0.0,0.0,0.0,0.0,0.0,0.0,0.0,0.0,0.0,0.0,0.0,0.0,0.0,0.0,0.0,0.0,0.0,0.0,0.0,0.0,0.0,0.0,0.0,0.0,0.0,0.0,0.0,0.0,0.0,0.0,0.0,0.0,0.0,0.0,0.0,0.0,0.0,0.0,0.0,0.0,0.0,0.0,0.0,0.0,0.0,0.0,0.0,0.0,0.0,0.0,0.0,0.0,0.0,0.0,0.0,0.0,0.0,0.0,0.0,0.0,0.0,0.0,0.0,0.0,0.0,0.0,0.0,0.0,0.0,0.0,0.0,0.0,0.0,0.0,0.0,0.0,0.0,4.9564,5.1547,5.1882,5.1982,5.1982,5.1982,5.1167,4.9354,0.0,0.0,0.0,0.0,0.0,0.0,0.0,0.0,0.0,0.0,0.0,0.0,0.0,0.0,0.0,0.0,0.0,0.0,0.0,0.0,0.0,0.0,0.0,0.0,0.0,0.0,0.0,0.0,0.0,0.0,0.0,0.0,0.0,0.0,0.0,0.0,0.0,0.0,0.0,0.0,0.0,0.0,0.0,0.0,0.0,0.0,0.0,0.0,0.0,0.0,0.0,0.0,0.0,0.0,0.0,0.0,0.0,0.0,0.0,0.0,0.0,0.0,0.0,0.0,0.0,0.0,0.0,0.0,0.0,0.0,0.0,0.0,0.0,0.0,0.0,0.0,0.0,0.0,0.0,0.0,0.0,0.0,0.0,0.0,0.0,0.0,0.0,0.0,0.0,0.0,0.0,0.0,0.0,0.0,0.0,0.0,0.0,0.0,0.0,0.0,0.0,0.0,0.0,0.0,4.9496,5.0927,5.1854,5.2338,5.2242,5.221,5.1385,4.9486,0.0,0.0,0.0,0.0,0.0,0.0,0.0,0.0,0.0,0.0,0.0,0.0,0.0,0.0]}],[{"header":{"parameterUnit":"kt","parameterCategory":2,"dx":1,"dy":1,"la1":29.285339999999998,"la2":30.599998999999997,"lo1":-89.70041500000002,"lo2":-87.6738589999976,"nx":112,"ny":82,"refTime":"2022-09-21T06:00:00:Z","depth":0,"parameterNumber":2,"parameterNumberName":"V-component_of_WINDS"},"data":[8.1477,8.2378,8.1984,7.5544,7.3865,7.1827,6.4347,6.2141,6.1529,6.0989,6.1051,6.2116,6.5204,6.242,5.9836,6.0339,5.749,5.4875,0.0,5.4171,5.5177,5.7121,6.0582,6.3715,6.6042,6.52,0.0,0.0,7.312,7.5467,8.3551,8.4859,8.6218,8.8178,8.8245,8.8245,8.8245,8.8193,8.8142,8.8142,8.785,8.7641,8.7483,8.7304,8.7091,8.6854,8.6854,8.6495,8.5932,8.5932,8.5932,8.5877,8.5452,8.5508,8.5759,8.436,8.3829,8.3829,8.3829,8.3017,8.1964,8.1964,8.0535,7.8995,7.9714,7.8844,7.7952,7.9567,7.8844,7.7765,7.863,7.8783,7.8722,7.8752,7.8355,7.8262,7.8995,7.8231,7.7326,7.7326,7.7735,7.764,7.6424,7.6587,7.6727,7.6338,7.5862,7.5884,7.6784,7.6488,7.6194,7.6194,7.6194,7.6194,7.6194,7.6194,7.6194,7.6194,7.6194,7.6194,7.6194,7.6194,7.6194,7.6194,7.6194,7.5955,7.5541,7.5541,7.5302,7.4853,7.4627,7.3449,7.7447,7.8576,7.8457,7.1441,7.0101,6.8803,6.2173,5.9726,5.885,5.885,5.9841,6.1023,6.1968,6.0989,5.9674,5.8662,5.7211,5.5558,0.0,5.5363,5.7218,5.8159,6.274,6.6544,6.8323,6.8021,0.0,0.0,7.4653,0.0,8.4289,8.5597,8.6754,8.8211,8.8245,8.8245,8.8245,8.8245,8.8245,8.8245,8.8057,8.7902,8.7693,8.7569,8.7357,8.7091,8.7091,8.7016,8.6854,8.6854,8.6746,8.6658,8.6078,8.588,8.5638,8.3327,8.2507,8.2507,8.2507,8.1905,8.1185,8.1078,7.9699,7.8271,7.9418,7.8388,7.7178,7.9192,7.8329,7.6937,7.7802,7.7684,7.7267,7.7296,7.6998,7.6877,7.7625,7.6846,7.5989,7.5989,7.639,7.6267,7.5014,7.4105,7.3844,7.4702,7.448,7.4534,7.5366,7.5078,7.4853,7.4853,7.4853,7.4853,7.4853,7.4853,7.4853,7.4853,7.4853,7.4853,7.4853,7.4853,7.4853,7.4853,7.4853,7.4644,7.4195,7.4195,7.3986,7.3537,7.3537,7.2456,7.4571,7.3009,7.1933,6.6991,6.4821,6.3344,6.121,6.0669,6.0601,6.0635,6.1695,6.2583,6.2617,6.1493,5.965,5.6713,5.7464,0.0,0.0,5.7627,6.0348,6.0618,6.5399,6.9906,0.0,6.9229,7.0269,0.0,7.415,7.529,8.5496,8.61,8.6754,8.8211,8.8211,8.8211,8.8245,8.8245,8.8245,8.8245,8.8211,8.8178,8.8178,8.8111,8.7975,8.7683,8.7683,8.7403,8.6958,8.6958,8.683,8.6428,8.4894,8.4302,8.4125,8.3243,8.2881,8.2881,8.2881,8.2713,8.2459,8.2118,8.1268,8.0571,8.1722,8.1215,8.0539,8.1722,8.1162,8.0266,8.0266,7.9459,7.8634,7.8634,7.7646,7.6754,7.6754,7.5774,7.4861,7.4797,7.5774,7.6206,7.4958,7.2609,7.1806,7.4304,7.3619,7.3734,7.6297,7.5493,7.4733,7.4733,7.4733,7.4733,7.4733,7.4733,7.4733,7.4733,7.4733,7.4733,7.4733,7.4733,7.4733,7.4733,7.4733,7.4105,7.2819,7.2819,7.219,7.0934,7.0934,7.0934,7.0164,7.1344,7.2211,6.8574,6.9092,6.9196,6.4186,6.1137,5.968,6.0844,5.9426,0.0,0.0,0.0,5.8692,5.7839,0.0,6.0343,5.76,6.1465,6.6647,7.2123,7.37,0.0,0.0,7.6425,7.6563,8.231,7.9224,7.9258,8.4289,8.5563,8.6754,8.8211,8.7257,8.7223,8.8245,8.8245,8.8245,8.8245,8.719,8.6586,8.6401,8.5248,8.4563,8.4344,8.4344,8.4242,8.414,8.414,8.4089,8.3953,8.3556,8.2728,8.1669,8.0375,7.9859,7.9859,7.9859,7.9892,7.9617,7.8708,7.7586,7.6869,7.8033,7.7462,7.6611,7.7807,7.7146,7.6123,7.6123,7.6504,7.6912,7.6912,7.6643,7.6341,7.6341,7.5404,7.43,7.3486,7.3604,7.3427,7.2226,7.1413,7.1175,7.1927,7.1685,7.1775,7.2469,7.2226,7.2011,7.2011,7.2011,7.2011,7.2011,7.2011,7.2011,7.2011,7.2011,7.2011,7.2011,7.2011,7.2011,7.2011,7.2011,7.1831,7.1472,7.1472,7.1293,7.0934,7.0934,7.0934,6.8049,6.9748,7.1378,6.8291,6.9852,7.0511,6.4369,6.1962,6.0907,6.0492,0.0,0.0,0.0,0.0,0.0,0.0,6.2227,6.4217,6.2044,6.7018,7.2239,7.5969,0.0,0.0,8.1588,7.917,7.9272,8.3618,8.0599,8.013,8.3786,8.4758,8.5597,8.6419,8.5664,8.563,8.6452,8.6452,8.6452,8.6452,8.563,8.5129,8.4947,8.4044,8.3544,8.3396,8.3396,8.3297,8.3164,8.3164,8.3114,8.2914,8.1931,8.098,8.0195,7.9361,7.9075,7.9075,7.9075,7.8981,7.8792,7.8102,7.6609,7.5293,7.6641,7.5937,7.5004,7.6692,7.6197,7.5196,7.5196,7.5303,7.5463,7.5463,7.5463,7.5463,7.5463,7.4928,7.4108,7.2932,7.2733,7.2327,7.1145,7.0934,7.0934,7.0934,7.0934,7.0934,7.0934,7.0934,7.0934,7.0934,7.0934,7.0934,7.0934,7.0934,7.0934,7.0934,7.0934,7.0934,7.0934,7.0934,7.0934,7.0934,7.0934,7.0934,7.0934,7.0934,7.0934,7.0934,7.0934,7.0934,6.7698,6.8498,6.9887,6.7424,6.8673,6.9054,6.3609,0.0,6.3328,6.1043,0.0,6.0626,6.2326,0.0,0.0,6.0835,6.5799,6.9126,6.753,7.3758,7.7921,7.6369,8.0585,8.3027,8.1582,7.9864,8.0228,8.3561,8.0176,7.9706,8.3484,8.3685,8.3786,8.3953,8.3786,8.3786,8.3953,8.3953,8.3953,8.3953,8.3786,8.3685,8.3685,8.3551,8.345,8.345,8.345,8.3271,8.2961,8.2961,8.2813,8.2382,8.0345,7.9526,7.9526,7.9526,7.9446,7.9387,7.9446,7.9248,7.8887,7.9014,7.7248,7.5356,7.6706,7.6001,7.5143,7.7213,7.6978,7.621,7.621,7.541,7.4625,7.4602,7.4548,7.4493,7.4328,7.4274,7.3886,7.2702,7.2501,7.2269,7.1474,7.1355,7.1355,7.1355,7.1355,7.1355,7.1355,7.1355,7.1355,7.1355,7.1205,7.1205,7.1325,7.1205,7.1205,7.1325,7.1205,7.1145,7.1145,7.1055,7.0934,7.0934,7.0934,7.0934,7.0934,7.0934,7.0934,7.0934,7.0934,7.0934,6.884,6.8761,6.9054,6.9713,6.9367,6.8536,0.0,0.0,0.0,6.791,6.6627,6.576,6.85,6.8742,6.895,7.0233,7.4279,7.6377,7.3977,8.1219,8.6166,8.4607,8.5355,8.5764,8.5177,8.4772,8.4032,8.2832,8.2975,8.2822,8.2109,8.2109,8.2679,8.392,8.2746,8.2712,8.3953,8.3953,8.3953,8.3953,8.2712,8.2109,8.2075,8.0901,8.0364,8.0364,8.0364,8.0318,8.0271,8.0271,8.0191,8.0158,7.9681,7.9526,7.9526,7.9526,7.9075,7.8649,7.9295,7.8583,7.7497,7.8232,7.7612,7.6609,7.6895,7.659,7.6261,7.6757,7.652,7.621,7.621,7.6021,7.5759,7.5345,7.5238,7.4828,7.3387,7.3046,7.2702,7.1504,7.1265,7.183,7.3494,7.3775,7.3775,7.3775,7.3775,7.3775,7.3775,7.3775,7.3775,7.3775,7.2932,7.276,7.3719,7.2932,7.276,7.3719,7.2874,7.2385,7.2385,7.1444,7.0934,7.0934,7.0934,7.0934,7.0934,7.0934,7.0934,7.0934,7.0934,7.0934,6.8168,6.8297,6.8761,6.8566,6.8465,0.0,0.0,6.5028,6.482,6.7875,6.6696,6.6523,7.1066,7.1899,7.2662,7.4951,7.9023,8.1474,8.0184,8.3893,8.6535,8.5695,8.5626,8.5543,8.5366,8.5118,8.4085,8.2066,8.2157,8.1803,8.0633,8.0599,8.0935,8.1706,8.1002,8.0968,8.174,8.174,8.174,8.174,8.0968,8.0599,8.0566,7.9828,7.9526,7.9526,7.9526,7.9526,7.9526,7.9526,7.9526,7.9526,7.9526,7.9526,7.9526,7.9526,7.9261,7.9014,7.9387,7.8947,7.8311,7.8792,7.8329,7.7612,7.7265,7.7198,7.7313,7.7612,7.7463,7.7263,7.7263,7.7162,7.7011,7.6757,7.6655,7.6417,7.5516,7.5303,7.4981,7.3775,7.3129,7.3041,7.4274,7.4461,7.4461,7.4461,7.4461,7.4461,7.4461,7.4461,7.4461,7.4461,7.3942,7.383,7.4407,7.3886,7.383,7.4407,7.3886,7.3582,7.3582,7.3015,7.2671,7.2671,7.2671,7.2413,7.183,7.2413,7.2671,7.2702,7.2093,7.183,6.7299,6.7862,6.8538,6.7288,6.7518,0.0,6.5754,6.5303,6.5896,6.8049,6.7702,6.8672,7.3911,7.4883,7.5748,7.8523,8.209,8.4551,8.4551,8.4551,8.4413,8.4142,8.4107,8.4107,8.4107,8.3708,8.2947,8.1665,8.0847,8.0148,7.963,7.9538,7.9526,7.9526,7.9526,7.9526,7.9526,7.9526,7.9526,7.9526,7.9526,7.9526,7.9526,7.9526,7.9526,7.9526,7.9526,7.9526,7.9526,7.9526,7.9526,7.9526,7.9526,7.9526,7.9526,7.9526,7.94,7.9261,7.9446,7.9308,7.9041,7.9215,7.8745,7.7989,7.7414,7.7497,7.7842,7.8247,7.8232,7.8071,7.8071,7.7891,7.7743,7.7644,7.7562,7.7495,7.7363,7.7313,7.713,7.6775,7.5937,7.5271,7.5271,7.5271,7.5271,7.5218,7.5218,7.5164,7.5111,7.5111,7.5111,7.5111,7.4928,7.4842,7.5111,7.4896,7.4928,7.5111,7.4928,7.4819,7.4819,7.4571,7.4297,7.4108,7.4297,7.3997,7.3046,7.3997,7.4187,7.3775,7.2817,7.2327,6.7869,6.8115,6.7909,6.9088,6.8016,0.0,6.9774,7.0161,7.1205,7.5434,7.7274,7.8731,8.0851,8.1233,8.1749,8.3517,8.4246,8.4551,8.4551,8.4551,8.4038,8.265,8.2477,8.2477,8.2477,8.2402,8.2333,8.216,8.1638,8.0932,8.0059,7.9721,7.9526,7.9526,7.9526,7.9526,7.9526,7.9526,7.9526,7.9526,7.9526,7.9526,7.9526,7.9526,7.9526,7.9526,7.9526,7.9526,7.9526,7.9526,7.9526,7.9526,7.9526,7.9526,7.9526,7.9526,7.9075,7.8587,7.9295,7.8535,7.7397,7.8183,7.7858,7.7097,7.7014,7.7047,7.7097,7.7147,7.7147,7.7147,7.7147,7.7097,7.6946,7.652,7.621,7.5864,7.5303,7.5004,7.5537,7.8005,7.8344,7.8247,7.8247,7.8247,7.8183,7.794,7.7891,7.7793,7.7595,7.7562,7.7562,7.7562,7.6622,7.6417,7.7463,7.6622,7.6468,7.7512,7.6571,7.6021,7.6021,7.4981,7.3942,7.2932,7.3886,7.4383,7.4274,7.4383,7.3382,7.1325,7.1205,7.1175,6.5654,6.6414,6.7011,6.7065,0.0,0.0,6.9797,7.0729,7.2484,7.7091,7.8298,7.9564,8.2963,8.3587,8.4072,8.5557,8.435,8.3205,8.3205,8.3205,8.2963,8.2309,8.2239,8.2239,8.2239,8.2239,8.2239,8.2239,8.1761,8.1271,8.089,8.0491,8.0171,7.9869,7.9869,7.9733,7.9526,7.9526,7.9526,7.9526,7.9526,7.9526,7.9526,7.9526,7.9526,7.9526,7.9526,7.9526,7.9526,7.9526,7.9526,7.9526,7.9526,7.9526,7.9526,7.9526,7.9261,7.9075,7.9387,7.9041,7.8535,7.8887,7.8759,7.844,7.844,7.844,7.844,7.844,7.844,7.844,7.8247,7.8102,7.7956,7.7678,7.7579,7.743,7.7147,7.7014,7.7248,7.8313,7.8362,7.828,7.8458,7.8506,7.8506,7.8554,7.8554,7.8506,7.8377,7.8377,7.8377,7.8377,7.7956,7.7809,7.8119,7.7743,7.7595,7.7891,7.7463,7.7213,7.7213,7.6743,7.6281,7.578,7.6229,7.6487,7.6487,7.6487,7.5622,7.4029,7.3269,7.2644,6.4175,0.0,0.0,0.0,0.0,0.0,7.216,7.321,7.486,7.8602,7.9196,8.0107,8.3516,8.4021,8.4246,8.5321,8.3621,8.2239,8.2239,8.2239,8.2239,8.2239,8.2239,8.2239,8.2239,8.2239,8.2239,0.0,8.1883,8.1597,8.1438,8.1179,8.0795,8.0325,8.0281,8.0093,7.9676,7.9676,7.963,7.9526,7.9526,7.9526,7.9526,7.9526,7.9526,7.9526,7.9526,7.9526,7.9526,7.9526,7.9526,7.9526,7.9526,7.9526,7.9526,7.9526,7.9526,7.9526,7.9526,7.9526,7.9526,7.9526,7.9526,7.9526,7.9526,7.9526,7.9526,7.9526,7.9526,7.948,7.9295,7.9075,7.8934,7.8934,7.8887,7.8839,7.8839,7.8887,7.8887,7.8697,7.8506,7.8458,7.8602,7.8683,7.873,7.8792,7.8839,7.8792,7.8711,7.8745,7.8697,7.8649,7.8602,7.8506,7.8265,7.8216,7.8119,7.7973,7.794,7.794,7.794,7.794,7.7793,7.7463,7.7793,7.7793,7.7463,7.713,7.6571,7.5706,7.4163,7.3015,0.0,0.0,0.0,7.2848,7.3653,7.4509,7.9107,7.9805,7.9938,8.1555,8.2411,8.2881,8.3022,8.2633,8.2309,8.2343,8.2309,8.2239,8.2239,8.2239,8.2239,8.2239,8.2239,8.2239,8.2239,8.2239,8.2239,8.2239,8.2199,8.1964,8.1479,8.1438,8.1263,8.0872,8.0829,8.0578,8.0059,8.0059,7.9835,7.9526,7.9526,7.9526,7.9526,7.9526,7.9526,7.9526,7.9526,7.9526,7.9526,7.9526,7.9526,7.9526,7.9526,7.9526,7.9526,7.9526,7.9526,7.9526,7.9526,7.9526,7.9526,7.9526,7.9526,7.9526,7.9526,7.9526,7.9526,7.9526,7.9526,7.9526,7.9526,7.948,7.948,7.948,7.9295,7.9108,7.9108,7.9295,7.948,7.9446,7.948,7.948,7.9446,7.9446,7.9387,7.9155,7.9108,7.9014,7.8792,7.8745,7.8649,7.8395,7.8346,7.8216,7.8022,7.7973,7.794,7.794,7.794,7.794,7.794,7.794,7.7413,7.6261,7.7363,7.7363,7.6261,7.5089,7.4516,7.4461,7.2152,7.1055,6.4908,6.813,7.1426,7.3761,7.6006,7.7952,7.9158,8.0778,8.2171,8.2682,8.3396,8.379,8.3468,8.3505,8.3505,8.3175,8.2911,8.2602,8.2279,8.2239,8.2239,8.2239,8.2239,8.2239,8.2239,8.2239,8.2239,8.2239,8.2239,8.216,8.1964,8.1999,8.1883,8.1795,8.1431,8.089,8.007,8.0104,7.9914,7.9526,7.9526,7.9526,7.9526,7.9526,7.9526,7.9526,7.9526,7.9526,7.9526,7.9526,7.9526,7.9526,7.9526,7.9526,7.9526,7.9526,7.9526,7.9526,7.9526,7.9526,7.9526,7.9526,7.9526,7.9526,7.9526,7.9526,7.9526,7.9526,7.9526,7.9526,7.9526,7.9526,7.9526,7.9526,7.9434,7.9387,7.9387,7.9295,7.9248,7.9248,7.9075,7.9028,7.9202,7.9248,7.9295,7.9387,7.9387,7.9341,7.9261,7.9261,7.9215,7.9121,7.9075,7.8981,7.8745,7.8554,7.841,7.8216,7.8071,7.794,7.794,7.794,7.7743,7.7363,7.7743,7.7743,7.7363,7.6978,7.6384,7.5601,7.4819,7.4438,6.6308,6.9513,7.2732,7.6373,7.9478,8.163,8.1852,8.3276,8.4507,8.4507,8.4666,8.4665,8.4336,8.4534,8.4537,8.379,8.3468,8.3062,8.2472,8.2354,8.2314,8.2239,8.2239,8.2239,8.2239,8.2239,8.2239,8.2239,8.2239,8.2239,8.2239,8.2239,8.2239,8.2239,8.1883,8.1438,8.0847,8.0675,8.0281,7.9721,7.9721,7.963,7.9526,7.9526,7.9526,7.9526,7.9526,7.9526,7.9526,7.9526,7.9526,7.9526,7.9526,7.9526,7.9526,7.9526,7.9526,7.9526,7.9526,7.9526,7.9526,7.9526,7.9526,7.9526,7.9526,7.9526,7.9526,7.9526,7.9526,7.9526,7.9526,7.9526,7.9526,7.9526,7.9526,7.9526,7.9526,7.9387,7.9248,7.9248,7.9121,7.9075,7.9248,7.9248,7.9295,7.948,7.9526,7.9526,7.9526,7.9526,7.948,7.9387,7.9387,7.9215,7.9014,7.8745,7.8506,7.8346,7.8168,7.8071,7.794,7.8071,7.8071,7.794,7.794,7.794,7.794,7.7512,7.696,7.621,7.5759,7.5601,6.885,7.0785,7.2865,8.0638,8.3843,8.5464,8.6937,8.7076,8.6913,8.6913,8.6202,8.5619,8.5619,8.5619,8.5195,8.4101,8.386,8.354,8.278,8.2659,8.2542,8.2314,8.2239,8.2239,8.2239,8.2239,8.2239,8.2239,8.2239,8.2239,8.2239,8.2239,8.2239,8.2239,8.2239,8.2239,8.2239,8.172,8.1018,8.0148,8.0148,7.9959,7.9572,7.9538,7.9538,7.9572,7.9538,7.9572,7.9492,7.9492,7.9526,7.9526,7.9526,7.9526,7.9526,7.9526,7.9526,7.9526,7.9526,7.9526,7.9526,7.9526,7.9526,7.9526,7.9526,7.9526,7.9526,7.9526,7.9526,7.9526,7.9526,7.9526,7.9526,7.9526,7.9526,7.9526,7.9526,7.9526,7.9526,7.9526,7.9526,7.9526,7.9526,7.9526,7.9526,7.9526,7.9526,7.9526,7.9526,7.9526,7.9434,7.9155,7.9108,7.9061,7.8792,7.8506,7.8395,7.8395,7.8362,7.8216,7.8022,7.8216,7.8216,7.794,7.8022,7.7989,7.8022,7.6826,7.6313,7.6313,7.5143,7.4625,7.2222,7.6623,8.0159,8.3475,8.5501,8.679,8.7195,8.7221,8.7173,8.7173,8.6839,8.6596,8.6803,8.6674,8.632,8.5626,8.4889,8.4169,8.3576,8.3057,8.2706,8.2507,8.2542,8.2428,8.2239,8.2239,8.2239,8.2239,8.2239,8.2239,8.2239,8.2239,8.2239,8.2239,8.2239,8.2239,8.2239,8.172,8.1145,8.0665,8.0665,8.0578,8.0525,8.0138,8.0138,8.0481,8.0093,7.9925,7.988,7.963,7.9526,7.9526,7.9526,7.9526,7.9526,7.9526,7.9526,7.9526,7.9526,7.9526,7.9526,7.9526,7.9526,7.9526,7.9526,7.9526,7.9526,7.9526,7.9526,7.9526,7.9526,7.9526,7.9526,7.9526,7.9526,7.9526,7.9526,7.9526,7.9526,7.9526,7.9526,7.9526,7.9526,7.9526,7.9526,7.9526,7.9526,7.9526,7.9526,7.9526,7.948,7.94,7.9434,7.9387,7.9308,7.9061,7.892,7.892,7.8745,7.8568,7.8554,7.841,7.8265,7.8216,7.8458,7.8554,7.8554,7.8038,7.7793,7.7793,7.7313,7.7029,7.2111,7.7139,8.2126,8.5206,8.6643,8.7269,8.7269,8.7269,8.7269,8.7269,8.7149,8.71,8.7282,8.7149,8.6865,8.6283,8.5706,8.5014,8.4068,8.3648,8.3244,8.2745,8.2668,8.2629,8.2516,8.2433,8.2428,8.2428,8.2279,8.2239,8.2239,8.2239,8.2239,8.2239,8.2239,8.2239,8.2239,8.1924,8.1679,8.1465,8.1221,8.1044,8.0872,8.0578,8.0578,8.0829,8.0315,7.997,7.9824,7.9584,7.9526,7.9526,7.9526,7.9526,7.9526,7.9526,7.9526,7.9526,7.9526,7.9526,7.9526,7.9526,7.9526,7.9526,7.9526,7.9526,7.9526,7.9526,7.9526,7.9526,7.9526,7.9526,7.9526,7.9526,7.9526,7.9526,7.9526,7.9526,7.9526,7.9526,7.9526,7.9526,7.9526,7.9526,7.9526,7.9526,7.9526,7.9526,7.9526,7.9526,7.9526,7.9526,7.9526,7.9526,7.9526,7.9248,7.9108,7.9108,7.8967,7.8839,7.8745,7.8697,7.8635,7.8506,7.8649,7.8697,7.8554,7.8443,7.8298,7.8168,7.8022,7.794,7.1671,7.6128,8.1817,8.6201,8.7269,8.7269,8.7269,8.7269,8.7269,8.7269,8.7269,8.7269,8.7269,8.7269,8.7088,8.6523,8.6364,8.5858,8.451,8.4241,8.3861,8.2978,8.2864,8.2864,8.2826,8.2702,8.2659,8.2659,8.2393,8.2314,8.2314,8.2239,8.2239,8.2239,8.2239,8.2239,8.2239,8.2239,8.2239,8.2199,8.1761,8.1389,8.1044,8.1044,8.1044,8.1044,8.0501,8.0059,7.9767,7.9676,7.963,7.9584,7.9584,7.9538,7.9526,7.9526,7.9526,7.9526,7.9526,7.9526,7.9526,7.9526,7.9526,7.9526,7.9526,7.9526,7.9526,7.9526,7.9526,7.9526,7.9526,7.9526,7.9526,7.9526,7.919,7.8922,7.8922,7.8922,7.8922,7.8922,7.8922,7.8922,7.8922,7.8922,7.8922,7.8922,7.8922,7.8922,7.8922,7.8922,7.8922,7.8922,7.8922,7.8922,7.8922,7.8693,7.8654,7.8854,7.8854,7.8828,7.8806,7.9014,7.8814,7.8241,7.8241,7.8099,7.7895,7.7847,7.7752,7.7526,7.7429,7.7528,7.8206,8.1257,8.4617,8.6753,8.7269,8.7269,8.7269,8.7269,8.7269,8.7269,8.7269,8.7269,8.7269,8.7269,8.7245,8.7112,8.6664,8.6027,8.5236,8.4704,8.4035,8.3204,8.3127,8.3051,8.2826,8.2787,8.2749,8.2749,8.2624,8.2542,8.2542,8.2354,8.2239,8.2239,8.2239,8.2239,8.2239,8.2239,8.2239,8.2239,8.216,8.2079,8.1999,8.1999,8.1999,8.1958,8.1472,8.1187,8.106,8.0752,8.0359,7.997,7.997,7.9778,7.9526,7.9526,7.9526,7.9526,7.9526,7.9526,7.9526,7.9526,7.9526,7.9526,7.9526,7.9526,7.9526,7.9526,7.9526,7.9526,7.9526,7.9526,7.9526,7.9526,7.7614,7.5792,7.5792,7.5792,7.5792,7.5792,7.5792,7.5792,7.5792,7.5792,7.5792,7.5792,7.5792,7.5792,7.5792,7.5792,7.5792,7.5792,7.5792,7.5792,7.5792,7.5792,7.6251,7.7424,7.7524,7.8048,7.9321,7.9202,7.8032,7.5738,7.5704,7.566,7.5582,7.5393,7.5258,7.5213,7.4783,7.5293,7.8623,8.137,8.4207,8.58,8.6726,8.7269,8.7269,8.7269,8.6814,8.5164,8.6174,8.7011,8.6201,8.6753,8.7269,8.7269,8.7039,8.6586,8.5943,8.5561,8.4983,8.3931,8.379,8.3647,8.3169,8.3054,8.2978,8.2978,8.2822,8.2706,8.2706,8.2546,8.2393,8.2393,8.2314,8.2239,8.2239,8.2239,8.2239,8.2239,8.2239,8.2239,8.2239,8.2239,8.2045,8.1802,8.1555,8.1347,8.1137,8.0958,8.0709,8.0491,8.0491,8.0359,8.0171,7.9914,7.9824,7.9778,7.9584,7.9526,7.9526,7.9526,7.9526,7.9526,7.9526,7.8956,7.8273,7.8273,7.7782,7.7178,7.7178,7.7178,7.7178,7.7178,7.6105,7.5021,7.5021,7.5021,7.5021,7.5021,7.5021,7.5021,7.5021,7.5021,7.5021,7.5021,7.5021,7.5021,7.5021,7.5021,7.5021,7.5021,7.5021,7.5021,7.5021,7.5021,7.529,7.5994,7.6061,7.6362,7.7178,7.7077,7.6374,7.5021,7.5021,7.4978,7.4847,7.4671,7.4582,7.4415,7.4022,7.4282,7.7131,8.0331,8.3603,8.4827,8.6288,8.7266,8.6897,8.6787,8.6109,8.3668,8.5394,8.6924,8.5685,8.6459,8.7269,8.7269,8.7269,8.7063,8.6418,8.6301,8.5886,8.47,8.4438,8.4137,8.3648,8.3355,8.3239,8.3239,8.3016,8.2902,8.2902,8.2741,8.2624,8.2624,8.2433,8.2314,8.2314,8.2239,8.2239,8.2239,8.2239,8.2239,8.2239,8.2239,8.2039,8.1638,8.1638,8.1431,8.1171,8.1171,8.1086,8.0967,8.0967,8.0958,8.0795,8.003,7.9763,7.9685,7.9026,7.8791,7.8791,7.8689,7.8689,7.8644,7.8553,7.767,7.6698,7.6698,7.5893,7.5021,7.5021,7.5021,7.4854,7.4183,7.4049,7.4049,7.4049,7.4049,7.4049,7.4049,7.4049,7.4049,7.4049,7.4049,7.4049,7.4049,7.4049,7.4049,7.4049,7.4049,7.4049,7.4049,7.4049,7.4049,7.4049,7.4049,7.4183,7.4519,7.4552,7.4686,7.4988,7.4385,7.4049,7.4049,7.4049,7.3963,7.378,7.378,7.3659,7.3484,7.3229,7.326,7.58,8.0297,8.4972,8.512,8.6393,8.7206,8.569,8.5357,8.5262,8.4967,8.6274,8.7373,8.7108,8.7195,8.7269,8.7269,8.7269,8.7063,8.6418,8.6301,8.6055,8.5328,8.4733,8.434,8.4273,8.3719,8.3391,8.3391,8.3242,8.3164,8.3164,8.2902,8.2787,8.2787,8.2663,8.2581,8.2581,8.2354,8.2239,8.2239,8.2239,8.2239,8.2239,8.2239,8.2199,8.216,8.216,8.2119,8.2119,8.2119,8.1802,8.1396,8.1396,8.1179,8.0702,7.9218,7.8664,7.8494,7.6988,7.6511,7.6429,7.6078,7.5951,7.5908,7.5555,7.5367,7.5233,7.5233,7.5122,7.5021,7.5021,7.5021,7.4351,7.1602,7.0965,7.0965,7.0965,7.0965,7.0965,7.0965,7.0965,7.0965,7.0965,7.0965,7.0965,7.0965,7.0965,7.0965,7.0965,7.0965,7.0965,7.0965,7.0965,7.0965,7.0965,7.0965,7.1569,7.3019,7.3086,7.369,7.4998,7.2407,7.0965,7.0965,7.0965,7.0965,7.0924,7.0924,7.0924,7.0883,7.0784,7.1392,7.2516,7.6837,8.1026,8.0966,8.3613,8.5813,8.4121,8.3855,8.3954,8.3851,8.586,8.7251,8.6282,8.603,8.6317,8.7239,8.6542,8.613,8.6818,8.6878,8.6664,8.5999,8.5677,8.5231,8.4441,8.4103,8.3825,8.343,8.3355,8.3316,8.3316,8.3129,8.294,8.2826,8.2663,8.2542,8.2354,8.2314,8.2239,8.2239,8.2239,8.1754,8.0812,8.0812,8.0292,7.9459,8.0396,8.0292,7.9425,7.9425,7.9274,7.9079,7.9079,7.9,7.8772,7.7908,7.7581,7.7438,7.6251,7.5848,7.5764,7.5376,7.5247,7.5204,7.5075,7.4461,7.3757,7.3757,7.3086,7.234,7.234,7.234,7.2038,7.0865,7.0563,7.0563,7.0563,7.0563,7.0563,7.0563,7.0563,7.0563,7.0563,7.0563,7.0563,7.0563,7.0563,7.0563,7.0563,7.0563,7.0563,7.0563,7.0563,7.0563,7.0563,7.0563,7.0831,7.1435,7.1468,7.1984,7.3121,7.1763,7.1036,7.1036,7.0719,7.0563,7.0563,7.0563,7.0563,7.0563,7.0424,7.0675,6.8574,7.3104,7.743,7.6837,8.0341,8.3768,8.3078,8.2325,8.1866,8.2216,8.4802,8.6495,8.4861,8.487,8.5529,8.6578,8.5772,8.5556,8.7118,8.7316,8.7136,8.6664,8.6418,8.5935,8.5014,8.4765,8.4474,8.4,8.3755,8.3683,8.3683,8.3391,8.3167,8.2981,8.2822,8.2663,8.2398,8.2393,8.2314,8.2239,8.2239,8.1159,7.9217,7.9217,7.8627,7.7618,7.8731,7.8592,7.7549,7.7549,7.7549,7.7549,7.7549,7.7549,7.7476,7.6795,7.6507,7.6361,7.5219,7.4883,7.4802,7.4394,7.4187,7.4062,7.3969,7.3137,7.2214,7.2214,7.1401,7.0563,7.0563,7.0563,7.0645,7.0888,7.0767,7.0604,7.076,7.0678,7.0604,7.076,7.0645,7.0645,7.0928,7.0881,7.0841,7.0928,7.0968,7.0968,7.0968,7.0968,7.0968,7.0968,7.0968,7.0968,7.0968,7.0968,7.0968,7.0968,7.0968,7.1077,7.1215,7.1424,7.1506,7.1506,7.1162,7.0968,7.0968,7.0881,7.08,7.08,7.0548,7.0424,6.4082,6.9614,7.546,7.3752,7.7057,8.1142,8.2813,8.0678,7.8821,8.0362,8.3161,8.4855,8.3159,8.4084,8.512,8.5157,8.5157,8.5668,8.7257,8.7456,8.7409,8.7269,8.6689,8.631,8.6274,8.5714,8.5328,8.5328,8.47,8.4374,8.4374,8.3755,8.3393,8.3391,8.3242,8.3051,8.2826,8.2663,8.2467,8.2239,8.2239,8.0569,7.7549,7.7549,7.7549,7.7549,7.7549,7.7549,7.7549,7.7549,7.7549,7.7549,7.7549,7.7549,7.7376,7.5954,7.5434,7.5192,7.3667,7.3112,7.3041,7.2643,7.2273,7.1894,7.1495,7.1029,7.0597,7.0597,7.0563,7.0563,7.0563,7.0563,7.0807,7.1671,7.1207,7.0685,7.1229,7.0955,7.0719,7.1229,7.0915,7.0848,7.1749,7.1584,7.1466,7.1859,7.1902,7.1902,7.1902,7.1902,7.1902,7.1902,7.1902,7.1902,7.1902,7.1902,7.1902,7.1902,7.1902,7.1215,6.9677,7.1079,7.1936,7.1936,7.1902,7.1902,7.1902,7.1506,7.1342,7.1303,7.08,7.0563,6.3237,6.7212,7.1308,7.2981,7.6275,7.8914,7.8283,7.9063,8.0065,8.0548,8.2386,8.37,8.3198,8.2471,8.2337,8.3485,8.2646,8.2399,8.4057,8.4279,8.4257,8.4214,8.4044,8.3741,8.3306,8.3067,8.2689,8.2188,8.16,8.1263,8.1166,8.0536,8.0152,8.008,8.0008,7.9864,7.9645,7.9606,7.9457,7.9304,7.9385,7.8305,7.6246,7.6246,7.5617,7.4569,7.5644,7.5471,7.4569,7.5679,7.5471,7.45,7.45,7.45,7.443,7.398,7.3806,7.3701,7.2964,7.2682,7.2609,7.2239,7.2012,7.1898,7.1783,7.1628,7.1516,7.1516,7.1314,7.1189,7.1438,7.1516,7.1555,7.1825,7.171,7.1516,7.1705,7.0774,6.995,7.0136,6.9139,6.8389,6.8648,6.8609,6.8571,6.8719,6.8719,6.8719,6.8719,6.8719,6.8719,6.8719,6.8719,6.8719,6.8719,6.8719,6.8719,6.8719,6.9261,6.9302,6.8819,6.8988,6.9156,6.9156,6.8868,6.8719,6.8719,6.8609,6.9116,7.0136,6.9988,7.0338,6.3207,6.6108,6.9266,7.193,7.4614,7.6439,7.5973,7.7014,7.8018,7.8018,7.984,8.1421,8.1384,8.1438,8.1863,8.2901,8.2138,8.1744,8.2757,8.2905,8.2847,8.2805,8.2805,8.2641,8.2219,8.2197,8.1997,8.1482,8.0873,8.0513,8.0426,7.9795,7.9349,7.9286,7.9253,7.9086,7.8605,7.8605,7.7973,7.678,7.6848,7.6321,7.5168,7.5436,7.4844,7.3666,7.4578,7.43,7.3219,7.4154,7.3945,7.3079,7.3079,7.3079,7.3079,7.3079,7.3079,7.3043,7.2827,7.2719,7.2682,7.2462,7.2276,7.2163,7.2163,7.205,7.1936,7.1936,7.1744,7.1429,7.0762,7.0269,7.0045,7.0377,7.0117,6.9852,7.0154,6.933,6.8577,6.887,6.801,6.7359,6.7644,6.7574,6.7539,6.7679,6.7679,6.7679,6.7679,6.7679,6.7679,6.7679,6.7679,6.7679,6.7679,6.7679,6.7679,6.7679,6.7678,6.76,6.76,6.7884,6.8059,6.8059,6.7819,6.7679,6.7679,6.7539,6.7982,6.894,6.8614,6.8864,6.3694,6.6053,6.8931,7.0845,7.2514,7.4052,7.5505,7.4723,7.3626,7.3514,7.5973,7.8155,7.8033,8.0473,8.2572,8.2628,8.2962,8.3128,8.2862,8.2953,8.2913,8.2699,8.2641,8.2604,8.2493,8.2493,8.2493,8.2473,8.1773,8.1315,8.129,8.0574,8.0152,8.0123,8.0123,7.9799,7.9053,7.9021,7.7599,7.4912,7.4912,7.4786,7.4556,7.5155,7.5097,7.4494,7.4342,7.3927,7.3359,7.3184,7.3149,7.3149,7.3114,7.3113,7.3113,7.3079,7.3079,7.3079,7.3079,7.3079,7.3079,7.3079,7.276,7.2398,7.2398,7.2142,7.1807,7.1705,7.167,7.117,6.899,6.761,6.7002,6.7853,6.7247,6.6657,6.7392,6.7041,6.6869,6.7612,6.7334,6.7266,6.7985,6.7782,6.7681,6.8052,6.8085,6.8085,6.8085,6.8085,6.8085,6.8085,6.8085,6.8085,6.8085,6.8085,6.8118,6.8118,6.6902,6.6141,6.6141,6.7424,6.8118,6.8085,6.8085,6.8085,6.8085,6.7715,6.7613,6.775,6.7015,6.6757,6.3213,6.534,6.7838,7.2025,7.3368,7.3778,7.4126,7.3924,7.3291,7.2002,7.3381,7.4818,7.4765,7.5366,7.6301,7.7497,8.0807,8.2741,8.142,8.2329,8.2644,8.1326,8.1177,8.0695,7.9489,7.9378,7.9359,7.9245,7.8612,7.8162,7.8048,7.7421,7.7026,7.689,7.689,7.6807,7.6639,7.6247,7.5889,7.5588,7.5588,7.5497,7.5356,7.5497,7.5441,7.5184,7.4618,7.4342,7.4119,7.3735,7.3532,7.3532,7.3324,7.322,7.322,7.3114,7.3079,7.3079,7.3079,7.3079,7.3079,7.3079,7.221,7.117,7.117,7.1135,7.0753,6.9578,6.9233,6.9129,6.8571,6.8229,6.8094,6.8298,6.8128,6.7957,6.8162,6.7231,6.6437,6.6637,6.5601,6.4771,6.4962,6.4899,6.4899,6.4962,6.5028,6.5028,6.5028,6.5028,6.5028,6.5028,6.5028,6.5028,6.5028,6.5028,6.5087,6.5304,6.499,6.4755,6.4632,6.4945,6.5122,6.5028,6.5028,6.5028,6.5028,6.4899,6.5647,6.7076,6.6918,6.7478,6.3262,6.5704,6.8008,6.9983,7.0497,7.0758,7.1534,7.1109,7.0521,7.0345,7.2296,7.4009,7.3946,7.5784,7.7314,7.726,7.8787,7.9683,7.8897,7.9592,7.9774,7.8768,7.9327,7.9407,7.8431,7.8339,7.8283,7.8246,7.783,7.759,7.7501,7.7107,7.6841,7.67,7.67,7.6555,7.6255,7.6031,7.567,7.5105,7.5867,7.5805,7.5039,7.6018,7.6331,7.6021,7.5544,7.4811,7.3885,7.3501,7.2896,7.2229,7.2065,7.2034,7.2034,7.1975,7.1849,7.1724,7.1401,7.1133,7.0927,7.0927,7.0372,6.9679,6.9679,6.9679,6.9505,6.864,6.7946,6.7286,6.6557,6.622,6.6122,6.6122,6.5955,6.5856,6.6021,6.55,6.5013,6.5173,6.4542,6.3952,6.3952,6.3952,6.3952,6.3952,6.3952,6.3952,6.3952,6.3952,6.3952,6.3952,6.4014,6.4045,6.4045,6.4071,6.4193,6.4344,6.4344,6.4433,6.4603,6.482,6.4933,6.4841,6.4841,6.4841,6.4841,6.4735,6.5215,6.6261,6.6008,6.6258,6.315,6.5867,6.7963,6.6681,6.6624,6.7228,6.8679,6.7902,6.7269,6.8711,7.1488,7.3622,7.3528,7.6923,7.9478,7.8564,7.6796,7.5772,7.6468,7.7032,7.7137,7.6659,7.8075,7.891,7.8427,7.8338,7.8339,7.8339,7.8246,7.8153,7.8134,7.8039,7.7904,7.7804,7.7804,7.728,7.6243,7.6312,7.5593,7.4053,7.5479,7.5406,7.409,7.5954,7.6594,7.6137,7.585,7.468,7.3023,7.2701,7.1803,7.0628,7.0602,7.0602,7.0575,7.0575,7.0412,7.0169,6.9599,6.9079,6.8595,6.8593,6.8422,6.8182,6.8182,6.8182,6.8147,6.7806,6.6869,6.5621,6.4299,6.3699,6.3477,6.3477,6.3218,6.3053,6.3413,6.3477,6.3573,6.389,6.3952,6.3952,6.3952,6.3952,6.3952,6.3983,6.3983,6.3983,6.4014,6.4014,6.4014,6.4014,6.4106,6.4167,6.4167,6.4288,6.4193,6.3821,6.3786,6.4038,6.4571,6.4976,6.5272,6.5524,6.556,6.5667,6.5882,6.5692,6.5615,6.5666,6.5227,6.4848,6.1542,6.3403,6.4871,6.486,6.5891,6.6926,6.719,6.7064,6.6929,6.7193,6.8816,7.0137,7.0137,7.0771,7.2528,7.6462,7.4443,7.3366,7.6185,7.8959,8.0166,7.8702,7.9834,8.0185,7.8792,7.846,7.8339,7.8339,7.8339,7.8246,7.8134,7.8116,7.8058,7.7941,7.7904,7.6534,7.3686,7.3554,7.3384,7.3126,7.3247,7.317,7.2949,7.3287,7.3398,7.3297,7.2833,7.2437,7.2066,7.1482,7.1107,7.0891,7.0787,7.0735,7.0708,7.0602,7.0521,7.0494,7.0384,6.9941,6.9447,6.9533,6.8476,6.7087,6.7087,6.7087,6.6781,6.5087,6.4473,6.4265,6.4022,6.3921,6.3856,6.3856,6.3828,6.3797,6.3859,6.3856,6.3856,6.3952,6.3952,6.3952,6.3952,6.3952,6.3983,6.411,6.4106,6.4167,6.4254,6.4284,6.4284,6.4284,6.4284,6.4284,6.4284,6.4314,6.3481,6.1491,6.1364,6.1624,6.2136,6.2041,6.2569,6.3896,6.3932,6.4566,6.5882,6.5858,6.6078,6.6485,6.6414,6.6414,6.0116,6.1024,6.1755,6.1851,6.2477,6.3347,6.4261,6.4455,6.4957,6.6818,6.7803,6.8902,7.0725,7.1104,7.2067,7.5134,7.5136,7.5281,7.6699,7.9037,7.9944,7.8084,7.924,7.9874,7.9027,7.8803,7.833,7.7252,7.7161,7.669,7.5556,7.5501,7.5502,7.541,7.541,7.4707,7.3207,7.3116,7.2598,7.1656,7.2505,7.2411,7.1562,7.2447,7.274,7.2681,7.2458,7.1861,7.107,7.0764,7.0107,6.9282,6.918,6.9158,6.9158,6.9114,6.9038,6.8937,6.8676,6.831,6.7944,6.742,6.6592,6.5739,6.5482,6.6027,6.6509,6.5323,6.4897,6.4813,6.4981,6.4855,6.4726,6.4763,6.451,6.4284,6.4284,6.4137,6.3952,6.3952,6.3952,6.3952,6.3952,6.3952,6.3706,6.2903,6.2859,6.2635,6.1893,6.1876,6.1933,6.1933,6.1984,6.2041,6.2041,6.2154,6.177,6.0716,6.0813,6.1173,6.1708,6.1801,6.2297,6.3231,6.3251,6.3615,6.4307,6.4218,6.4333,6.4587,6.5284,6.5555,5.982,0.0,6.0383,6.0821,6.0675,6.0822,0.0,6.2724,6.3712,6.6333,6.7168,6.823,7.0849,7.1304,7.182,7.3316,7.4725,7.5873,7.6585,7.7529,7.7718,7.6625,7.7903,7.8681,7.8099,7.8326,7.7749,7.5843,7.5634,7.4951,7.3472,7.332,7.3272,7.3259,7.2604,7.2229,7.2229,7.2165,7.1447,7.0082,7.1322,7.1249,7.0067,7.1231,7.1691,7.1615,7.1559,7.0876,6.9771,6.9771,6.8997,6.7855,6.7855,6.7855,6.7855,6.7855,6.7799,6.7626,6.7239,6.6987,6.6751,6.5854,6.5468,6.5263,6.4891,6.5539,6.6307,6.5918,6.564,6.5494,6.5563,6.5344,6.515,6.5146,6.4763,6.4398,6.4398,6.4163,6.3952,6.3952,6.3675,6.3397,6.3397,6.312,6.246,6.131,6.1289,6.0993,5.9935,5.99,5.9948,5.9948,6.0022,6.0104,6.0104,5.987,5.9732,5.9793,6.0109,6.0473,6.1007,6.1313,6.1627,6.1938,6.2306,6.2491,6.2491,6.2724,6.2873,6.2892,6.3898,6.4154,0.0,6.1994,6.2442,6.4142,6.3362,6.2228,6.2388,6.3605,0.0,6.5059,6.6353,6.7529,6.7757,6.7795,6.8363,7.0028,7.0411,7.1588,7.4724,7.3925,7.3497,7.4828,7.6288,7.6534,7.4917,7.5999,7.6067,7.4341,7.3959,7.3773,7.3647,7.343,7.3269,7.3306,7.0593,6.9143,6.9143,6.8892,6.8683,6.8555,6.8582,6.851,6.8382,6.8368,6.837,6.8352,6.8224,6.8113,6.8003,6.8003,6.7966,6.7855,6.7855,6.7855,6.7855,6.7855,6.7855,6.7837,6.7781,6.7667,6.7487,6.6907,6.6642,6.6544,6.6485,6.6089,6.5589,6.5563,6.5424,6.5233,6.4741,6.4632,6.4486,6.4163,6.401,6.4014,6.4014,6.3983,6.3952,6.3952,6.2807,6.1771,6.1771,6.0592,5.9678,5.9815,5.9928,6.0033,6.003,6.0157,6.0264,6.0264,6.0229,6.0229,6.0229,5.8496,5.7548,5.7915,5.795,5.8176,5.8743,5.8773,5.8788,5.8818,6.0267,6.0991,6.0991,6.2426,6.3168,6.3168,6.3103,6.3019,6.1844,6.3102,6.4057,6.476,6.4431,6.3982,6.3986,6.365,6.396,6.6088,6.5329,6.5291,6.8442,6.7303,6.7112,7.0946,7.0642,7.1855,7.728,7.6666,7.6622,7.9233,7.73,7.5477,7.4766,7.4301,7.3696,7.2905,7.2774,7.2161,7.0964,7.0809,7.0747,7.0747,6.9646,6.9044,6.9044,6.8961,6.8898,6.8898,6.8696,6.8529,6.847,6.8329,6.8214,6.8162,6.8127,6.8037,0.0,6.7947,6.791,6.7855,6.7855,6.7855,6.7855,6.7855,6.7855,6.7855,6.7855,6.78,6.7724,6.7535,6.7255,6.6995,6.6834,6.6886,6.6993,6.6993,6.6746,6.6521,6.6472,6.6114,6.5737,6.5763,6.5424,6.4887,6.3904,6.3438,6.2933,6.1957,6.1096,6.0508,6.0508,5.9828,5.8996,5.8214,5.8269,5.8083,5.7157,5.7225,5.7368,5.7468,5.7667,5.8688,6.0816,6.0348,6.0116,6.051,6.0802,6.0625,5.9747,5.9867,5.9499,5.8537,5.9092,5.9373,5.9373,5.9972,6.0267,6.0304,6.1208,6.1643,6.3322,6.4805,6.5792,6.6287,6.5984,6.5453,6.4995,6.4389,6.4465,6.6284,6.4806,6.4428,6.8376,6.6325,6.5565,7.0044,6.9855,7.1071,7.6652,7.6501,7.6652,7.8892,7.6195,7.4103,7.4046,7.3112,7.2196,7.151,7.1345,7.0729,6.9408,6.9232,6.9242,6.9366,6.9298,6.9279,6.9279,6.9208,6.9215,6.9215,6.902,6.8873,6.8691,6.8522,6.8431,6.8302,6.8268,6.818,6.809,6.809,6.8037,6.7947,6.7947,6.7929,6.791,6.791,6.7892,6.7855,6.7855,6.7855,6.7855,6.7855,6.7667,6.743,6.7239,6.7535,6.7782,6.7155,6.6374,6.5707,6.567,6.5272,6.4888,6.4829,6.447,6.3845,6.2674,6.2107,6.1525,6.0308,5.9505,5.9026,5.9026,5.8395,5.7595,5.677,5.7306,5.7391,5.6337,5.6858,5.7347,5.7285,5.755,5.8876,6.169,6.2114,6.2372,6.2672,6.3044,6.2696,6.153,6.1684,6.1277,6.0224,6.0149,6.0121,6.0091,6.0091,5.9817,5.9358,6.0462,6.0714,6.6288,6.7242,6.7656,6.9192,6.8312,6.666,6.5116,6.6034,6.68,6.5262,6.491,6.5339,6.6963,6.4491,6.3258,6.6533,6.7192,6.8386,7.1635,7.2132,7.2103,7.2124,7.2127,7.2158,7.2282,7.2389,7.1787,7.0077,6.9764,6.9572,6.9609,6.9349,6.9404,6.976,6.954,6.9391,6.9391,6.9289,6.9187,6.9187,6.9187,6.9067,6.8822,6.8667,6.8581,6.844,6.8265,6.8231,6.8231,6.8231,6.8231,6.8231,6.8214,6.8162,6.8037,6.8037,6.7947,6.7855,6.7855,6.7855,6.7855,6.7855,6.7855,6.7819,6.7782,6.7892,6.7578,6.5646,6.3785,6.2284,6.1584,6.1427,6.1266,6.0614,6.0472,6.0359,5.9955,5.9874,5.9738,5.9325,5.8129,5.7123,5.7151,5.584,5.4976,5.5515,5.7147,5.832,5.832,6.0042,6.1043,6.0507,6.0619,6.1335,6.2869,6.3379,6.368,6.3795,6.3832,6.3785,6.3793,6.3793,6.3766,6.3758,6.3758,6.3715,6.3562,6.3562,6.2731,6.1091,6.1205,6.0424,6.3774,6.6301,6.9139,6.95,6.9214,6.8413,6.6887,6.5966,6.5697,6.6436,6.3733,6.2463,6.6518,6.4484,6.3286,6.6662,6.7149,6.829,7.1644,7.2119,7.2554,7.3738,7.284,7.168,7.0521,7.0512,7.0383,6.9892,6.9769,6.9781,6.9871,6.9788,6.9821,6.9938,6.9826,6.9757,6.9665,6.9629,6.961,6.9604,6.9428,6.9279,6.9223,6.9096,6.9009,6.8974,6.8911,6.8873,6.876,6.876,6.8734,6.863,6.8552,6.8483,6.8436,6.8228,6.8073,6.7965,6.7965,6.7965,6.7965,6.7965,6.8037,6.7684,6.5288,6.4587,6.4459,6.3788,6.3221,6.2709,6.2231,6.1916,6.1669,6.1453,6.1407,6.1061,5.9858,5.9376,5.889,5.7984,5.6982,5.6434,5.6675,5.5984,5.542,5.5583,5.691,5.7922,5.8047,5.99,6.1256,6.1256,6.3382,6.5121,6.5932,6.6344,6.6739,6.7174,6.7203,6.6696,6.5568,6.5531,6.5066,6.4057,6.3934,6.3956,6.4101,6.4095,6.3848,6.3361,6.3415,6.2498,6.5207,6.7312,6.9609,6.9528,6.9502,6.8935,6.6683,6.5921,6.5769,6.6164,6.3228,6.232,6.8072,6.5216,6.3362,6.7457,6.6913,6.6913,6.9656,7.0024,7.065,7.2352,7.1647,7.0651,6.9605,6.9636,6.9735,6.9767,6.9779,6.9817,6.9909,6.9905,6.9925,6.9962,6.9992,6.9942,6.9854,6.9854,6.9849,6.9802,6.9635,6.9164,6.8477,6.8365,6.7932,6.7164,6.7164,6.7142,6.7073,6.7073,6.7024,6.6931,6.6877,6.6801,6.6749,6.657,6.649,6.6377,6.6377,6.6337,6.6241,6.6241,6.6436,6.6214,6.4067,6.3382,6.3172,6.2373,6.2089,6.182,6.0931,6.0432,6.0131,6.0002,5.996,5.9664,5.8563,5.8153,5.7735,5.6854,5.6174,5.5848,5.6141,5.5739,5.5469,5.5717,5.7207,5.8641,5.9389,6.1264,6.2773,6.3413,6.5169,6.6445,6.6769,6.7019,6.6989,6.6681,6.6724,6.6356,6.5389,6.5405,6.503,6.417,6.4112,6.4184,6.4272,6.4958,6.4911,6.4281,6.4356,6.3469,6.8682,6.9148,6.9383,6.9396,6.9402,6.8552,6.5242,6.5819,6.6589,6.5018,6.337,6.4112,7.0318,6.6398,6.3723,6.8356,6.6633,6.5243,6.6815,6.7051,6.7625,6.9215,6.9402,6.9392,6.9384,6.9512,6.9635,6.9753,6.9761,6.9779,6.9779,6.9781,6.985,6.996,6.9977,6.9966,6.9962,6.9992,6.9905,6.9807,6.9807,6.887,6.7118,6.7111,6.6042,6.4206,6.4243,6.4234,6.4234,6.4234,6.4234,6.4234,6.4177,6.4109,6.402,6.3951,6.3983,6.3965,6.3965,6.381,6.3617,6.3617,6.3647,6.3672,6.3399,6.3247,6.2827,6.1105,6.0564,6.0099,5.8503,5.7925,5.7644,5.7282,5.7162,5.7061,5.6711,5.6567,5.6479,5.6151,5.58,5.5583,5.5739,5.5459,5.5424,5.6009,5.7888,5.98,6.1367,6.3174,6.4735,6.586,6.5885,6.5811,6.5811,6.585,6.5269,6.3864,6.387,6.3934,6.396,6.4058,6.4133,6.4192,6.4291,6.4309,6.4206,6.5758,6.573,6.4206,6.4466,6.3674,6.6188,6.7443,6.9383,6.9396,6.9402,6.8511,6.5156,6.5711,6.6446,6.4779,6.4111,6.4639,6.7318,6.6432,6.5692,6.6776,6.7176,6.7633,6.8299,6.8412,6.8635,6.9306,6.9402,6.9396,6.9382,6.943,6.9439,6.9492,6.9554,6.9613,6.9613,6.9727,6.9802,6.9815,6.9818,6.9813,6.9808,6.9923,6.997,6.9928,6.9951,6.902,6.7368,6.7381,6.6424,6.4748,6.4759,6.4748,6.4748,6.4748,6.4748,6.4742,6.455,6.4437,6.4362,6.4206,6.4126,6.4101,6.3994,6.3912,6.3878,6.3878,6.2241,6.0314,6.0151,6.0083,5.9937,5.934,5.9074,5.881,5.8149,5.7839,5.7644,5.7365,5.7226,5.7142,5.7061,5.6796,5.661,5.6859,5.6682,5.6567,5.6917,5.6896,5.6917,5.7038,5.8067,5.9042,5.9606,6.1431,6.2967,6.3624,6.3642,6.3648,6.3657,6.4015,6.4107,6.3779,6.3769,6.387,6.3959,6.3985,6.4133,6.4434,6.4371,6.4475,6.4758,6.5126,6.5108,6.473,6.4791,6.3937,6.6899,6.7637,6.8899,6.8835,6.8846,6.8173,6.5642,6.5144,6.5194,6.5081,6.3968,6.4126,6.7936,6.7349,6.6511,6.7114,6.7166,6.7188,6.7404,6.7418,6.7842,6.8985,6.9121,6.9168,6.9354,6.9379,6.941,6.941,6.9463,6.9436,6.9324,6.9621,6.9783,6.9786,6.9802,6.9771,6.9775,6.9857,6.9893,6.9891,6.9888,6.8588,6.6136,6.6149,6.4819,6.2486,6.2478,6.2476,6.2511,6.2478,6.2501,6.2497,6.2367,6.2304,6.2293,6.2159,6.2097,6.2097,6.2007,6.1913,6.1815,6.1937,6.089,5.9547,5.933,5.9233,5.9097,5.8797,5.861,5.8441,5.8103,5.7925,5.7788,5.7571,5.7365,5.7226,5.7182,5.702,5.6901,5.7122,5.6886,5.6787,5.7098,5.6982,5.6921,5.7137,5.7752,5.8589,5.9523,5.9941,6.0584,6.1675,6.1987,6.2153,6.2126,6.2388,6.2194,6.1378,6.1367,6.1481,6.1507,6.1735,6.1892,6.212,6.2153,6.2299,6.2508,6.3318,6.3717,6.3707,6.3701,6.3225,6.8283,6.8439,6.8387,6.8256,6.824,6.7832,6.6257,6.501,6.4542,6.5648,6.4344,6.4504,6.9365,6.8417,6.7383,6.8699,6.7821,6.6953,6.7073,6.7089,6.7492,6.8575,6.8728,6.8822,6.9145,6.9213,6.9198,6.9198,6.9225,6.9145,6.8961,6.9433,6.967,6.9719,6.9731,6.9783,6.9794,6.9768,6.9781,6.9793,6.9793,6.8177,6.5148,6.4879,6.3133,6.0288,6.0021,5.987,5.9868,5.9882,5.9861,5.9888,5.9888,5.9872,5.9882,5.9878,5.9861,5.9877,5.9873,5.9742,5.9558,5.9806,5.9873,5.9844,5.9561,5.9433,5.9278,5.8932,5.8705,5.8532,5.8254,5.8071,5.7871,5.7752,5.7533,5.7288,5.7146,5.7142,5.7142,5.7142,5.6922,5.6745,5.6998,5.684,5.6763,5.7081,5.748,5.8255,5.9646,5.874,5.8459,5.9839,6.0384,6.0639,6.058,6.066,6.01,5.8675,5.8744,5.8846,5.8858,5.9203,5.9452,5.9493,5.9709,5.9848,5.9862,6.1254,6.197,6.1936,6.1936,6.195,6.7733,6.8439,6.8387,6.8256,6.824,6.7832,6.6257,6.6776,6.7259,6.6014,6.7726,6.9263,6.8365,6.8887,7.0008,7.1524,7.1383,7.1289,7.1741,7.1799,7.0917,6.8569,6.8319,6.8334,6.8365,6.838,6.8395,6.8395,6.8602,6.8701,6.8667,6.9052,6.9336,6.9439,6.955,6.9673,6.9783,6.9783,6.9774,6.9776,6.9776,6.8754,6.6864,6.539,6.3759,6.2007,6.0501,5.9859,5.986,5.9863,5.9871,5.9865,5.9865,5.9887,5.9885,5.9869,5.9885,5.9866,5.9877,5.9863,5.9816,5.9868,5.9873,5.9859,5.9676,5.9653,5.9555,5.9289,5.9099,5.893,5.8546,5.8187,5.7882,5.777,5.7439,5.7182,5.7162,5.7142,5.7142,5.7142,5.7226,5.7251,5.729,5.7553,5.775,5.7785,5.7766,5.7802,5.8022,5.8079,5.8108,5.8105,5.8259,5.8226,5.788,5.8279,5.8414,5.823,5.8513,5.8729,5.8731,5.9,5.9252,5.9485,5.9633,5.9768,5.9858,6.0096,6.0219,6.0211,6.0205,6.0202,6.6933,6.7763,6.7763,6.7726,6.7671,6.7523,6.6806,6.6511,6.6438,6.6529,6.7874,6.8943,6.876,6.9404,7.0137,7.0596,6.9902,6.9362,6.9595,6.9636,6.9246,6.8127,6.8032,6.8063,6.8224,6.824,6.824,6.824,6.8346,6.8415,6.8387,6.8823,6.9127,6.9198,6.9225,6.9355,6.955,6.9642,6.9659,6.9659,6.9659,6.8816,6.7234,6.6402,6.4669,6.2239,6.1492,6.0662,5.9759,5.9831,5.9853,5.9865,5.9865,5.9871,5.9866,5.9887,5.9861,5.9866,5.9853,5.9861,5.9859,5.9859,5.987,5.9859,5.9696,5.9684,5.9615,5.9252,5.912,5.9022,5.8783,5.8546,5.8256,5.7935,5.7697,5.7497,5.7186,5.7142,5.7142,5.7142,5.7186,5.7285,5.7328,5.7479,5.7662,5.7805,5.7767,5.7713,5.7625,5.7588,5.7551,5.7533,5.7443,5.7352,5.7222,5.7727,5.8013,5.8013,5.8455,5.8688,5.8715,5.8996,5.9252,5.9347,5.9617,5.9793,5.9887,5.9853,5.9861,5.987,5.9871,5.9872,6.5776,6.664,6.6749,6.7151,6.7281,6.7281,6.7281,6.6348,6.5816,6.6984,6.762,6.8116,6.8506,6.9099,6.961,6.9838,6.901,6.8356,6.8501,6.8522,6.8262,6.7777,6.7668,6.7745,6.7958,6.7975,6.7975,6.7975,6.8083,6.8103,6.8069,6.8631,6.8949,6.8836,6.8961,6.9104,6.9311,6.9383,6.9439,6.9439,6.9512,6.8908,6.78,6.7284,6.5756,6.3385,6.2553,6.1493,6.0288,5.995,5.9796,5.9812,5.9858,5.9887,5.987,5.987,5.9855,5.9866,5.9866,5.9879,5.9871,5.9871,5.9885,5.987,5.9708,5.9665,5.9612,5.9299,5.9189,5.9147,5.9005,5.8809,5.8617,5.8165,5.7969,5.7715,5.7326,5.7166,5.7102,5.7102,5.7081,5.7086,5.7153,5.7232,5.7309,5.7497,5.7607,5.7607,5.7309,5.7159,5.7048,5.6972,5.6797,5.6716,5.6732,5.7316,5.7673,5.7621,5.8285,5.862,5.8564,5.8974,5.9215,5.9305,5.9622,5.9823,5.9889,5.987,5.9872,5.9871,5.986,5.9884,6.3896,6.5014,6.5399,6.6895,6.7281,6.7281,6.7281,6.7208,6.713,6.7096,6.8061,6.841,6.674,6.7465,6.8974,7.0929,7.1196,7.1295,7.1813,7.1881,7.0713,6.7631,6.7302,6.7323,6.7307,6.7307,6.7307,6.7307,6.763,6.78,6.7682,6.8389,6.8705,6.847,6.8797,6.9009,6.902,6.9032,6.9032,6.9032,6.9273,6.9354,6.9251,6.7727,6.6952,6.662,6.3553,6.2156,6.1967,6.0319,5.9676,5.9693,5.9817,5.9876,5.987,5.9871,5.9867,5.9863,5.9861,5.9861,5.9863,5.9863,5.9861,5.9851,5.9697,5.9682,5.9638,5.9481,5.9468,5.9393,5.9158,5.8905,5.8671,5.8518,5.7997,5.7552,5.7516,5.7212,5.6979,5.6979,5.6859,5.676,5.6781,5.6912,5.6982,5.6982,5.7309,5.7309,5.67,5.6736,5.6553,5.5915,5.5974,5.5953,5.568,5.6481,5.6972,5.6804,5.7879,5.8426,5.8146,5.8646,5.9035,5.9289,5.9552,5.9755,5.9872,5.9865,5.9864,5.9853,5.9886,5.9882,6.34,6.4904,6.5289,6.6859,6.7281,6.7218,6.6944,6.6899,6.6773,6.6497,6.7568,6.8317,6.7641,6.7932,6.847,6.92,6.8548,6.806,6.8195,6.8255,6.7916,6.6986,6.6899,6.6987,6.726,6.6832,6.6497,6.6497,6.6782,6.7087,6.7357,6.7818,6.8188,6.8436,6.8552,6.8734,6.887,6.887,6.8948,6.9009,6.9104,6.9138,6.9138,6.8565,6.7721,6.6631,6.5627,6.3968,6.1904,6.1471,6.0666,5.9658,5.972,5.9797,5.9882,5.9882,5.9866,5.9872,5.9867,5.9869,5.9872,5.9872,5.987,5.9859,5.9806,5.9744,5.9661,5.9516,5.9498,5.9459,5.925,5.9158,5.8988,5.8707,5.8381,5.8093,5.7829,5.7498,5.7209,5.7209,5.6968,5.676,5.676,5.6823,5.6829,5.6829,5.6517,5.6194,5.5965,5.5539,5.5294,5.5379,5.5214,5.5147,5.5319,5.6009,5.6438,5.6388,5.7407,5.7993,5.8013,5.858,5.9029,5.928,5.9539,5.9741,5.9868,5.9871,5.9882,5.9882,5.9882,5.9788,6.2045,6.3202,6.3636,6.5926,6.6273,6.6187,6.6597,6.6567,6.6403,6.6136,6.6735,6.7329,6.7329,6.7187,6.7169,6.7303,6.6514,6.5936,6.6062,6.6087,6.6185,6.645,6.6474,6.6567,6.6855,6.6403,6.6087,6.6087,6.6379,6.6646,6.6886,6.7259,6.767,6.8086,6.8191,6.8357,6.867,6.867,6.872,6.8795,6.8795,6.8835,6.8936,6.8973,6.8397,6.726,6.637,6.4693,6.255,6.1569,6.0542,5.9607,5.9626,5.9714,5.9882,5.9879,5.9833,5.9806,5.9838,5.9886,5.9861,5.9861,5.9907,5.9947,5.9887,5.9809,5.9701,5.9521,5.9502,5.9447,5.9346,5.923,5.9136,5.8907,5.8668,5.8418,5.8187,5.7746,5.7368,5.729,5.6993,5.676,5.6632,5.6589,5.6567,5.6567,5.6082,5.5645,5.5488,5.4819,5.4481,5.473,5.4523,5.453,5.4993,5.5526,5.5859,5.5894,5.7012,5.7639,5.7585,5.8373,5.8916,5.9224,5.9448,5.9668,5.9864,5.9871,5.9886,5.9866,5.9824,5.9693,5.9597,5.9658,6.0245,6.3947,6.4292,6.4207,6.6157,6.6343,6.6087,6.599,6.5696,6.5477,6.5477,6.5158,6.5053,6.5423,6.5477,6.5637,6.5987,6.6062,6.6062,6.6062,6.6062,6.6062,6.6062,6.6062,6.6062,6.6062,6.6427,6.6521,6.6307,6.679,6.7161,6.742,6.7706,6.7981,6.8394,6.8373,6.8373,6.8426,6.8426,6.8551,6.8822,6.8924,6.8947,6.8722,6.5547,6.4122,6.3822,6.0522,5.9271,5.9452,5.9468,5.965,5.984,5.9844,5.9759,5.9706,5.9815,5.9871,5.9871,5.9871,5.9958,6.0049,5.9908,5.9859,5.9793,5.9563,5.9492,5.9449,5.9337,5.921,5.9088,5.9077,5.8797,5.8513,5.8513,5.7997,5.7462,5.7176,5.6937,5.6667,5.6426,5.6255,5.6187,5.6187,5.6048,5.5741,5.5219,5.46,5.4089,5.3841,5.3784,5.4023,5.453,5.4958,5.5229,5.5359,5.6685,5.7315,5.6939,5.7924,5.8671,5.9064,5.9205,5.9477,5.9864,5.9868,5.9873,5.9862,5.972,5.9598,5.7042,5.7034,5.7469,6.3101,6.3502,6.2857,6.4241,6.5359,6.5614,6.3914,6.438,6.5109,6.5109,6.4996,6.4939,6.5081,6.5109,6.5102,6.5213,6.5241,6.5378,6.5637,6.5689,6.5557,6.5268,6.5241,6.5296,6.5369,6.5477,6.5732,6.6259,6.6414,6.6701,6.7161,6.7223,6.736,6.7423,6.7423,6.7614,6.8018,6.8018,6.8191,6.8535,6.8574,6.7933,6.6807,6.4844,6.3299,6.2091,6.1256,6.0253,5.9214,5.9298,5.9393,5.9464,5.9539,5.9612,5.9659,5.9722,5.98,5.9873,5.9996,6.0039,6.0046,6.0022,5.9944,5.9844,5.9786,5.9712,5.9602,5.946,5.9308,5.9175,5.9011,5.8797,5.856,5.83,5.7795,5.7259,5.6824,5.6452,5.6151,5.6095,5.6048,5.6025,5.6025,5.5438,5.4819,5.4283,5.3716,5.3401,5.3414,5.3016,5.3103,5.3961,5.4151,5.4372,5.48,5.5754,5.6395,5.6649,5.7389,5.8167,5.8933,5.9083,5.9395,5.9864,5.987,5.9817,5.9725,5.9682,5.9487,5.4652,5.4623,5.4857,5.9381,5.9656,5.9276,6.1273,6.2307,6.2633,6.1799,6.2341,6.2975,6.2975,6.3503,6.396,6.396,6.4488,6.4911,6.4911,6.4911,6.4996,6.5241,6.481,6.4366,6.4121,6.4693,6.5137,6.5185,6.5018,6.5205,6.5911,6.5747,6.6015,6.6812,6.6834,6.6886,6.7078,6.7078,6.7202,6.7535,6.7535,6.7376,6.7101,6.7101,6.6369,6.4951,6.3474,6.2157,6.1043,6.0587,5.9882,5.911,5.9182,5.9271,5.9355,5.9396,5.9433,5.9527,5.9627,5.973,5.9812,5.9996,6.0046,6.0052,6.0057,6.0023,5.9932,5.9904,5.9776,5.9639,5.9517,5.9382,5.9232,5.8939,5.8784,5.8638,5.8404,5.7895,5.7352,5.6909,5.6445,5.6105,5.5931,5.5907,5.5752,5.5324,5.4661,5.4005,5.3439,5.3019,5.2776,5.2874,5.2238,5.2108,5.2638,5.2699,5.2976,5.361,5.4416,5.5069,5.5671,5.6484,5.7436,5.8372,5.8775,5.9167,5.9635,5.9795,5.9796,5.9692,5.9687,5.9523,5.1833,5.1827,5.2067,5.4312,5.4454,5.481,0.0,5.8315,5.8462,5.9389,5.9867,6.0043,5.9815,6.1225,6.2326,6.2095,6.3397,6.4418,6.4418,6.4418,6.4418,6.4418,6.3406,6.263,6.2604,6.4018,6.4903,6.4875,6.4591,6.469,6.528,6.4884,6.5099,6.6149,6.6247,6.6449,6.6806,6.6871,6.695,6.6993,6.6832,6.6198,6.5242,6.5058,6.4312,6.3086,6.1692,6.08,6.023,5.9077,5.8807,5.904,5.9061,5.9224,5.9435,5.9318,5.9262,5.9342,5.9568,5.9659,5.9696,5.9992,6.0052,6.0059,6.006,6.0062,6.0056,5.9911,5.98,5.9693,5.9532,5.94,5.925,5.8988,5.8796,5.8661,5.862,5.8114,5.7516,5.7089,5.6623,5.6136,5.58,5.5739,5.5374,5.4338,5.387,5.3346,5.2681,5.2369,5.2243,5.2243,5.1685,5.122,5.1023,5.1024,5.1358,5.2107,5.2897,5.3647,5.432,5.5447,5.6552,5.7593,5.833,5.8852,5.9266,5.9621,5.9775,5.9675,5.9654,5.9568,0.0,0.0,0.0,0.0,0.0,0.0,0.0,5.6504,5.6988,5.5657,5.7412,5.8664,5.7101,5.9216,6.0665,5.911,6.015,6.1171,6.1171,6.126,6.1287,6.1171,6.0951,6.0668,6.034,6.1428,6.2183,6.2163,6.3066,6.3724,6.4089,6.4028,6.4054,6.4287,6.4785,6.5127,6.52,6.5686,6.6174,6.6601,6.5334,6.4742,6.4809,6.355,6.2159,6.073,6.0437,5.9467,5.8151,5.8235,5.8467,5.8796,5.8907,5.9022,5.9163,5.9141,5.9172,5.9325,5.9451,5.9579,5.97,5.9968,6.0058,6.006,6.0061,6.006,6.0057,6.0043,5.9911,5.9803,5.9682,5.9464,5.9252,5.911,5.8784,5.8418,5.8009,5.7515,5.6933,5.633,5.586,5.5533,5.5344,5.5319,5.5002,5.4039,5.3576,5.3073,5.2302,5.1982,5.185,5.185,5.1418,5.0912,5.0396,5.0437,5.0718,5.1324,5.2072,5.2908,5.3755,5.4721,5.5775,5.6951,5.8004,5.8674,5.8979,5.9357,5.9555,5.953,5.952,5.9432,0.0,0.0,0.0,0.0,0.0,0.0,0.0,0.0,0.0,0.0,0.0,5.3012,5.2797,0.0,5.7278,5.7004,5.8809,6.0256,6.0256,6.0317,5.9822,5.8395,5.8965,5.9299,5.8865,6.0053,6.0696,6.0384,6.1382,6.2211,6.2668,6.3055,6.3437,6.3748,6.4054,6.4031,6.358,6.3885,6.3946,6.3741,6.2951,6.2413,6.1976,6.1197,6.0117,5.8793,5.8606,5.8264,5.7832,5.7895,5.8271,5.8809,5.8944,5.9082,5.921,5.9192,5.927,5.9411,5.9547,5.9634,5.973,5.9979,6.0061,6.0062,6.0059,6.0055,6.005,6.0,5.9911,5.9847,5.9702,5.9583,5.9418,5.9162,5.8833,5.8522,5.8208,5.7658,5.7067,5.651,5.5999,5.5596,5.5192,5.4765,5.4269,5.3498,5.2986,5.2426,5.1719,5.1218,5.0753,5.0209,4.9866,4.9316,4.8377,4.8794,4.9211,4.9474,5.0329,5.129,5.2354,5.3333,5.4591,5.623,5.7097,5.7848,5.8399,5.8923,5.9166,5.91,5.9034,5.9091,0.0,0.0,0.0,0.0,0.0,0.0,0.0,0.0,0.0,0.0,0.0,0.0,0.0,0.0,0.0,5.4538,5.7159,5.9177,5.9418,5.9495,5.8702,5.6402,5.7336,5.8,5.7474,5.8795,5.9407,5.869,5.9584,6.0318,6.0747,6.1415,6.2,6.2509,6.2758,6.2531,6.1796,6.2044,6.1762,6.103,6.0745,0.0,5.919,5.8888,5.8231,5.7332,5.7084,5.7351,5.7915,5.7865,5.8211,5.8809,5.9037,5.9203,5.9322,5.9334,5.9381,5.9489,5.9646,5.9689,5.9707,5.9984,6.006,6.0057,6.0054,6.0047,0.0,5.9911,5.9861,5.9834,5.9735,5.9664,5.9554,5.9175,5.8891,5.8646,5.8507,5.7969,5.7388,5.684,5.6278,5.573,5.5079,5.4111,5.3072,5.1968,5.1504,5.0932,5.0071,4.9815,4.935,4.8371,4.8162,4.774,4.6827,4.6831,4.7135,4.7728,4.8121,4.8818,4.9945,5.0988,5.2319,5.3951,5.4635,5.5725,5.7214,5.7784,5.828,5.8604,5.6477,5.6198,0.0,0.0,0.0,0.0,0.0,0.0,0.0,0.0,0.0,0.0,0.0,0.0,0.0,0.0,0.0,0.0,5.2797,5.5276,5.6297,5.6751,5.6743,5.6084,5.6179,5.6131,5.574,5.6903,5.7283,5.6418,5.7514,5.8113,5.7855,5.7924,0.0,0.0,0.0,5.9754,5.9638,6.0668,6.1136,6.103,5.965,5.8889,5.8721,5.744,5.6811,5.6718,5.7005,5.7166,5.7297,5.7972,5.8293,5.8438,5.9045,5.9364,5.9464,5.9451,5.9468,5.9494,5.9624,0.0,0.0,5.9985,6.0055,6.0054,6.0046,6.0081,6.0037,5.9904,5.9885,5.9862,5.9832,5.9661,5.9426,5.9158,5.8884,5.8633,5.8397,5.7919,5.7333,5.6685,5.6154,5.5587,5.4958,5.3223,5.1051,4.8442,4.8094,4.7604,4.6124,4.7196,4.7821,4.7135,4.7502,0.0,4.769,4.5119,4.4718,4.7469,4.57,4.4945,4.589,4.694,4.7493,4.7509,4.8711,5.1077,5.4628,5.4949,5.6282,5.8299,4.9039,4.7204,0.0,0.0,0.0,0.0,0.0,0.0,0.0,0.0,0.0,0.0,0.0,0.0,0.0,0.0,0.0,0.0,5.2502,5.4739,5.5431,5.5654,5.6012,5.658,5.6582,5.6297,5.5572,5.5996,5.5978,5.5234,5.6188,5.6741,5.6589,5.7435,5.7877,5.7877,5.871,5.8908,5.8389,5.8915,5.8972,5.8445,5.7833,5.7591,5.7556,5.7123,5.6885,5.6941,5.7333,5.7602,5.7838,5.8167,5.8543,5.8913,0.0,0.0,0.0,0.0,5.9679,5.9844,5.9902,5.9905,5.9942,6.0019,6.0047,6.0044,5.9954,5.9949,5.9942,5.9872,5.9855,5.9882,5.9857,5.9753,5.9513,5.9185,5.8895,5.8633,5.8382,5.7783,5.7159,5.6679,5.6064,0.0,5.4407,5.3095,5.1627,5.0043,4.953,4.8903,4.7799,4.7977,4.7642,4.6212,4.6569,4.668,4.6054,4.546,0.0,0.0,0.0,4.601,4.663,4.7492,0.0,0.0,0.0,4.7813,5.0285,4.8043,0.0,0.0,4.4531,4.4062,0.0,0.0,0.0,0.0,0.0,0.0,0.0,0.0,0.0,0.0,0.0,0.0,0.0,0.0,0.0,0.0,5.1329,5.3528,5.5181,5.5397,5.5795,5.6997,5.7081,5.67,5.5977,5.5907,5.5634,5.4982,5.5414,5.5645,5.5534,5.6564,5.7179,5.7179,5.7843,5.7865,5.7217,5.744,5.7277,5.6646,5.6696,5.6802,5.6855,5.7087,5.7241,5.7371,5.7772,5.8122,5.8438,5.8534,5.8884,5.9351,5.9471,5.9596,5.9644,5.9773,5.9916,6.0061,6.0055,6.0056,6.0019,5.9951,5.9975,5.9929,5.9768,5.9714,5.9701,5.973,5.9672,5.9655,5.9664,5.9577,5.9389,5.8985,5.8781,5.8593,5.823,5.7643,5.7061,5.6538,5.5612,5.4445,5.3033,5.2102,5.1188,5.0116,4.9445,4.8748,4.7987,4.7632,4.6906,4.5277,4.5751,4.5876,4.51,4.5056,4.5372,4.6145,4.546,4.5647,4.6967,4.6885,4.7805,4.9921,4.6678,4.5341,0.0,0.0,0.0,0.0,0.0,0.0,0.0,0.0,0.0,0.0,0.0,0.0,0.0,0.0,0.0,0.0,0.0,0.0,0.0,0.0,0.0,0.0,0.0,0.0,5.5297,5.5858,5.6132,5.7041,5.7128,5.7045,5.676,5.6718,5.6452,5.5812,5.5319,5.4819,5.4324,5.4331,5.4365,5.4365,5.5374,5.5872,5.586,5.6479,5.6753,5.6739,5.676,5.6896,5.7164,5.7296,5.7551,5.7928,5.8307,5.856,5.8712,5.9093,5.9336,5.9463,5.962,5.9848,6.0061,6.0061,6.0058,6.0054,6.0084,5.9982,5.9834,5.9734,5.9697,5.9634,5.9396,5.9306,5.9291,5.9318,5.9192,5.911,5.9102,5.9129,5.8987,5.8479,5.854,5.8509,5.7873,5.7535,5.7109,5.633,5.4549,5.2482,5.0442,4.9652,4.8557,4.6358,4.5603,0.0,4.4206,4.4774,4.4936,4.4222,4.5179,4.5864,4.5848,4.2865,4.2144,4.4785,4.1903,4.1706,4.5411,4.3131,4.2525,4.3965,4.4095,4.3745,4.2892,0.0,0.0,0.0,0.0,0.0,0.0,0.0,0.0,0.0,0.0,0.0,0.0,0.0,0.0,0.0,0.0,0.0,0.0,0.0,0.0,0.0,0.0,0.0,0.0,5.2484,5.3883,5.6113,5.6284,5.6025,5.5527,5.5484,5.5306,5.4913,5.5303,5.5455,5.5249,5.5249,5.5249,5.5249,5.6022,5.643,5.643,5.6739,5.6953,5.7143,5.7237,5.7462,5.7805,5.8113,5.8383,5.8597,5.896,5.9185,5.9246,5.9386,5.9487,5.9606,5.9562,5.9544,5.9555,5.9549,5.9493,5.9461,5.9536,5.9525,5.9488,5.9431,5.9419,5.9397,5.9192,5.9148,5.9139,5.9158,5.9129,5.9052,5.8895,5.8631,5.8421,5.8241,5.7732,5.7225,5.7031,5.6352,5.5683,5.5333,5.3784,5.1769,4.9238,4.9626,4.9485,4.6881,4.7085,4.7265,4.6359,4.6094,4.5758,4.5229,4.5493,4.5796,4.5894,4.4802,4.4311,4.4639,4.3732,4.349,4.4058,4.3389,4.3533,4.4608,4.5235,4.2752,3.7113,0.0,0.0,0.0,0.0,0.0,0.0,0.0,0.0,0.0,0.0,0.0,0.0,0.0,0.0,0.0,0.0,0.0,0.0,0.0,0.0,0.0,0.0,0.0,0.0,0.0,0.0,5.6749,5.6984,0.0,5.4505,5.4776,5.446,5.3153,5.3846,5.4595,5.5223,5.5201,5.5508,5.6029,5.6631,5.6989,5.6989,5.703,5.7251,5.7497,5.7587,5.7887,5.8405,5.866,5.8885,5.9113,5.9374,5.9501,5.955,5.9458,5.9448,5.9478,5.867,5.8331,5.8271,5.8248,5.8211,5.8195,5.8812,5.9006,5.897,5.879,5.8146,5.7341,5.6586,5.6245,5.5993,5.5652,5.6279,5.7099,5.7159,5.7366,5.7555,5.7422,5.6867,5.6316,5.6179,5.5301,5.4404,5.3704,5.2514,5.0637,4.7375,4.8194,4.835,4.562,4.6322,4.7105,4.6999,4.6447,4.5906,4.5585,4.5243,4.5086,4.5229,4.4611,4.3998,4.3519,4.3339,4.3159,4.2859,4.2995,4.3315,4.3617,4.3438,4.0446,0.0,0.0,0.0,0.0,0.0,0.0,0.0,0.0,0.0,0.0,0.0,0.0,0.0,0.0,0.0,0.0,0.0,0.0,0.0,0.0,0.0,0.0,0.0,0.0,0.0,0.0,0.0,5.8642,5.8725,0.0,0.0,0.0,0.0,5.056,5.1092,5.225,5.383,5.403,5.4769,5.6356,5.6975,5.7295,5.7368,5.7423,5.7534,5.7809,5.7809,5.8188,5.894,5.894,5.9146,5.9518,5.9485,5.9548,5.9628,5.9196,5.8988,5.8777,5.6787,5.5985,5.5892,5.5946,5.598,5.6184,5.7657,5.8209,5.8162,5.7561,5.5822,5.3588,5.1735,5.0655,0.0,0.0,5.0887,5.3285,5.3978,5.5251,5.6302,5.6096,5.5935,5.5763,5.5336,5.4436,5.3168,5.126,5.045,4.8698,4.4422,0.0,4.4784,4.2168,4.2967,4.4415,4.5881,4.5569,4.5243,4.5286,4.4362,4.3804,4.407,4.2374,4.1329,4.1523,4.0766,4.0741,4.1831,4.1751,4.1429,4.0781,3.8779,0.0,0.0,0.0,0.0,0.0,0.0,0.0,0.0,0.0,0.0,0.0,0.0,0.0,0.0,0.0,0.0,0.0,0.0,0.0,0.0,0.0,0.0,0.0,0.0,0.0,0.0,4.996,5.267,5.7118,5.5397,5.3351,0.0,0.0,0.0,0.0,0.0,0.0,4.9881,5.1085,5.2562,5.4203,5.5501,5.6807,5.8078,5.8078,5.8239,5.861,5.861,5.8874,5.931,5.931,5.9518,5.9748,5.9568,5.9557,5.9424,5.6269,5.4844,5.4434,5.2301,5.0512,4.9262,5.036,5.0592,5.0689,5.2515,5.3933,5.4623,5.2822,5.1247,4.955,4.7041,0.0,0.0,0.0,0.0,4.8834,5.0045,5.1888,5.3547,5.415,5.4205,5.3939,5.3242,5.272,5.0956,4.6073,4.4376,4.1888,3.5935,3.6168,0.0,3.6219,3.8614,4.1203,4.3104,4.4187,4.4796,4.497,4.4054,4.3581,4.3804,4.2641,4.1698,4.1045,4.095,4.0785,4.0429,3.8918,3.7714,3.6976,0.0,0.0,0.0,0.0,0.0,0.0,0.0,0.0,0.0,0.0,0.0,0.0,0.0,0.0,0.0,0.0,0.0,0.0,0.0,0.0,0.0,0.0,0.0,0.0,0.0,0.0,0.0,4.6883,4.9805,5.3379,5.2082,5.024,0.0,0.0,0.0,0.0,0.0,0.0,0.0,0.0,0.0,5.136,5.3008,5.4641,5.6318,5.7024,5.7955,5.9084,5.8967,5.9126,5.9496,5.9437,5.9491,5.9559,5.8683,5.7657,5.6501,5.3867,5.2253,5.1127,0.0,0.0,0.0,0.0,4.5383,4.5297,4.7288,4.8749,4.9416,4.7408,0.0,0.0,0.0,0.0,0.0,0.0,0.0,4.4736,4.6004,4.93,5.2426,5.2931,5.2908,5.2609,5.1909,4.8038,4.3672,4.0299,3.8604,3.6034,3.0571,3.1001,0.0,0.0,0.0,3.8445,4.0733,4.3035,4.4503,4.4634,4.3412,4.2695,4.2905,4.1605,4.0589,4.0159,4.0304,3.9762,3.8364,3.6241,3.414,0.0,0.0,0.0,0.0,0.0,0.0,0.0,0.0,0.0,0.0,0.0,0.0,0.0,0.0,0.0,0.0,0.0,0.0,0.0,0.0,0.0,0.0,0.0,0.0,0.0,0.0,0.0,0.0,0.0,4.7178,4.9209,0.0,0.0,0.0,0.0,0.0,0.0,0.0,0.0,0.0,0.0,0.0,0.0,0.0,5.164,5.359,5.4704,5.618,5.799,5.7742,5.7821,5.8149,5.7967,5.8021,5.8105,5.6269,0.0,5.2531,5.0947,0.0,0.0,0.0,0.0,0.0,0.0,0.0,0.0,0.0,0.0,0.0,0.0,0.0,0.0,0.0,0.0,0.0,0.0,0.0,0.0,0.0,0.0,5.0791,5.0604,5.0769,5.0475,4.8873,4.1228,3.4529,3.4023,3.2772,3.0541,0.0,0.0,0.0,0.0,0.0,0.0,3.8312,4.18,4.4088,4.3926,4.2382,4.147,4.1711,3.9942,3.8833,3.8933,3.8612,3.7581,3.5695,3.353,0.0,0.0,0.0,0.0,0.0,0.0,0.0,0.0,0.0,0.0,0.0,0.0,0.0,0.0,0.0,0.0,0.0,0.0,0.0,0.0,0.0,0.0,0.0,0.0,0.0,0.0,0.0,0.0,0.0,0.0,0.0,0.0,0.0,0.0,0.0,0.0,0.0,0.0,0.0,0.0,0.0,0.0,0.0,0.0,0.0,0.0,0.0,0.0,0.0,0.0,5.0943,5.0984,5.1142,5.0786,5.1319,5.2422,4.9745,4.9733,5.1076,4.4626,0.0,0.0,0.0,0.0,0.0,0.0,0.0,0.0,0.0,0.0,0.0,0.0,0.0,0.0,0.0,0.0,0.0,0.0,0.0,0.0,0.0,0.0,4.2837,4.1666,4.3703,4.3917,3.6361,0.0,0.0,0.0,0.0,0.0,0.0,0.0,0.0,0.0,0.0,0.0,3.482,3.9738,4.2712,4.1845,4.0902,4.0352,4.0401,3.9279,3.8208,3.7421,3.5123,3.3231,0.0,0.0,0.0,0.0,0.0,0.0,0.0,0.0,0.0,0.0,0.0,0.0,0.0,0.0,0.0,0.0,0.0,0.0,0.0,0.0,0.0,0.0,0.0,0.0,0.0,0.0,0.0,0.0,0.0,0.0,0.0,0.0,0.0,0.0,0.0,0.0,0.0,0.0,0.0,0.0,0.0,0.0,0.0,0.0,0.0,0.0,0.0,0.0,0.0,0.0,0.0,0.0,0.0,0.0,0.0,0.0,0.0,0.0,4.6156,4.3716,0.0,0.0,0.0,0.0,0.0,0.0,0.0,0.0,0.0,0.0,0.0,0.0,0.0,0.0,0.0,0.0,0.0,0.0,0.0,0.0,0.0,0.0,0.0,0.0,0.0,0.0,0.0,0.0,0.0,0.0,0.0,0.0,0.0,0.0,0.0,0.0,0.0,0.0,0.0,0.0,3.3705,3.8882,4.2224,4.1871,4.0641,3.9868,4.0013,3.8585,3.7047,3.5536,3.2841,0.0,0.0,0.0,0.0,0.0,0.0,0.0,0.0,0.0,0.0,0.0,0.0,0.0,0.0,0.0,0.0,0.0,0.0,0.0,0.0,0.0,0.0,0.0,0.0,0.0,0.0,0.0,0.0,0.0,0.0,0.0,0.0,0.0,0.0,0.0,0.0,0.0,0.0,0.0,0.0,0.0,0.0,0.0,0.0,0.0,0.0,0.0,0.0,0.0,0.0,0.0,0.0,0.0,0.0,0.0,0.0,0.0,0.0,0.0,4.205,3.7885,0.0,0.0,0.0,0.0,0.0,0.0,0.0,0.0,0.0,0.0,0.0,0.0,0.0,0.0,0.0,0.0,0.0,0.0,0.0,0.0,0.0,0.0,0.0,0.0,0.0,0.0,0.0,0.0,0.0,0.0,0.0,0.0,0.0,0.0,0.0,0.0,0.0,0.0,0.0,0.0,3.2883,3.7935,4.1308,4.1334,4.0062,3.9304,3.9525,3.778,3.5818,3.3654,3.0477,0.0,0.0,0.0,0.0,0.0,0.0,0.0,0.0,0.0,0.0,0.0,0.0,0.0,0.0,0.0,0.0,0.0,0.0,0.0,0.0,0.0,0.0,0.0,0.0,0.0,0.0,0.0,0.0,0.0,0.0,0.0,0.0,0.0,0.0,0.0,0.0,0.0,0.0,0.0,0.0,0.0,0.0,0.0,0.0,0.0,0.0,0.0,0.0,0.0,0.0,0.0,0.0,0.0,0.0,0.0,0.0,0.0,0.0,0.0,0.0,0.0,0.0,0.0,0.0,0.0,0.0,0.0,0.0,0.0,0.0,0.0,0.0,0.0,0.0,0.0,0.0,0.0,0.0,0.0,0.0,0.0,0.0,0.0,0.0,0.0,0.0,0.0,0.0,0.0,0.0,0.0,0.0,0.0,0.0,0.0,0.0,0.0,0.0,0.0,0.0,0.0,3.096,3.5863,3.8834,3.7903,3.7852,3.7903,3.7953,3.6758,3.4908,3.2256,0.0,0.0,0.0,0.0,0.0,0.0,0.0,0.0,0.0,0.0,0.0,0.0,0.0,0.0,0.0,0.0,0.0,0.0,0.0,0.0,0.0,0.0,0.0,0.0,0.0,0.0,0.0,0.0,0.0,0.0,0.0,0.0,0.0,0.0,0.0,0.0,0.0,0.0,0.0,0.0,0.0,0.0,0.0,0.0,0.0,0.0,0.0,0.0,0.0,0.0,0.0,0.0,0.0,0.0,0.0,0.0,0.0,0.0,0.0,0.0,0.0,0.0,0.0,0.0,0.0,0.0,0.0,0.0,0.0,0.0,0.0,0.0,0.0,0.0,0.0,0.0,0.0,0.0,0.0,0.0,0.0,0.0,0.0,0.0,0.0,0.0,0.0,0.0,0.0,0.0,0.0,0.0,0.0,0.0,0.0,0.0,0.0,0.0,0.0,0.0,0.0,0.0,3.1548,3.584,3.8535,3.8309,3.7141,3.6471,3.6655,3.4989,3.26,2.9286,0.0,0.0,0.0,0.0,0.0,0.0,0.0,0.0,0.0,0.0,0.0,0.0,0.0,0.0,0.0,0.0,0.0,0.0,0.0,0.0,0.0,0.0,0.0,0.0,0.0,0.0,0.0,0.0,0.0,0.0,0.0,0.0,0.0,0.0,0.0,0.0,0.0,0.0,0.0,0.0,0.0,0.0,0.0,0.0,0.0,0.0,0.0,0.0,0.0,0.0,0.0,0.0,0.0,0.0,0.0,0.0,0.0,0.0,0.0,0.0,0.0,0.0,0.0,0.0,0.0,0.0,0.0,0.0,0.0,0.0,0.0,0.0,0.0,0.0,0.0,0.0,0.0,0.0,0.0,0.0,0.0,0.0,0.0,0.0,0.0,0.0,0.0,0.0,0.0,0.0,0.0,0.0,0.0,0.0,0.0,0.0,0.0,0.0,0.0,0.0,0.0,0.0,3.1645,3.5547,3.7982,3.7783,3.6373,3.5403,3.52,3.3236,3.0591,2.7167,0.0,0.0,0.0,0.0,0.0,0.0,0.0,0.0,0.0,0.0,0.0,0.0,0.0,0.0,0.0,0.0,0.0,0.0,0.0,0.0,0.0,0.0,0.0,0.0,0.0,0.0,0.0,0.0,0.0,0.0,0.0,0.0,0.0,0.0,0.0,0.0,0.0,0.0,0.0,0.0,0.0,0.0,0.0,0.0,0.0,0.0,0.0,0.0,0.0,0.0,0.0,0.0,0.0,0.0,0.0,0.0,0.0,0.0,0.0,0.0,0.0,0.0,0.0,0.0,0.0,0.0,0.0,0.0,0.0,0.0,0.0,0.0,0.0,0.0,0.0,0.0,0.0,0.0,0.0,0.0,0.0,0.0,0.0,0.0,0.0,0.0,0.0,0.0,0.0,0.0,0.0,0.0,0.0,0.0,0.0,0.0,0.0,0.0,0.0,0.0,0.0,0.0,3.0567,3.4422,3.6523,3.5328,3.5222,3.4746,3.3545,3.1654,2.9376,0.0,0.0,0.0,0.0,0.0,0.0,0.0,0.0,0.0,0.0,0.0,0.0,0.0,0.0,0.0,0.0,0.0,0.0,0.0,0.0,0.0,0.0,0.0,0.0,0.0,0.0,0.0,0.0,0.0,0.0,0.0,0.0,0.0,0.0,0.0,0.0,0.0,0.0,0.0,0.0,0.0,0.0,0.0,0.0,0.0,0.0,0.0,0.0,0.0,0.0,0.0,0.0,0.0,0.0,0.0,0.0,0.0,0.0,0.0,0.0,0.0,0.0,0.0,0.0,0.0,0.0,0.0,0.0,0.0,0.0,0.0,0.0,0.0,0.0,0.0,0.0,0.0,0.0,0.0,0.0,0.0,0.0,0.0,0.0,0.0,0.0,0.0,0.0,0.0,0.0,0.0,0.0,0.0,0.0,0.0,0.0,0.0,0.0,0.0,0.0,0.0,0.0,0.0,2.9308,3.1944,3.3631,3.3965,3.3275,3.2622,3.2293,3.097,2.875,2.5429,0.0,0.0,0.0,0.0,0.0,0.0,0.0,0.0,0.0,0.0,0.0,0.0,0.0,0.0,0.0,0.0,0.0,0.0,0.0,0.0,0.0,0.0,0.0,0.0,0.0,0.0,0.0,0.0,0.0,0.0,0.0,0.0,0.0,0.0,0.0,0.0,0.0,0.0,0.0,0.0,0.0,0.0,0.0,0.0,0.0,0.0,0.0,0.0,0.0,0.0,0.0,0.0,0.0,0.0,0.0,0.0,0.0,0.0,0.0,0.0,0.0,0.0,0.0,0.0,0.0,0.0,0.0,0.0,0.0,0.0,0.0,0.0,0.0,0.0,0.0,0.0,0.0,0.0,0.0,0.0,0.0,0.0,0.0,0.0,0.0,0.0,0.0,0.0,0.0,0.0,0.0,0.0,0.0,0.0,0.0,0.0,0.0,0.0,0.0,0.0,0.0,0.0,0.0,3.1006,3.2514,3.2723,3.2128,3.1541,3.104,3.0098,2.8085,2.4736,0.0,0.0,0.0,0.0,0.0,0.0,0.0,0.0,0.0,0.0,0.0,0.0,0.0,0.0,0.0,0.0,0.0,0.0,0.0,0.0,0.0,0.0,0.0,0.0,0.0,0.0,0.0,0.0,0.0,0.0,0.0,0.0,0.0,0.0,0.0,0.0,0.0,0.0,0.0,0.0,0.0,0.0,0.0,0.0,0.0,0.0,0.0,0.0,0.0,0.0,0.0,0.0,0.0,0.0,0.0,0.0,0.0,0.0,0.0,0.0,0.0,0.0,0.0,0.0,0.0,0.0,0.0,0.0,0.0,0.0,0.0,0.0,0.0,0.0,0.0,0.0,0.0,0.0,0.0,0.0,0.0,0.0,0.0,0.0,0.0,0.0,0.0,0.0,0.0,0.0,0.0,0.0,0.0,0.0,0.0,0.0,0.0,0.0,0.0,0.0,0.0,0.0,0.0,3.121,3.2723,3.1687,3.1596,3.1096,3.0011,2.9253,2.7554,2.4476,2.1812,0.0,0.0,0.0,0.0,0.0,0.0,0.0,0.0,0.0,0.0,0.0,0.0,0.0,0.0,0.0,0.0,0.0,0.0,0.0,0.0,0.0,0.0,0.0,0.0,0.0,0.0,0.0,0.0,0.0,0.0,0.0,0.0,0.0,0.0,0.0,0.0,0.0,0.0,0.0,0.0,0.0,0.0,0.0,0.0,0.0,0.0,0.0,0.0,0.0,0.0,0.0,0.0,0.0,0.0,0.0,0.0,0.0,0.0,0.0,0.0,0.0,0.0,0.0,0.0,0.0,0.0,0.0,0.0,0.0,0.0,0.0,0.0,0.0,0.0,0.0,0.0,0.0,0.0,0.0,0.0,0.0,0.0,0.0,0.0,0.0,0.0,0.0,0.0,0.0,0.0,0.0,0.0,0.0,0.0,0.0,0.0,0.0,0.0,0.0,0.0,0.0,0.0,2.8735,2.9784,3.0254,3.0331,3.0237,2.9955,2.9784,2.8125,2.451,2.2403,0.0,0.0,0.0,0.0,0.0,0.0,0.0,0.0,0.0,0.0,0.0,0.0,0.0,0.0,0.0,0.0,0.0,0.0,0.0,0.0,0.0,0.0,0.0,0.0,0.0,0.0,0.0,0.0,0.0,0.0,0.0,0.0,0.0,0.0,0.0,0.0,0.0,0.0,0.0,0.0,0.0,0.0,0.0,0.0,0.0,0.0,0.0,0.0,0.0,0.0,0.0,0.0,0.0,0.0,0.0,0.0,0.0,0.0,0.0,0.0,0.0,0.0,0.0,0.0,0.0,0.0,0.0,0.0,0.0,0.0,0.0,0.0,0.0,0.0,0.0,0.0,0.0,0.0,0.0,0.0,0.0,0.0,0.0,0.0,0.0,0.0,0.0,0.0,0.0,0.0,0.0,0.0,0.0,0.0,0.0,0.0,0.0,0.0,0.0,0.0,0.0,0.0,2.5679,2.7665,2.9709,2.9955,2.9955,2.9955,2.9955,2.8327,2.451,2.2749,0.0,0.0,0.0,0.0,0.0,0.0,0.0,0.0,0.0,0.0,0.0,0.0,0.0,0.0,0.0,0.0,0.0,0.0,0.0,0.0,0.0,0.0,0.0,0.0,0.0,0.0,0.0,0.0,0.0,0.0,0.0,0.0,0.0,0.0,0.0,0.0,0.0,0.0,0.0,0.0,0.0,0.0,0.0,0.0,0.0,0.0,0.0,0.0,0.0,0.0,0.0,0.0,0.0,0.0,0.0,0.0,0.0,0.0,0.0,0.0,0.0,0.0,0.0,0.0,0.0,0.0,0.0,0.0,0.0,0.0,0.0,0.0,0.0,0.0,0.0,0.0,0.0,0.0,0.0,0.0,0.0,0.0,0.0,0.0,0.0,0.0,0.0,0.0,0.0,0.0,0.0,0.0,0.0,0.0,0.0,0.0,0.0,0.0,0.0,0.0,0.0,0.0,0.0,2.6146,2.909,2.9653,2.9861,2.9861,2.9861,2.829,2.4473,0.0,0.0,0.0,0.0,0.0,0.0,0.0,0.0,0.0,0.0,0.0,0.0,0.0,0.0,0.0,0.0,0.0,0.0,0.0,0.0,0.0,0.0,0.0,0.0,0.0,0.0,0.0,0.0,0.0,0.0,0.0,0.0,0.0,0.0,0.0,0.0,0.0,0.0,0.0,0.0,0.0,0.0,0.0,0.0,0.0,0.0,0.0,0.0,0.0,0.0,0.0,0.0,0.0,0.0,0.0,0.0,0.0,0.0,0.0,0.0,0.0,0.0,0.0,0.0,0.0,0.0,0.0,0.0,0.0,0.0,0.0,0.0,0.0,0.0,0.0,0.0,0.0,0.0,0.0,0.0,0.0,0.0,0.0,0.0,0.0,0.0,0.0,0.0,0.0,0.0,0.0,0.0,0.0,0.0,0.0,0.0,0.0,0.0,0.0,0.0,0.0,0.0,0.0,0.0,2.5288,2.6652,2.8301,2.9386,2.9557,2.9614,2.7972,2.4203,0.0,0.0,0.0,0.0,0.0,0.0,0.0,0.0,0.0,0.0,0.0,0.0,0.0,0.0]}]]]